Wetterdaten: Montag, 10.12.2018
Datum Zeit Temp. A. Pool Temp. Temp. 5cm Feuchte A. Luftdruck Regen Wind Richtung Richtung Sonnenschein ET UV Solar Taupunkt Windchill Windben Empfang
10.12.2018 00:00 5,6 C 4,4 C 4,4 C 88 % 1009,0 hPa 0,4 l/m 12,1 km/h (2 Bft) W-NW 292 0 min 0,000 mm 0,0 UV-I 0 W/m 3,8 C 1,4 C 20,9 km/h (4 Bft) 91,67 %
10.12.2018 00:02 5,3 C 4,4 C 3,9 C 88 % 1008,9 hPa 0,0 l/m 16,1 km/h (3 Bft) NW 319 0 min 0,000 mm 0,0 UV-I 0 W/m 3,5 C -1,1 C 17,7 km/h (3 Bft) 97,30 %
10.12.2018 00:04 5,0 C 4,4 C 3,9 C 89 % 1009,0 hPa 0,4 l/m 11,2 km/h (2 Bft) W-NW 289 0 min 0,000 mm 0,0 UV-I 0 W/m 3,3 C 1,3 C 16,1 km/h (3 Bft) 94,34 %
10.12.2018 00:06 4,9 C 4,4 C 3,9 C 90 % 1009,0 hPa 0,0 l/m 17,7 km/h (3 Bft) W 267 0 min 0,000 mm 0,0 UV-I 0 W/m 3,4 C -2,3 C 25,7 km/h (4 Bft) 96,00 %
10.12.2018 00:08 4,9 C 4,4 C 3,9 C 91 % 1009,2 hPa 0,0 l/m 17,3 km/h (3 Bft) W-NW 296 0 min 0,000 mm 0,0 UV-I 0 W/m 3,6 C -2,2 C 24,1 km/h (4 Bft) 94,74 %
10.12.2018 00:10 5,0 C 4,4 C 4,4 C 91 % 1009,1 hPa 0,0 l/m 19,5 km/h (3 Bft) W-SW 244 0 min 0,000 mm 0,0 UV-I 0 W/m 3,7 C -3,0 C 29,0 km/h (5 Bft) 96,43 %
10.12.2018 00:12 5,1 C 4,4 C 4,4 C 91 % 1009,1 hPa 0,0 l/m 19,3 km/h (3 Bft) W-NW 294 0 min 0,000 mm 0,0 UV-I 0 W/m 3,8 C -2,8 C 25,7 km/h (4 Bft) 97,56 %
10.12.2018 00:14 5,2 C 4,4 C 4,4 C 91 % 1009,2 hPa 0,0 l/m 19,6 km/h (3 Bft) W 280 0 min 0,000 mm 0,0 UV-I 0 W/m 3,9 C -2,8 C 32,2 km/h (5 Bft) 97,73 %
10.12.2018 00:16 5,2 C 4,4 C 4,4 C 91 % 1009,2 hPa 0,0 l/m 15,3 km/h (3 Bft) W-NW 300 0 min 0,000 mm 0,0 UV-I 0 W/m 3,9 C -0,8 C 24,1 km/h (4 Bft) 95,74 %
10.12.2018 00:18 5,3 C 4,4 C 4,4 C 91 % 1009,2 hPa 0,0 l/m 18,1 km/h (3 Bft) W 267 0 min 0,000 mm 0,0 UV-I 0 W/m 4,0 C -2,0 C 27,4 km/h (4 Bft) 100,00 %
10.12.2018 00:20 5,3 C 4,4 C 4,4 C 91 % 1009,2 hPa 0,0 l/m 14,8 km/h (3 Bft) W 281 0 min 0,000 mm 0,0 UV-I 0 W/m 4,0 C -0,5 C 19,3 km/h (3 Bft) 100,00 %
10.12.2018 00:22 5,3 C 4,4 C 4,4 C 91 % 1009,2 hPa 0,0 l/m 12,6 km/h (3 Bft) W 273 0 min 0,000 mm 0,0 UV-I 0 W/m 4,0 C 0,7 C 22,5 km/h (4 Bft) 100,00 %
10.12.2018 00:24 5,3 C 4,4 C 4,4 C 91 % 1009,2 hPa 0,2 l/m 19,9 km/h (4 Bft) W-SW 254 0 min 0,000 mm 0,0 UV-I 0 W/m 4,0 C -2,7 C 33,8 km/h (5 Bft) 100,00 %
10.12.2018 00:26 5,4 C 4,4 C 4,4 C 90 % 1009,2 hPa 0,0 l/m 16,6 km/h (3 Bft) W-SW 258 0 min 0,000 mm 0,0 UV-I 0 W/m 3,9 C -1,2 C 22,5 km/h (4 Bft) 100,00 %
10.12.2018 00:28 5,4 C 4,4 C 4,4 C 90 % 1009,2 hPa 0,0 l/m 21,7 km/h (4 Bft) W-NW 288 0 min 0,000 mm 0,0 UV-I 0 W/m 3,9 C -3,3 C 37,0 km/h (5 Bft) 95,83 %
10.12.2018 00:30 5,5 C 4,4 C 4,4 C 90 % 1009,2 hPa 0,0 l/m 19,0 km/h (3 Bft) W 275 0 min 0,000 mm 0,0 UV-I 0 W/m 4,0 C -2,1 C 35,4 km/h (5 Bft) 97,01 %
10.12.2018 00:32 5,6 C 4,4 C 4,4 C 89 % 1009,2 hPa 0,0 l/m 17,6 km/h (3 Bft) W 275 0 min 0,000 mm 0,0 UV-I 0 W/m 3,9 C -1,4 C 25,7 km/h (4 Bft) 100,00 %
10.12.2018 00:34 5,6 C 4,4 C 4,4 C 89 % 1009,2 hPa 0,0 l/m 18,8 km/h (3 Bft) W 268 0 min 0,000 mm 0,0 UV-I 0 W/m 3,9 C -1,9 C 29,0 km/h (5 Bft) 98,11 %
10.12.2018 00:36 5,6 C 4,4 C 4,4 C 89 % 1009,2 hPa 0,0 l/m 19,8 km/h (3 Bft) W 277 0 min 0,000 mm 0,0 UV-I 0 W/m 3,9 C -2,3 C 30,6 km/h (5 Bft) 100,00 %
10.12.2018 00:38 5,6 C 4,4 C 4,4 C 89 % 1009,2 hPa 0,0 l/m 21,1 km/h (4 Bft) W 263 0 min 0,000 mm 0,0 UV-I 0 W/m 3,9 C -2,8 C 41,8 km/h (6 Bft) 100,00 %
10.12.2018 00:40 5,6 C 4,4 C 4,4 C 88 % 1009,2 hPa 0,0 l/m 19,5 km/h (3 Bft) W 270 0 min 0,000 mm 0,0 UV-I 0 W/m 3,8 C -2,2 C 29,0 km/h (5 Bft) 95,12 %
10.12.2018 00:42 5,7 C 4,4 C 4,4 C 88 % 1009,2 hPa 0,0 l/m 18,4 km/h (3 Bft) W-SW 257 0 min 0,000 mm 0,0 UV-I 0 W/m 3,9 C -1,6 C 33,8 km/h (5 Bft) 100,00 %
10.12.2018 00:44 5,6 C 4,4 C 4,4 C 88 % 1009,2 hPa 0,0 l/m 16,5 km/h (3 Bft) W-SW 248 0 min 0,000 mm 0,0 UV-I 0 W/m 3,8 C -0,9 C 20,9 km/h (4 Bft) 100,00 %
10.12.2018 00:46 5,6 C 4,4 C 4,4 C 88 % 1009,1 hPa 0,0 l/m 22,3 km/h (4 Bft) W 260 0 min 0,000 mm 0,0 UV-I 0 W/m 3,8 C -3,2 C 41,8 km/h (6 Bft) 100,00 %
10.12.2018 00:48 5,7 C 4,4 C 4,4 C 87 % 1009,2 hPa 0,0 l/m 22,0 km/h (4 Bft) W 265 0 min 0,000 mm 0,0 UV-I 0 W/m 3,7 C -3,0 C 37,0 km/h (5 Bft) 100,00 %
10.12.2018 00:50 5,7 C 4,4 C 4,4 C 87 % 1009,2 hPa 0,0 l/m 18,8 km/h (3 Bft) W 263 0 min 0,000 mm 0,0 UV-I 0 W/m 3,7 C -1,8 C 24,1 km/h (4 Bft) 97,37 %
10.12.2018 00:52 5,7 C 4,4 C 4,4 C 87 % 1009,2 hPa 0,0 l/m 17,9 km/h (3 Bft) W 269 0 min 0,000 mm 0,0 UV-I 0 W/m 3,7 C -1,4 C 30,6 km/h (5 Bft) 98,21 %
10.12.2018 00:54 5,7 C 4,4 C 4,4 C 87 % 1009,2 hPa 0,0 l/m 21,2 km/h (4 Bft) W 271 0 min 0,000 mm 0,0 UV-I 0 W/m 3,7 C -2,7 C 30,6 km/h (5 Bft) 100,00 %
10.12.2018 00:56 5,7 C 4,4 C 4,4 C 87 % 1009,3 hPa 0,0 l/m 22,4 km/h (4 Bft) W-NW 302 0 min 0,000 mm 0,0 UV-I 0 W/m 3,7 C -3,1 C 30,6 km/h (5 Bft) 97,87 %
10.12.2018 00:58 5,7 C 4,4 C 4,4 C 87 % 1009,2 hPa 0,0 l/m 24,5 km/h (4 Bft) W 268 0 min 0,000 mm 0,0 UV-I 0 W/m 3,7 C -3,8 C 40,2 km/h (6 Bft) 98,11 %
10.12.2018 01:00 5,8 C 4,4 C 4,4 C 87 % 1009,3 hPa 0,0 l/m 21,9 km/h (4 Bft) W 260 0 min 0,025 mm 0,0 UV-I 0 W/m 3,8 C -2,8 C 33,8 km/h (5 Bft) 100,00 %
10.12.2018 01:02 5,8 C 4,4 C 4,4 C 86 % 1009,3 hPa 0,0 l/m 20,4 km/h (4 Bft) W-SW 241 0 min 0,000 mm 0,0 UV-I 0 W/m 3,6 C -2,3 C 35,4 km/h (5 Bft) 100,00 %
10.12.2018 01:04 5,8 C 4,4 C 4,4 C 86 % 1009,4 hPa 0,0 l/m 20,2 km/h (4 Bft) W 267 0 min 0,000 mm 0,0 UV-I 0 W/m 3,6 C -2,2 C 27,4 km/h (4 Bft) 100,00 %
10.12.2018 01:06 5,8 C 4,4 C 4,4 C 87 % 1009,3 hPa 0,0 l/m 22,6 km/h (4 Bft) W 263 0 min 0,000 mm 0,0 UV-I 0 W/m 3,8 C -3,1 C 37,0 km/h (5 Bft) 95,31 %
10.12.2018 01:08 5,7 C 4,4 C 4,4 C 87 % 1009,3 hPa 0,0 l/m 20,6 km/h (4 Bft) W 261 0 min 0,000 mm 0,0 UV-I 0 W/m 3,7 C -2,5 C 29,0 km/h (5 Bft) 96,23 %
10.12.2018 01:10 5,7 C 4,4 C 4,4 C 87 % 1009,3 hPa 0,0 l/m 27,4 km/h (4 Bft) W 264 0 min 0,000 mm 0,0 UV-I 0 W/m 3,7 C -4,7 C 38,6 km/h (5 Bft) 97,44 %
10.12.2018 01:12 5,7 C 4,4 C 4,4 C 87 % 1009,3 hPa 0,0 l/m 18,5 km/h (3 Bft) W-SW 256 0 min 0,000 mm 0,0 UV-I 0 W/m 3,7 C -1,7 C 27,4 km/h (4 Bft) 96,15 %
10.12.2018 01:14 5,7 C 4,4 C 4,4 C 87 % 1009,4 hPa 0,0 l/m 27,1 km/h (4 Bft) W-SW 242 0 min 0,000 mm 0,0 UV-I 0 W/m 3,7 C -4,6 C 46,7 km/h (6 Bft) 97,87 %
10.12.2018 01:16 5,7 C 4,4 C 4,4 C 87 % 1009,4 hPa 0,0 l/m 19,8 km/h (3 Bft) W-SW 246 0 min 0,000 mm 0,0 UV-I 0 W/m 3,7 C -2,2 C 29,0 km/h (5 Bft) 95,83 %
10.12.2018 01:18 5,7 C 4,4 C 4,4 C 87 % 1009,3 hPa 0,0 l/m 23,4 km/h (4 Bft) W 270 0 min 0,000 mm 0,0 UV-I 0 W/m 3,7 C -3,5 C 40,2 km/h (6 Bft) 95,74 %
10.12.2018 01:20 5,6 C 4,4 C 4,4 C 87 % 1009,4 hPa 0,0 l/m 24,0 km/h (4 Bft) W 261 0 min 0,000 mm 0,0 UV-I 0 W/m 3,6 C -3,8 C 32,2 km/h (5 Bft) 95,12 %
10.12.2018 01:22 5,6 C 4,4 C 4,4 C 87 % 1009,5 hPa 0,0 l/m 24,6 km/h (4 Bft) W 279 0 min 0,000 mm 0,0 UV-I 0 W/m 3,6 C -4,0 C 32,2 km/h (5 Bft) 96,43 %
10.12.2018 01:24 5,6 C 4,4 C 4,4 C 87 % 1009,5 hPa 0,0 l/m 21,5 km/h (4 Bft) W-SW 257 0 min 0,000 mm 0,0 UV-I 0 W/m 3,6 C -3,0 C 27,4 km/h (4 Bft) 92,11 %
10.12.2018 01:26 5,6 C 4,4 C 4,4 C 87 % 1009,4 hPa 0,0 l/m 25,0 km/h (4 Bft) W 270 0 min 0,000 mm 0,0 UV-I 0 W/m 3,6 C -4,1 C 38,6 km/h (5 Bft) 94,64 %
10.12.2018 01:28 5,6 C 4,4 C 4,4 C 87 % 1009,4 hPa 0,0 l/m 25,2 km/h (4 Bft) W 281 0 min 0,000 mm 0,0 UV-I 0 W/m 3,6 C -4,2 C 41,8 km/h (6 Bft) 97,87 %
10.12.2018 01:30 5,6 C 4,4 C 4,4 C 87 % 1009,4 hPa 0,0 l/m 24,7 km/h (4 Bft) W-SW 248 0 min 0,000 mm 0,0 UV-I 0 W/m 3,6 C -4,0 C 37,0 km/h (5 Bft) 97,56 %
10.12.2018 01:32 5,6 C 4,4 C 4,4 C 87 % 1009,5 hPa 0,0 l/m 24,4 km/h (4 Bft) W-SW 253 0 min 0,000 mm 0,0 UV-I 0 W/m 3,6 C -3,9 C 38,6 km/h (5 Bft) 100,00 %
10.12.2018 01:34 5,6 C 4,4 C 4,4 C 87 % 1009,5 hPa 0,0 l/m 23,6 km/h (4 Bft) W 280 0 min 0,000 mm 0,0 UV-I 0 W/m 3,6 C -3,7 C 33,8 km/h (5 Bft) 96,77 %
10.12.2018 01:36 5,6 C 4,4 C 4,4 C 88 % 1009,5 hPa 0,0 l/m 18,7 km/h (3 Bft) W 270 0 min 0,000 mm 0,0 UV-I 0 W/m 3,8 C -1,9 C 27,4 km/h (4 Bft) 97,87 %
10.12.2018 01:38 5,5 C 4,4 C 4,4 C 88 % 1009,6 hPa 0,0 l/m 24,6 km/h (4 Bft) W 265 0 min 0,000 mm 0,0 UV-I 0 W/m 3,7 C -4,1 C 35,4 km/h (5 Bft) 97,87 %
10.12.2018 01:40 5,6 C 4,4 C 4,4 C 88 % 1009,6 hPa 0,0 l/m 24,3 km/h (4 Bft) W-NW 284 0 min 0,000 mm 0,0 UV-I 0 W/m 3,8 C -3,9 C 35,4 km/h (5 Bft) 95,45 %
10.12.2018 01:42 5,6 C 4,4 C 4,4 C 88 % 1009,7 hPa 0,0 l/m 23,7 km/h (4 Bft) W 275 0 min 0,000 mm 0,0 UV-I 0 W/m 3,8 C -3,7 C 41,8 km/h (6 Bft) 98,00 %
10.12.2018 01:44 5,5 C 4,4 C 4,4 C 88 % 1009,6 hPa 0,0 l/m 21,2 km/h (4 Bft) W 267 0 min 0,000 mm 0,0 UV-I 0 W/m 3,7 C -3,0 C 33,8 km/h (5 Bft) 95,74 %
10.12.2018 01:46 5,5 C 4,4 C 4,4 C 88 % 1009,7 hPa 0,0 l/m 23,9 km/h (4 Bft) W 273 0 min 0,000 mm 0,0 UV-I 0 W/m 3,7 C -3,9 C 37,0 km/h (5 Bft) 94,44 %
10.12.2018 01:48 5,5 C 4,4 C 4,4 C 88 % 1009,7 hPa 0,0 l/m 25,0 km/h (4 Bft) W-SW 258 0 min 0,000 mm 0,0 UV-I 0 W/m 3,7 C -4,3 C 40,2 km/h (6 Bft) 98,18 %
10.12.2018 01:50 5,5 C 4,4 C 4,4 C 88 % 1009,8 hPa 0,0 l/m 16,7 km/h (3 Bft) W-SW 258 0 min 0,000 mm 0,0 UV-I 0 W/m 3,7 C -1,1 C 24,1 km/h (4 Bft) 95,74 %
10.12.2018 01:52 5,5 C 4,4 C 4,4 C 88 % 1009,8 hPa 0,0 l/m 22,8 km/h (4 Bft) W-SW 253 0 min 0,000 mm 0,0 UV-I 0 W/m 3,7 C -3,5 C 37,0 km/h (5 Bft) 95,74 %
10.12.2018 01:54 5,5 C 4,4 C 4,4 C 88 % 1009,8 hPa 0,0 l/m 18,1 km/h (3 Bft) W-NW 301 0 min 0,000 mm 0,0 UV-I 0 W/m 3,7 C -1,8 C 30,6 km/h (5 Bft) 95,24 %
10.12.2018 01:56 5,5 C 4,4 C 4,4 C 88 % 1009,9 hPa 0,0 l/m 18,8 km/h (3 Bft) W 267 0 min 0,000 mm 0,0 UV-I 0 W/m 3,7 C -2,0 C 25,7 km/h (4 Bft) 95,12 %
10.12.2018 01:58 5,5 C 4,4 C 4,4 C 88 % 1010,0 hPa 0,0 l/m 18,5 km/h (3 Bft) W 278 0 min 0,000 mm 0,0 UV-I 0 W/m 3,7 C -1,9 C 27,4 km/h (4 Bft) 94,92 %
10.12.2018 02:00 5,5 C 4,4 C 4,4 C 88 % 1010,1 hPa 0,0 l/m 20,8 km/h (4 Bft) W 271 0 min 0,026 mm 0,0 UV-I 0 W/m 3,7 C -2,8 C 35,4 km/h (5 Bft) 95,12 %
10.12.2018 02:02 5,5 C 4,4 C 4,4 C 88 % 1010,0 hPa 0,0 l/m 20,0 km/h (4 Bft) W 276 0 min 0,000 mm 0,0 UV-I 0 W/m 3,7 C -2,5 C 35,4 km/h (5 Bft) 96,23 %
10.12.2018 02:04 5,6 C 4,4 C 4,4 C 88 % 1010,0 hPa 0,0 l/m 21,2 km/h (4 Bft) SW 236 0 min 0,000 mm 0,0 UV-I 0 W/m 3,8 C -2,8 C 30,6 km/h (5 Bft) 95,74 %
10.12.2018 02:06 5,6 C 4,4 C 4,4 C 88 % 1010,1 hPa 0,0 l/m 19,1 km/h (3 Bft) W 269 0 min 0,000 mm 0,0 UV-I 0 W/m 3,8 C -2,0 C 29,0 km/h (5 Bft) 91,43 %
10.12.2018 02:08 5,6 C 4,4 C 4,4 C 88 % 1010,2 hPa 0,0 l/m 16,0 km/h (3 Bft) W 265 0 min 0,000 mm 0,0 UV-I 0 W/m 3,8 C -0,7 C 25,7 km/h (4 Bft) 94,64 %
10.12.2018 02:10 5,6 C 4,4 C 4,4 C 88 % 1010,1 hPa 0,0 l/m 19,2 km/h (3 Bft) W 263 0 min 0,000 mm 0,0 UV-I 0 W/m 3,8 C -2,1 C 27,4 km/h (4 Bft) 97,56 %
10.12.2018 02:12 5,6 C 4,4 C 4,4 C 88 % 1010,1 hPa 0,0 l/m 22,4 km/h (4 Bft) W-SW 248 0 min 0,000 mm 0,0 UV-I 0 W/m 3,8 C -3,3 C 45,1 km/h (6 Bft) 92,45 %
10.12.2018 02:14 5,6 C 4,4 C 4,4 C 88 % 1010,2 hPa 0,0 l/m 18,2 km/h (3 Bft) W 275 0 min 0,000 mm 0,0 UV-I 0 W/m 3,8 C -1,7 C 29,0 km/h (5 Bft) 96,00 %
10.12.2018 02:16 5,6 C 4,4 C 4,4 C 88 % 1010,2 hPa 0,0 l/m 18,1 km/h (3 Bft) W 280 0 min 0,000 mm 0,0 UV-I 0 W/m 3,8 C -1,6 C 30,6 km/h (5 Bft) 94,74 %
10.12.2018 02:18 5,6 C 4,4 C 5,0 C 88 % 1010,2 hPa 0,0 l/m 21,8 km/h (4 Bft) W 267 0 min 0,000 mm 0,0 UV-I 0 W/m 3,8 C -3,1 C 37,0 km/h (5 Bft) 95,74 %
10.12.2018 02:20 5,6 C 4,4 C 5,0 C 87 % 1010,2 hPa 0,0 l/m 20,1 km/h (4 Bft) W 262 0 min 0,000 mm 0,0 UV-I 0 W/m 3,6 C -2,4 C 35,4 km/h (5 Bft) 97,87 %
10.12.2018 02:22 5,6 C 4,4 C 4,4 C 87 % 1010,2 hPa 0,0 l/m 20,5 km/h (4 Bft) W 275 0 min 0,000 mm 0,0 UV-I 0 W/m 3,6 C -2,6 C 33,8 km/h (5 Bft) 96,00 %
10.12.2018 02:24 5,6 C 4,4 C 4,4 C 87 % 1010,3 hPa 0,0 l/m 19,4 km/h (3 Bft) W 268 0 min 0,000 mm 0,0 UV-I 0 W/m 3,6 C -2,2 C 25,7 km/h (4 Bft) 97,56 %
10.12.2018 02:26 5,6 C 4,4 C 5,0 C 87 % 1010,3 hPa 0,0 l/m 16,5 km/h (3 Bft) W 273 0 min 0,000 mm 0,0 UV-I 0 W/m 3,6 C -0,9 C 27,4 km/h (4 Bft) 94,34 %
10.12.2018 02:28 5,6 C 4,4 C 5,0 C 87 % 1010,3 hPa 0,0 l/m 21,5 km/h (4 Bft) W 276 0 min 0,000 mm 0,0 UV-I 0 W/m 3,6 C -3,0 C 29,0 km/h (5 Bft) 97,62 %
10.12.2018 02:30 5,6 C 4,4 C 5,0 C 87 % 1010,4 hPa 0,0 l/m 19,3 km/h (3 Bft) W 263 0 min 0,000 mm 0,0 UV-I 0 W/m 3,6 C -2,1 C 25,7 km/h (4 Bft) 95,74 %
10.12.2018 02:32 5,6 C 4,4 C 5,0 C 87 % 1010,5 hPa 0,0 l/m 18,3 km/h (3 Bft) W 272 0 min 0,000 mm 0,0 UV-I 0 W/m 3,6 C -1,7 C 30,6 km/h (5 Bft) 97,87 %
10.12.2018 02:34 5,6 C 4,4 C 5,0 C 87 % 1010,4 hPa 0,0 l/m 20,3 km/h (4 Bft) W 276 0 min 0,000 mm 0,0 UV-I 0 W/m 3,6 C -2,5 C 32,2 km/h (5 Bft) 97,14 %
10.12.2018 02:36 5,6 C 4,4 C 4,4 C 87 % 1010,5 hPa 0,0 l/m 14,9 km/h (3 Bft) W 265 0 min 0,000 mm 0,0 UV-I 0 W/m 3,6 C -0,1 C 24,1 km/h (4 Bft) 92,31 %
10.12.2018 02:38 5,6 C 4,4 C 4,4 C 88 % 1010,5 hPa 0,0 l/m 17,5 km/h (3 Bft) W 261 0 min 0,000 mm 0,0 UV-I 0 W/m 3,8 C -1,4 C 25,7 km/h (4 Bft) 98,00 %
10.12.2018 02:40 5,6 C 4,4 C 4,4 C 88 % 1010,5 hPa 0,0 l/m 18,0 km/h (3 Bft) W-SW 240 0 min 0,000 mm 0,0 UV-I 0 W/m 3,8 C -1,6 C 24,1 km/h (4 Bft) 94,74 %
10.12.2018 02:42 5,5 C 4,4 C 4,4 C 88 % 1010,5 hPa 0,0 l/m 19,5 km/h (3 Bft) W 281 0 min 0,000 mm 0,0 UV-I 0 W/m 3,7 C -2,3 C 29,0 km/h (5 Bft) 98,11 %
10.12.2018 02:44 5,4 C 4,4 C 4,4 C 88 % 1010,5 hPa 0,0 l/m 19,1 km/h (3 Bft) W-NW 282 0 min 0,000 mm 0,0 UV-I 0 W/m 3,6 C -2,3 C 29,0 km/h (5 Bft) 98,00 %
10.12.2018 02:46 5,4 C 4,4 C 4,4 C 89 % 1010,6 hPa 0,0 l/m 15,4 km/h (3 Bft) W-SW 240 0 min 0,000 mm 0,0 UV-I 0 W/m 3,7 C -0,6 C 22,5 km/h (4 Bft) 97,87 %
10.12.2018 02:48 5,3 C 4,4 C 4,4 C 89 % 1010,7 hPa 0,2 l/m 12,4 km/h (3 Bft) W 259 0 min 0,000 mm 0,0 UV-I 0 W/m 3,6 C 0,9 C 16,1 km/h (3 Bft) 100,00 %
10.12.2018 02:50 5,3 C 4,4 C 4,4 C 90 % 1010,6 hPa 0,0 l/m 14,3 km/h (3 Bft) W 266 0 min 0,000 mm 0,0 UV-I 0 W/m 3,8 C -0,2 C 22,5 km/h (4 Bft) 100,00 %
10.12.2018 02:52 5,2 C 4,4 C 4,4 C 90 % 1010,7 hPa 0,0 l/m 13,1 km/h (3 Bft) W 265 0 min 0,000 mm 0,0 UV-I 0 W/m 3,7 C 0,3 C 16,1 km/h (3 Bft) 100,00 %
10.12.2018 02:54 5,2 C 4,4 C 4,4 C 90 % 1010,6 hPa 0,0 l/m 19,9 km/h (4 Bft) W 276 0 min 0,000 mm 0,0 UV-I 0 W/m 3,7 C -2,9 C 30,6 km/h (5 Bft) 100,00 %
10.12.2018 02:56 5,2 C 4,4 C 4,4 C 91 % 1010,7 hPa 0,0 l/m 16,9 km/h (3 Bft) W-NW 291 0 min 0,000 mm 0,0 UV-I 0 W/m 3,9 C -1,6 C 22,5 km/h (4 Bft) 100,00 %
10.12.2018 02:58 5,1 C 4,4 C 4,4 C 91 % 1010,7 hPa 0,0 l/m 14,3 km/h (3 Bft) W 265 0 min 0,000 mm 0,0 UV-I 0 W/m 3,8 C -0,4 C 22,5 km/h (4 Bft) 100,00 %
10.12.2018 03:00 5,1 C 4,4 C 4,4 C 91 % 1010,7 hPa 0,0 l/m 13,6 km/h (3 Bft) W 263 0 min 0,025 mm 0,0 UV-I 0 W/m 3,8 C -0,1 C 19,3 km/h (3 Bft) 100,00 %
10.12.2018 03:02 5,1 C 4,4 C 4,4 C 91 % 1010,8 hPa 0,0 l/m 21,6 km/h (4 Bft) W 271 0 min 0,000 mm 0,0 UV-I 0 W/m 3,8 C -3,7 C 33,8 km/h (5 Bft) 97,87 %
10.12.2018 03:04 5,1 C 4,4 C 4,4 C 91 % 1010,7 hPa 0,0 l/m 16,2 km/h (3 Bft) W-SW 246 0 min 0,000 mm 0,0 UV-I 0 W/m 3,8 C -1,4 C 30,6 km/h (5 Bft) 100,00 %
10.12.2018 03:06 5,1 C 4,4 C 4,4 C 91 % 1010,7 hPa 0,0 l/m 14,9 km/h (3 Bft) W 277 0 min 0,000 mm 0,0 UV-I 0 W/m 3,8 C -0,8 C 24,1 km/h (4 Bft) 100,00 %
10.12.2018 03:08 5,1 C 4,4 C 4,4 C 91 % 1010,8 hPa 0,0 l/m 12,3 km/h (3 Bft) W-SW 249 0 min 0,000 mm 0,0 UV-I 0 W/m 3,8 C 0,7 C 20,9 km/h (4 Bft) 100,00 %
10.12.2018 03:10 5,1 C 4,4 C 4,4 C 92 % 1010,8 hPa 0,0 l/m 19,5 km/h (3 Bft) W-SW 245 0 min 0,000 mm 0,0 UV-I 0 W/m 3,9 C -2,8 C 27,4 km/h (4 Bft) 100,00 %
10.12.2018 03:12 5,1 C 4,4 C 4,4 C 91 % 1010,8 hPa 0,0 l/m 22,3 km/h (4 Bft) W 259 0 min 0,000 mm 0,0 UV-I 0 W/m 3,8 C -3,9 C 30,6 km/h (5 Bft) 100,00 %
10.12.2018 03:14 5,2 C 4,4 C 4,4 C 91 % 1010,7 hPa 0,0 l/m 15,3 km/h (3 Bft) W-NW 302 0 min 0,000 mm 0,0 UV-I 0 W/m 3,9 C -0,8 C 22,5 km/h (4 Bft) 100,00 %
10.12.2018 03:16 5,2 C 4,4 C 4,4 C 91 % 1010,8 hPa 0,0 l/m 16,3 km/h (3 Bft) W-SW 252 0 min 0,000 mm 0,0 UV-I 0 W/m 3,9 C -1,3 C 25,7 km/h (4 Bft) 100,00 %
10.12.2018 03:18 5,2 C 4,4 C 4,4 C 91 % 1010,8 hPa 0,0 l/m 17,2 km/h (3 Bft) W-SW 247 0 min 0,000 mm 0,0 UV-I 0 W/m 3,9 C -1,7 C 29,0 km/h (5 Bft) 100,00 %
10.12.2018 03:20 5,2 C 4,4 C 4,4 C 90 % 1010,8 hPa 0,0 l/m 25,2 km/h (4 Bft) W 276 0 min 0,000 mm 0,0 UV-I 0 W/m 3,7 C -4,7 C 43,5 km/h (6 Bft) 97,56 %
10.12.2018 03:22 5,3 C 4,4 C 4,4 C 90 % 1010,8 hPa 0,0 l/m 21,3 km/h (4 Bft) W 275 0 min 0,000 mm 0,0 UV-I 0 W/m 3,8 C -3,3 C 29,0 km/h (5 Bft) 100,00 %
10.12.2018 03:24 5,3 C 4,4 C 3,9 C 89 % 1010,8 hPa 0,0 l/m 25,5 km/h (4 Bft) W 273 0 min 0,000 mm 0,0 UV-I 0 W/m 3,6 C -4,7 C 38,6 km/h (5 Bft) 100,00 %
10.12.2018 03:26 5,4 C 4,4 C 3,9 C 89 % 1010,9 hPa 0,0 l/m 20,0 km/h (4 Bft) W 266 0 min 0,000 mm 0,0 UV-I 0 W/m 3,7 C -2,7 C 32,2 km/h (5 Bft) 97,14 %
10.12.2018 03:28 5,3 C 4,4 C 3,9 C 88 % 1010,9 hPa 0,0 l/m 20,9 km/h (4 Bft) W 279 0 min 0,000 mm 0,0 UV-I 0 W/m 3,5 C -3,1 C 33,8 km/h (5 Bft) 100,00 %
10.12.2018 03:30 5,4 C 4,4 C 3,9 C 88 % 1011,0 hPa 0,0 l/m 23,0 km/h (4 Bft) W 275 0 min 0,000 mm 0,0 UV-I 0 W/m 3,6 C -3,7 C 30,6 km/h (5 Bft) 100,00 %
10.12.2018 03:32 5,4 C 4,4 C 3,9 C 88 % 1011,0 hPa 0,0 l/m 25,9 km/h (4 Bft) W 263 0 min 0,000 mm 0,0 UV-I 0 W/m 3,6 C -4,7 C 40,2 km/h (6 Bft) 97,56 %
10.12.2018 03:34 5,4 C 4,4 C 3,9 C 87 % 1011,0 hPa 0,0 l/m 21,4 km/h (4 Bft) W 269 0 min 0,000 mm 0,0 UV-I 0 W/m 3,4 C -3,2 C 30,6 km/h (5 Bft) 100,00 %
10.12.2018 03:36 5,4 C 4,4 C 3,9 C 87 % 1010,9 hPa 0,0 l/m 29,5 km/h (5 Bft) W-SW 257 0 min 0,000 mm 0,0 UV-I 0 W/m 3,4 C -5,7 C 48,3 km/h (6 Bft) 100,00 %
10.12.2018 03:38 5,4 C 4,4 C 3,9 C 87 % 1011,1 hPa 0,0 l/m 23,4 km/h (4 Bft) W-SW 251 0 min 0,000 mm 0,0 UV-I 0 W/m 3,4 C -3,9 C 40,2 km/h (6 Bft) 100,00 %
10.12.2018 03:40 5,5 C 4,4 C 3,9 C 87 % 1011,0 hPa 0,0 l/m 28,4 km/h (4 Bft) W-NW 298 0 min 0,000 mm 0,0 UV-I 0 W/m 3,5 C -5,3 C 40,2 km/h (6 Bft) 100,00 %
10.12.2018 03:42 5,5 C 4,4 C 3,9 C 87 % 1011,2 hPa 0,0 l/m 22,2 km/h (4 Bft) W 281 0 min 0,000 mm 0,0 UV-I 0 W/m 3,5 C -3,3 C 35,4 km/h (5 Bft) 98,00 %
10.12.2018 03:44 5,5 C 4,4 C 3,9 C 87 % 1011,1 hPa 0,0 l/m 18,2 km/h (3 Bft) W 279 0 min 0,000 mm 0,0 UV-I 0 W/m 3,5 C -1,8 C 25,7 km/h (4 Bft) 100,00 %
10.12.2018 03:46 5,5 C 4,4 C 4,4 C 87 % 1011,2 hPa 0,2 l/m 27,0 km/h (4 Bft) W 262 0 min 0,000 mm 0,0 UV-I 0 W/m 3,5 C -4,9 C 51,5 km/h (7 Bft) 97,44 %
10.12.2018 03:48 5,5 C 4,4 C 4,4 C 87 % 1011,2 hPa 0,0 l/m 24,8 km/h (4 Bft) W-SW 252 0 min 0,000 mm 0,0 UV-I 0 W/m 3,5 C -4,2 C 46,7 km/h (6 Bft) 96,00 %
10.12.2018 03:50 5,5 C 4,4 C 4,4 C 86 % 1011,2 hPa 0,0 l/m 22,9 km/h (4 Bft) W 261 0 min 0,000 mm 0,0 UV-I 0 W/m 3,3 C -3,6 C 37,0 km/h (5 Bft) 98,11 %
10.12.2018 03:52 5,5 C 4,4 C 4,4 C 86 % 1011,2 hPa 0,0 l/m 19,8 km/h (3 Bft) NW 316 0 min 0,000 mm 0,0 UV-I 0 W/m 3,3 C -2,4 C 27,4 km/h (4 Bft) 97,56 %
10.12.2018 03:54 5,5 C 4,4 C 4,4 C 86 % 1011,2 hPa 0,0 l/m 21,9 km/h (4 Bft) W 279 0 min 0,000 mm 0,0 UV-I 0 W/m 3,3 C -3,2 C 33,8 km/h (5 Bft) 97,87 %
10.12.2018 03:56 5,5 C 4,4 C 4,4 C 86 % 1011,3 hPa 0,0 l/m 23,2 km/h (4 Bft) W-SW 254 0 min 0,000 mm 0,0 UV-I 0 W/m 3,3 C -3,7 C 35,4 km/h (5 Bft) 96,23 %
10.12.2018 03:58 5,5 C 4,4 C 4,4 C 86 % 1011,3 hPa 0,0 l/m 18,7 km/h (3 Bft) W 281 0 min 0,000 mm 0,0 UV-I 0 W/m 3,3 C -2,0 C 35,4 km/h (5 Bft) 97,37 %
10.12.2018 04:00 5,5 C 4,4 C 3,9 C 86 % 1011,3 hPa 0,0 l/m 17,8 km/h (3 Bft) W 261 0 min 0,026 mm 0,0 UV-I 0 W/m 3,3 C -1,6 C 27,4 km/h (4 Bft) 96,00 %
10.12.2018 04:02 5,5 C 4,4 C 3,9 C 86 % 1011,2 hPa 0,0 l/m 21,1 km/h (4 Bft) W 263 0 min 0,000 mm 0,0 UV-I 0 W/m 3,3 C -2,9 C 27,4 km/h (4 Bft) 97,30 %
10.12.2018 04:04 5,4 C 4,4 C 3,9 C 86 % 1011,3 hPa 0,0 l/m 22,8 km/h (4 Bft) W 261 0 min 0,000 mm 0,0 UV-I 0 W/m 3,3 C -3,7 C 43,5 km/h (6 Bft) 94,00 %
10.12.2018 04:06 5,5 C 4,4 C 3,9 C 85 % 1011,3 hPa 0,0 l/m 25,6 km/h (4 Bft) W-NW 288 0 min 0,000 mm 0,0 UV-I 0 W/m 3,2 C -4,5 C 46,7 km/h (6 Bft) 94,74 %
10.12.2018 04:08 5,5 C 4,4 C 4,4 C 85 % 1011,4 hPa 0,0 l/m 27,0 km/h (4 Bft) W 260 0 min 0,000 mm 0,0 UV-I 0 W/m 3,2 C -4,9 C 41,8 km/h (6 Bft) 97,37 %
10.12.2018 04:10 5,6 C 4,4 C 4,4 C 85 % 1011,4 hPa 0,0 l/m 26,0 km/h (4 Bft) W 268 0 min 0,000 mm 0,0 UV-I 0 W/m 3,3 C -4,4 C 38,6 km/h (5 Bft) 96,23 %
10.12.2018 04:12 5,6 C 4,4 C 4,4 C 85 % 1011,7 hPa 0,0 l/m 26,3 km/h (4 Bft) NW 325 0 min 0,000 mm 0,0 UV-I 0 W/m 3,3 C -4,5 C 48,3 km/h (6 Bft) 98,21 %
10.12.2018 04:14 5,6 C 4,4 C 4,4 C 85 % 1011,9 hPa 0,0 l/m 26,7 km/h (4 Bft) W 263 0 min 0,000 mm 0,0 UV-I 0 W/m 3,3 C -4,6 C 48,3 km/h (6 Bft) 97,56 %
10.12.2018 04:16 5,4 C 4,4 C 3,9 C 85 % 1012,0 hPa 0,0 l/m 28,7 km/h (4 Bft) W-NW 303 0 min 0,000 mm 0,0 UV-I 0 W/m 3,1 C -5,5 C 46,7 km/h (6 Bft) 95,74 %
10.12.2018 04:18 5,3 C 4,4 C 3,9 C 85 % 1012,0 hPa 0,0 l/m 25,6 km/h (4 Bft) W-NW 284 0 min 0,000 mm 0,0 UV-I 0 W/m 3,0 C -4,7 C 40,2 km/h (6 Bft) 96,00 %
10.12.2018 04:20 5,3 C 4,4 C 3,9 C 86 % 1012,1 hPa 0,0 l/m 25,3 km/h (4 Bft) W 273 0 min 0,000 mm 0,0 UV-I 0 W/m 3,2 C -4,6 C 48,3 km/h (6 Bft) 98,00 %
10.12.2018 04:22 5,2 C 4,4 C 3,9 C 86 % 1012,1 hPa 0,0 l/m 19,3 km/h (3 Bft) W 273 0 min 0,000 mm 0,0 UV-I 0 W/m 3,1 C -2,6 C 32,2 km/h (5 Bft) 97,62 %
10.12.2018 04:24 5,2 C 4,4 C 3,9 C 86 % 1012,1 hPa 0,0 l/m 26,8 km/h (4 Bft) W 275 0 min 0,000 mm 0,0 UV-I 0 W/m 3,1 C -5,2 C 46,7 km/h (6 Bft) 97,56 %
10.12.2018 04:25 5,1 C 4,4 C 3,9 C 86 % 1012,1 hPa 0,0 l/m 23,0 km/h (4 Bft) W 262 0 min 0,000 mm 0,0 UV-I 0 W/m 3,0 C -4,1 C 32,2 km/h (5 Bft) 96,55 %
10.12.2018 04:28 5,0 C 4,4 C 3,3 C 86 % 1012,2 hPa 0,0 l/m 25,9 km/h (4 Bft) W-NW 303 0 min 0,000 mm 0,0 UV-I 0 W/m 2,9 C -5,2 C 33,8 km/h (5 Bft) 100,00 %
10.12.2018 04:30 4,9 C 4,4 C 3,3 C 85 % 1012,2 hPa 0,0 l/m 23,8 km/h (4 Bft) NW 308 0 min 0,000 mm 0,0 UV-I 0 W/m 2,6 C -4,7 C 40,2 km/h (6 Bft) 95,74 %
10.12.2018 04:32 4,8 C 4,4 C 3,3 C 85 % 1012,2 hPa 0,0 l/m 25,8 km/h (4 Bft) W-NW 286 0 min 0,000 mm 0,0 UV-I 0 W/m 2,5 C -5,5 C 37,0 km/h (5 Bft) 97,56 %
10.12.2018 04:35 4,7 C 4,4 C 2,8 C 84 % 1012,4 hPa 0,0 l/m 21,6 km/h (4 Bft) W-NW 285 0 min 0,000 mm 0,0 UV-I 0 W/m 2,2 C -4,2 C 37,0 km/h (5 Bft) 98,68 %
10.12.2018 04:36 4,7 C 4,4 C 2,8 C 84 % 1012,4 hPa 0,0 l/m 30,9 km/h (5 Bft) W-NW 299 0 min 0,000 mm 0,0 UV-I 0 W/m 2,2 C -7,0 C 43,5 km/h (6 Bft) 100,00 %
10.12.2018 04:38 4,7 C 4,4 C 3,3 C 84 % 1012,5 hPa 0,0 l/m 27,8 km/h (4 Bft) W-NW 285 0 min 0,000 mm 0,0 UV-I 0 W/m 2,2 C -6,2 C 45,1 km/h (6 Bft) 100,00 %
10.12.2018 04:40 4,7 C 4,4 C 3,3 C 84 % 1012,6 hPa 0,0 l/m 17,5 km/h (3 Bft) W-NW 287 0 min 0,000 mm 0,0 UV-I 0 W/m 2,2 C -2,5 C 30,6 km/h (5 Bft) 100,00 %
10.12.2018 04:42 4,7 C 4,4 C 3,3 C 84 % 1012,7 hPa 0,0 l/m 21,0 km/h (4 Bft) SW 232 0 min 0,000 mm 0,0 UV-I 0 W/m 2,2 C -4,0 C 35,4 km/h (5 Bft) 97,37 %
10.12.2018 04:44 4,7 C 4,4 C 3,3 C 83 % 1012,7 hPa 0,0 l/m 23,9 km/h (4 Bft) W 267 0 min 0,000 mm 0,0 UV-I 0 W/m 2,1 C -5,0 C 33,8 km/h (5 Bft) 100,00 %
10.12.2018 04:46 4,7 C 4,4 C 3,3 C 83 % 1012,7 hPa 0,0 l/m 21,5 km/h (4 Bft) W 270 0 min 0,000 mm 0,0 UV-I 0 W/m 2,1 C -4,1 C 33,8 km/h (5 Bft) 100,00 %
10.12.2018 04:48 4,6 C 4,4 C 2,8 C 84 % 1012,8 hPa 0,0 l/m 18,2 km/h (3 Bft) W 273 0 min 0,000 mm 0,0 UV-I 0 W/m 2,1 C -2,9 C 30,6 km/h (5 Bft) 100,00 %
10.12.2018 04:50 4,6 C 4,4 C 2,8 C 84 % 1012,9 hPa 0,0 l/m 20,3 km/h (4 Bft) W 273 0 min 0,000 mm 0,0 UV-I 0 W/m 2,1 C -3,8 C 33,8 km/h (5 Bft) 100,00 %
10.12.2018 04:52 4,6 C 4,4 C 3,3 C 84 % 1013,0 hPa 0,0 l/m 23,3 km/h (4 Bft) W 277 0 min 0,000 mm 0,0 UV-I 0 W/m 2,1 C -4,9 C 38,6 km/h (5 Bft) 97,73 %
10.12.2018 04:54 4,6 C 4,4 C 3,3 C 83 % 1012,9 hPa 0,0 l/m 23,6 km/h (4 Bft) W-NW 289 0 min 0,000 mm 0,0 UV-I 0 W/m 2,0 C -5,0 C 38,6 km/h (5 Bft) 98,00 %
10.12.2018 04:56 4,6 C 4,4 C 2,8 C 83 % 1012,8 hPa 0,0 l/m 25,3 km/h (4 Bft) W-NW 298 0 min 0,000 mm 0,0 UV-I 0 W/m 2,0 C -5,6 C 33,8 km/h (5 Bft) 100,00 %
10.12.2018 04:58 4,6 C 4,4 C 2,8 C 83 % 1013,0 hPa 0,0 l/m 17,7 km/h (3 Bft) W 275 0 min 0,000 mm 0,0 UV-I 0 W/m 2,0 C -2,7 C 22,5 km/h (4 Bft) 100,00 %
10.12.2018 05:00 4,6 C 4,4 C 2,8 C 83 % 1013,1 hPa 0,0 l/m 23,1 km/h (4 Bft) W 260 0 min 0,025 mm 0,0 UV-I 0 W/m 2,0 C -4,8 C 41,8 km/h (6 Bft) 97,73 %
10.12.2018 05:02 4,5 C 4,4 C 2,8 C 83 % 1013,1 hPa 0,0 l/m 18,9 km/h (3 Bft) W-SW 255 0 min 0,000 mm 0,0 UV-I 0 W/m 1,9 C -3,4 C 43,5 km/h (6 Bft) 100,00 %
10.12.2018 05:04 4,5 C 4,4 C 2,8 C 83 % 1013,2 hPa 0,0 l/m 22,4 km/h (4 Bft) W 272 0 min 0,000 mm 0,0 UV-I 0 W/m 1,9 C -4,7 C 33,8 km/h (5 Bft) 100,00 %
10.12.2018 05:06 4,4 C 4,4 C 2,8 C 83 % 1013,3 hPa 0,0 l/m 19,0 km/h (3 Bft) W-NW 303 0 min 0,000 mm 0,0 UV-I 0 W/m 1,8 C -3,5 C 29,0 km/h (5 Bft) 91,43 %
10.12.2018 05:08 4,3 C 4,4 C 2,8 C 84 % 1013,4 hPa 0,0 l/m 22,6 km/h (4 Bft) W 277 0 min 0,000 mm 0,0 UV-I 0 W/m 1,8 C -5,1 C 33,8 km/h (5 Bft) 96,23 %
10.12.2018 05:10 4,3 C 4,4 C 2,2 C 84 % 1013,4 hPa 0,0 l/m 19,3 km/h (3 Bft) W 259 0 min 0,000 mm 0,0 UV-I 0 W/m 1,8 C -3,8 C 33,8 km/h (5 Bft) 95,74 %
10.12.2018 05:12 4,3 C 4,4 C 2,8 C 84 % 1013,5 hPa 0,0 l/m 24,3 km/h (4 Bft) W 265 0 min 0,000 mm 0,0 UV-I 0 W/m 1,8 C -5,7 C 40,2 km/h (6 Bft) 92,45 %
10.12.2018 05:14 4,3 C 4,4 C 2,8 C 85 % 1013,5 hPa 0,0 l/m 25,2 km/h (4 Bft) W 277 0 min 0,000 mm 0,0 UV-I 0 W/m 2,0 C -6,0 C 46,7 km/h (6 Bft) 95,45 %
10.12.2018 05:16 4,2 C 4,4 C 2,8 C 85 % 1013,5 hPa 0,0 l/m 24,9 km/h (4 Bft) W 281 0 min 0,000 mm 0,0 UV-I 0 W/m 1,9 C -6,0 C 35,4 km/h (5 Bft) 96,55 %
10.12.2018 05:18 4,2 C 4,4 C 2,8 C 85 % 1013,5 hPa 0,0 l/m 22,6 km/h (4 Bft) W 260 0 min 0,000 mm 0,0 UV-I 0 W/m 1,9 C -5,2 C 33,8 km/h (5 Bft) 95,59 %
10.12.2018 05:20 4,2 C 4,4 C 2,8 C 85 % 1013,4 hPa 0,0 l/m 24,2 km/h (4 Bft) W-NW 284 0 min 0,000 mm 0,0 UV-I 0 W/m 1,9 C -5,8 C 40,2 km/h (6 Bft) 97,37 %
10.12.2018 05:22 4,2 C 4,4 C 2,8 C 84 % 1013,5 hPa 0,0 l/m 19,9 km/h (4 Bft) W-NW 290 0 min 0,000 mm 0,0 UV-I 0 W/m 1,7 C -4,2 C 27,4 km/h (4 Bft) 94,34 %
10.12.2018 05:24 4,2 C 4,4 C 2,2 C 84 % 1013,5 hPa 0,0 l/m 19,7 km/h (3 Bft) W 267 0 min 0,000 mm 0,0 UV-I 0 W/m 1,7 C -4,1 C 30,6 km/h (5 Bft) 97,56 %
10.12.2018 05:26 4,2 C 4,4 C 2,2 C 84 % 1013,6 hPa 0,0 l/m 23,0 km/h (4 Bft) NW 313 0 min 0,000 mm 0,0 UV-I 0 W/m 1,7 C -5,3 C 35,4 km/h (5 Bft) 91,49 %
10.12.2018 05:28 4,2 C 4,4 C 2,8 C 84 % 1013,7 hPa 0,0 l/m 17,1 km/h (3 Bft) W-NW 300 0 min 0,000 mm 0,0 UV-I 0 W/m 1,7 C -2,9 C 27,4 km/h (4 Bft) 97,62 %
10.12.2018 05:30 4,1 C 4,4 C 2,8 C 84 % 1013,7 hPa 0,0 l/m 19,2 km/h (3 Bft) W 278 0 min 0,000 mm 0,0 UV-I 0 W/m 1,6 C -4,0 C 27,4 km/h (4 Bft) 98,08 %
10.12.2018 05:32 4,1 C 4,4 C 2,8 C 84 % 1013,7 hPa 0,0 l/m 23,1 km/h (4 Bft) W 276 0 min 0,000 mm 0,0 UV-I 0 W/m 1,6 C -5,5 C 38,6 km/h (5 Bft) 98,11 %
10.12.2018 05:34 4,2 C 4,4 C 2,8 C 84 % 1013,7 hPa 0,0 l/m 21,2 km/h (4 Bft) NW 325 0 min 0,000 mm 0,0 UV-I 0 W/m 1,7 C -4,7 C 32,2 km/h (5 Bft) 97,44 %
10.12.2018 05:36 4,2 C 4,4 C 2,8 C 84 % 1013,8 hPa 0,0 l/m 23,5 km/h (4 Bft) W 267 0 min 0,000 mm 0,0 UV-I 0 W/m 1,7 C -5,5 C 33,8 km/h (5 Bft) 96,23 %
10.12.2018 05:38 4,2 C 4,4 C 2,8 C 84 % 1013,7 hPa 0,0 l/m 19,5 km/h (3 Bft) W 263 0 min 0,000 mm 0,0 UV-I 0 W/m 1,7 C -4,0 C 32,2 km/h (5 Bft) 97,87 %
10.12.2018 05:40 4,2 C 4,4 C 2,8 C 84 % 1013,8 hPa 0,0 l/m 19,2 km/h (3 Bft) W-SW 238 0 min 0,000 mm 0,0 UV-I 0 W/m 1,7 C -3,9 C 32,2 km/h (5 Bft) 97,87 %
10.12.2018 05:42 4,2 C 4,4 C 2,8 C 84 % 1014,0 hPa 0,0 l/m 19,4 km/h (3 Bft) W 273 0 min 0,000 mm 0,0 UV-I 0 W/m 1,7 C -4,0 C 29,0 km/h (5 Bft) 97,37 %
10.12.2018 05:44 4,2 C 4,4 C 2,8 C 84 % 1013,9 hPa 0,0 l/m 21,9 km/h (4 Bft) W 262 0 min 0,000 mm 0,0 UV-I 0 W/m 1,7 C -4,9 C 35,4 km/h (5 Bft) 98,00 %
10.12.2018 05:46 4,2 C 4,4 C 2,8 C 83 % 1014,0 hPa 0,0 l/m 20,0 km/h (4 Bft) W 272 0 min 0,000 mm 0,0 UV-I 0 W/m 1,6 C -4,2 C 27,4 km/h (4 Bft) 96,43 %
10.12.2018 05:48 4,3 C 4,4 C 2,8 C 83 % 1013,9 hPa 0,0 l/m 28,6 km/h (4 Bft) W 266 0 min 0,000 mm 0,0 UV-I 0 W/m 1,7 C -7,0 C 40,2 km/h (6 Bft) 97,37 %
10.12.2018 05:50 4,3 C 4,4 C 2,8 C 83 % 1014,1 hPa 0,0 l/m 17,4 km/h (3 Bft) W 271 0 min 0,000 mm 0,0 UV-I 0 W/m 1,7 C -3,0 C 27,4 km/h (4 Bft) 96,00 %
10.12.2018 05:52 4,3 C 4,4 C 2,8 C 83 % 1014,1 hPa 0,0 l/m 21,0 km/h (4 Bft) W 273 0 min 0,000 mm 0,0 UV-I 0 W/m 1,7 C -4,5 C 29,0 km/h (5 Bft) 93,62 %
10.12.2018 05:54 4,3 C 4,4 C 2,8 C 82 % 1014,1 hPa 0,0 l/m 16,3 km/h (3 Bft) W 275 0 min 0,000 mm 0,0 UV-I 0 W/m 1,5 C -2,4 C 27,4 km/h (4 Bft) 100,00 %
10.12.2018 05:56 4,3 C 4,4 C 2,2 C 82 % 1014,1 hPa 0,0 l/m 18,2 km/h (3 Bft) W 268 0 min 0,000 mm 0,0 UV-I 0 W/m 1,5 C -3,3 C 24,1 km/h (4 Bft) 97,18 %
10.12.2018 05:58 4,2 C 4,4 C 2,2 C 82 % 1014,1 hPa 0,0 l/m 19,6 km/h (3 Bft) W 263 0 min 0,000 mm 0,0 UV-I 0 W/m 1,4 C -4,0 C 32,2 km/h (5 Bft) 97,73 %
10.12.2018 06:00 4,3 C 4,4 C 2,2 C 82 % 1014,2 hPa 0,0 l/m 20,3 km/h (4 Bft) W 273 0 min 0,025 mm 0,0 UV-I 0 W/m 1,5 C -4,2 C 32,2 km/h (5 Bft) 97,56 %
10.12.2018 06:02 4,3 C 4,4 C 2,2 C 82 % 1014,1 hPa 0,0 l/m 19,2 km/h (3 Bft) W-SW 248 0 min 0,000 mm 0,0 UV-I 0 W/m 1,5 C -3,7 C 27,4 km/h (4 Bft) 96,23 %
10.12.2018 06:04 4,3 C 4,4 C 2,2 C 82 % 1014,2 hPa 0,0 l/m 14,6 km/h (3 Bft) W 259 0 min 0,000 mm 0,0 UV-I 0 W/m 1,5 C -1,6 C 25,7 km/h (4 Bft) 97,87 %
10.12.2018 06:06 4,2 C 4,4 C 2,2 C 82 % 1014,2 hPa 0,0 l/m 12,7 km/h (3 Bft) W 273 0 min 0,000 mm 0,0 UV-I 0 W/m 1,4 C -0,6 C 20,9 km/h (4 Bft) 94,00 %
10.12.2018 06:08 4,2 C 4,4 C 2,2 C 82 % 1014,2 hPa 0,0 l/m 15,9 km/h (3 Bft) W-NW 303 0 min 0,000 mm 0,0 UV-I 0 W/m 1,4 C -2,4 C 25,7 km/h (4 Bft) 97,44 %
10.12.2018 06:10 4,1 C 4,4 C 2,2 C 82 % 1014,2 hPa 0,0 l/m 14,9 km/h (3 Bft) W 265 0 min 0,000 mm 0,0 UV-I 0 W/m 1,3 C -2,0 C 24,1 km/h (4 Bft) 98,08 %
10.12.2018 06:12 4,1 C 4,4 C 2,2 C 82 % 1014,3 hPa 0,0 l/m 13,3 km/h (3 Bft) W 271 0 min 0,000 mm 0,0 UV-I 0 W/m 1,3 C -1,1 C 22,5 km/h (4 Bft) 97,44 %
10.12.2018 06:14 4,1 C 4,4 C 2,2 C 82 % 1014,3 hPa 0,0 l/m 15,3 km/h (3 Bft) W-NW 292 0 min 0,000 mm 0,0 UV-I 0 W/m 1,3 C -2,2 C 30,6 km/h (5 Bft) 98,00 %
10.12.2018 06:16 4,1 C 4,4 C 2,2 C 82 % 1014,3 hPa 0,0 l/m 16,9 km/h (3 Bft) W 280 0 min 0,000 mm 0,0 UV-I 0 W/m 1,3 C -3,0 C 22,5 km/h (4 Bft) 96,00 %
10.12.2018 06:18 4,1 C 4,4 C 2,2 C 82 % 1014,4 hPa 0,0 l/m 10,2 km/h (2 Bft) W-SW 244 0 min 0,000 mm 0,0 UV-I 0 W/m 1,3 C 0,9 C 16,1 km/h (3 Bft) 98,00 %
10.12.2018 06:20 4,1 C 4,4 C 2,2 C 82 % 1014,4 hPa 0,0 l/m 12,5 km/h (3 Bft) W 281 0 min 0,000 mm 0,0 UV-I 0 W/m 1,3 C -0,6 C 17,7 km/h (3 Bft) 95,74 %
10.12.2018 06:22 4,1 C 4,4 C 2,2 C 82 % 1014,4 hPa 0,0 l/m 13,7 km/h (3 Bft) W-NW 285 0 min 0,000 mm 0,0 UV-I 0 W/m 1,3 C -1,3 C 20,9 km/h (4 Bft) 97,87 %
10.12.2018 06:24 4,1 C 4,4 C 2,2 C 82 % 1014,4 hPa 0,0 l/m 11,7 km/h (2 Bft) W 266 0 min 0,000 mm 0,0 UV-I 0 W/m 1,3 C -0,1 C 19,3 km/h (3 Bft) 93,62 %
10.12.2018 06:26 4,1 C 4,4 C 2,2 C 82 % 1014,3 hPa 0,0 l/m 11,7 km/h (2 Bft) W 276 0 min 0,000 mm 0,0 UV-I 0 W/m 1,3 C -0,1 C 16,1 km/h (3 Bft) 93,62 %
10.12.2018 06:28 4,0 C 4,4 C 2,2 C 82 % 1014,3 hPa 0,0 l/m 12,4 km/h (3 Bft) W 263 0 min 0,000 mm 0,0 UV-I 0 W/m 1,2 C -0,6 C 19,3 km/h (3 Bft) 97,56 %
10.12.2018 06:30 4,0 C 4,4 C 2,2 C 82 % 1014,4 hPa 0,0 l/m 13,2 km/h (3 Bft) W-SW 252 0 min 0,000 mm 0,0 UV-I 0 W/m 1,2 C -1,1 C 17,7 km/h (3 Bft) 95,92 %
10.12.2018 06:32 3,9 C 4,4 C 2,2 C 82 % 1014,3 hPa 0,0 l/m 11,9 km/h (2 Bft) W-SW 255 0 min 0,000 mm 0,0 UV-I 0 W/m 1,1 C -0,4 C 17,7 km/h (3 Bft) 94,00 %
10.12.2018 06:34 3,9 C 4,4 C 2,2 C 82 % 1014,3 hPa 0,0 l/m 14,7 km/h (3 Bft) W 273 0 min 0,000 mm 0,0 UV-I 0 W/m 1,1 C -2,1 C 22,5 km/h (4 Bft) 93,62 %
10.12.2018 06:36 4,0 C 4,4 C 2,8 C 83 % 1014,2 hPa 0,0 l/m 15,2 km/h (3 Bft) W-SW 258 0 min 0,000 mm 0,0 UV-I 0 W/m 1,4 C -2,2 C 19,3 km/h (3 Bft) 95,74 %
10.12.2018 06:38 4,0 C 4,4 C 2,8 C 83 % 1014,2 hPa 0,0 l/m 13,8 km/h (3 Bft) W 280 0 min 0,000 mm 0,0 UV-I 0 W/m 1,4 C -1,5 C 19,3 km/h (3 Bft) 93,62 %
10.12.2018 06:40 4,1 C 4,4 C 2,8 C 83 % 1014,2 hPa 0,0 l/m 12,7 km/h (3 Bft) W 273 0 min 0,000 mm 0,0 UV-I 0 W/m 1,5 C -0,7 C 19,3 km/h (3 Bft) 94,74 %
10.12.2018 06:42 4,1 C 4,4 C 2,8 C 83 % 1014,2 hPa 0,0 l/m 10,0 km/h (2 Bft) W-SW 247 0 min 0,000 mm 0,0 UV-I 0 W/m 1,5 C 1,1 C 22,5 km/h (4 Bft) 93,62 %
10.12.2018 06:44 4,1 C 4,4 C 2,8 C 83 % 1014,2 hPa 0,0 l/m 13,9 km/h (3 Bft) W 267 0 min 0,000 mm 0,0 UV-I 0 W/m 1,5 C -1,4 C 19,3 km/h (3 Bft) 95,83 %
10.12.2018 06:46 4,1 C 4,4 C 2,8 C 83 % 1014,2 hPa 0,0 l/m 12,9 km/h (3 Bft) W-NW 282 0 min 0,000 mm 0,0 UV-I 0 W/m 1,5 C -0,8 C 20,9 km/h (4 Bft) 97,87 %
10.12.2018 06:48 4,0 C 4,4 C 2,8 C 83 % 1014,1 hPa 0,0 l/m 9,5 km/h (2 Bft) W 279 0 min 0,000 mm 0,0 UV-I 0 W/m 1,4 C 1,3 C 14,5 km/h (3 Bft) 100,00 %
10.12.2018 06:50 4,0 C 4,4 C 2,8 C 83 % 1014,2 hPa 0,0 l/m 12,5 km/h (3 Bft) W 281 0 min 0,000 mm 0,0 UV-I 0 W/m 1,4 C -0,7 C 17,7 km/h (3 Bft) 100,00 %
10.12.2018 06:52 4,0 C 4,4 C 2,8 C 83 % 1014,1 hPa 0,0 l/m 10,3 km/h (2 Bft) W-NW 291 0 min 0,000 mm 0,0 UV-I 0 W/m 1,4 C 0,8 C 14,5 km/h (3 Bft) 100,00 %
10.12.2018 06:54 4,1 C 4,4 C 2,8 C 84 % 1014,1 hPa 0,0 l/m 13,6 km/h (3 Bft) W 266 0 min 0,000 mm 0,0 UV-I 0 W/m 1,6 C -1,2 C 25,7 km/h (4 Bft) 100,00 %
10.12.2018 06:56 4,1 C 4,4 C 3,3 C 83 % 1014,1 hPa 0,0 l/m 10,0 km/h (2 Bft) W-NW 288 0 min 0,000 mm 0,0 UV-I 0 W/m 1,5 C 1,1 C 19,3 km/h (3 Bft) 100,00 %
10.12.2018 06:58 4,1 C 4,4 C 2,8 C 83 % 1014,1 hPa 0,0 l/m 8,4 km/h (2 Bft) W 259 0 min 0,000 mm 0,0 UV-I 0 W/m 1,5 C 2,3 C 11,3 km/h (2 Bft) 100,00 %
10.12.2018 07:00 4,1 C 4,4 C 3,3 C 83 % 1014,1 hPa 0,0 l/m 13,5 km/h (3 Bft) NW 306 0 min 0,000 mm 0,0 UV-I 0 W/m 1,5 C -1,2 C 24,1 km/h (4 Bft) 100,00 %
10.12.2018 07:02 4,1 C 4,4 C 2,8 C 83 % 1013,9 hPa 0,0 l/m 13,9 km/h (3 Bft) W-NW 282 0 min 0,026 mm 0,0 UV-I 0 W/m 1,5 C -1,4 C 24,1 km/h (4 Bft) 100,00 %
10.12.2018 07:04 4,1 C 4,4 C 3,3 C 83 % 1013,9 hPa 0,0 l/m 13,3 km/h (3 Bft) W 267 0 min 0,000 mm 0,0 UV-I 0 W/m 1,5 C -1,1 C 20,9 km/h (4 Bft) 97,37 %
10.12.2018 07:06 4,2 C 4,4 C 3,3 C 83 % 1013,9 hPa 0,0 l/m 14,7 km/h (3 Bft) NW 307 0 min 0,000 mm 0,0 UV-I 0 W/m 1,6 C -1,7 C 29,0 km/h (5 Bft) 96,00 %
10.12.2018 07:08 4,2 C 4,4 C 3,3 C 83 % 1014,0 hPa 0,0 l/m 15,6 km/h (3 Bft) W-NW 291 0 min 0,000 mm 0,0 UV-I 0 W/m 1,6 C -2,2 C 25,7 km/h (4 Bft) 97,87 %
10.12.2018 07:10 4,2 C 4,4 C 3,3 C 83 % 1013,9 hPa 0,0 l/m 18,3 km/h (3 Bft) W 263 0 min 0,000 mm 0,0 UV-I 0 W/m 1,6 C -3,5 C 30,6 km/h (5 Bft) 97,87 %
10.12.2018 07:12 4,2 C 4,4 C 3,3 C 83 % 1014,0 hPa 0,0 l/m 14,2 km/h (3 Bft) W-NW 287 0 min 0,000 mm 0,0 UV-I 0 W/m 1,6 C -1,5 C 37,0 km/h (5 Bft) 93,62 %
10.12.2018 07:15 4,2 C 4,4 C 3,3 C 83 % 1014,0 hPa 0,0 l/m 11,5 km/h (2 Bft) NW 306 0 min 0,000 mm 0,0 UV-I 0 W/m 1,6 C 0,2 C 22,5 km/h (4 Bft) 100,00 %
10.12.2018 07:16 4,2 C 4,4 C 3,3 C 83 % 1014,0 hPa 0,0 l/m 13,2 km/h (3 Bft) NW 316 0 min 0,000 mm 0,0 UV-I 0 W/m 1,6 C -0,9 C 16,1 km/h (3 Bft) 91,30 %
10.12.2018 07:18 4,2 C 4,4 C 3,3 C 83 % 1014,2 hPa 0,0 l/m 12,0 km/h (2 Bft) W-NW 300 0 min 0,000 mm 0,0 UV-I 0 W/m 1,6 C -0,2 C 17,7 km/h (3 Bft) 100,00 %
10.12.2018 07:20 4,2 C 4,4 C 3,3 C 83 % 1014,1 hPa 0,0 l/m 13,4 km/h (3 Bft) W-NW 287 0 min 0,000 mm 0,0 UV-I 0 W/m 1,6 C -1,0 C 24,1 km/h (4 Bft) 100,00 %
10.12.2018 07:22 4,2 C 4,4 C 3,3 C 83 % 1014,0 hPa 0,0 l/m 11,2 km/h (2 Bft) W 280 0 min 0,000 mm 0,0 UV-I 0 W/m 1,6 C 0,4 C 17,7 km/h (3 Bft) 100,00 %
10.12.2018 07:24 4,2 C 4,4 C 3,3 C 83 % 1014,1 hPa 0,0 l/m 8,3 km/h (2 Bft) W 274 0 min 0,000 mm 0,0 UV-I 0 W/m 1,6 C 2,5 C 14,5 km/h (3 Bft) 100,00 %
10.12.2018 07:26 4,2 C 4,4 C 3,3 C 83 % 1014,2 hPa 0,0 l/m 15,9 km/h (3 Bft) W 261 0 min 0,000 mm 0,0 UV-I 0 W/m 1,6 C -2,4 C 22,5 km/h (4 Bft) 100,00 %
10.12.2018 07:28 4,2 C 4,4 C 3,3 C 83 % 1014,2 hPa 0,0 l/m 12,7 km/h (3 Bft) W-NW 288 0 min 0,000 mm 0,0 UV-I 0 W/m 1,6 C -0,6 C 20,9 km/h (4 Bft) 100,00 %
10.12.2018 07:30 4,2 C 4,4 C 3,3 C 83 % 1014,1 hPa 0,0 l/m 14,7 km/h (3 Bft) W 262 0 min 0,000 mm 0,0 UV-I 0 W/m 1,6 C -1,7 C 19,3 km/h (3 Bft) 100,00 %
10.12.2018 07:32 4,2 C 4,4 C 3,3 C 83 % 1014,2 hPa 0,0 l/m 14,1 km/h (3 Bft) W 277 0 min 0,000 mm 0,0 UV-I 0 W/m 1,6 C -1,4 C 25,7 km/h (4 Bft) 100,00 %
10.12.2018 07:34 4,2 C 4,4 C 3,3 C 83 % 1014,2 hPa 0,0 l/m 16,7 km/h (3 Bft) W-NW 289 0 min 0,000 mm 0,0 UV-I 0 W/m 1,6 C -2,7 C 30,6 km/h (5 Bft) 100,00 %
10.12.2018 07:36 4,2 C 4,4 C 3,3 C 83 % 1014,2 hPa 0,0 l/m 23,7 km/h (4 Bft) W-SW 242 0 min 0,000 mm 0,0 UV-I 1 W/m 1,6 C -5,6 C 33,8 km/h (5 Bft) 97,87 %
10.12.2018 07:38 4,2 C 4,4 C 3,3 C 83 % 1014,2 hPa 0,0 l/m 14,8 km/h (3 Bft) W-NW 284 0 min 0,000 mm 0,0 UV-I 5 W/m 1,6 C -1,8 C 27,4 km/h (4 Bft) 100,00 %
10.12.2018 07:40 4,2 C 4,4 C 3,3 C 83 % 1014,3 hPa 0,0 l/m 14,6 km/h (3 Bft) W 260 0 min 0,000 mm 0,0 UV-I 5 W/m 1,6 C -1,7 C 20,9 km/h (4 Bft) 100,00 %
10.12.2018 07:42 4,2 C 4,4 C 3,3 C 83 % 1014,3 hPa 0,0 l/m 21,2 km/h (4 Bft) W 260 0 min 0,000 mm 0,0 UV-I 5 W/m 1,6 C -4,7 C 33,8 km/h (5 Bft) 97,87 %
10.12.2018 07:44 4,2 C 4,4 C 3,3 C 83 % 1014,2 hPa 0,0 l/m 16,7 km/h (3 Bft) W 264 0 min 0,000 mm 0,0 UV-I 5 W/m 1,6 C -2,7 C 33,8 km/h (5 Bft) 97,87 %
10.12.2018 07:46 4,2 C 4,4 C 3,3 C 83 % 1014,2 hPa 0,0 l/m 20,1 km/h (4 Bft) SW 229 0 min 0,000 mm 0,0 UV-I 5 W/m 1,6 C -4,2 C 25,7 km/h (4 Bft) 97,14 %
10.12.2018 07:48 4,2 C 4,4 C 3,3 C 83 % 1014,4 hPa 0,0 l/m 17,1 km/h (3 Bft) W 274 0 min 0,000 mm 0,0 UV-I 5 W/m 1,6 C -2,9 C 22,5 km/h (4 Bft) 96,23 %
10.12.2018 07:50 4,2 C 4,4 C 3,3 C 83 % 1014,4 hPa 0,0 l/m 16,9 km/h (3 Bft) W 266 0 min 0,000 mm 0,0 UV-I 5 W/m 1,6 C -2,8 C 24,1 km/h (4 Bft) 95,74 %
10.12.2018 07:52 4,2 C 4,4 C 3,3 C 82 % 1014,4 hPa 0,0 l/m 15,2 km/h (3 Bft) W-SW 257 0 min 0,000 mm 0,0 UV-I 5 W/m 1,4 C -2,0 C 22,5 km/h (4 Bft) 97,87 %
10.12.2018 07:54 4,2 C 4,4 C 3,3 C 82 % 1014,4 hPa 0,0 l/m 14,2 km/h (3 Bft) W 265 0 min 0,000 mm 0,0 UV-I 6 W/m 1,4 C -1,5 C 19,3 km/h (3 Bft) 97,87 %
10.12.2018 07:56 4,2 C 4,4 C 3,3 C 82 % 1014,5 hPa 0,0 l/m 14,2 km/h (3 Bft) W-SW 253 0 min 0,000 mm 0,0 UV-I 7 W/m 1,4 C -1,5 C 22,5 km/h (4 Bft) 95,74 %
10.12.2018 07:58 4,2 C 4,4 C 3,3 C 82 % 1014,5 hPa 0,0 l/m 16,3 km/h (3 Bft) W-SW 254 0 min 0,000 mm 0,0 UV-I 7 W/m 1,4 C -2,6 C 24,1 km/h (4 Bft) 95,74 %
10.12.2018 08:00 4,2 C 4,4 C 3,3 C 82 % 1014,5 hPa 0,0 l/m 16,2 km/h (3 Bft) W-NW 298 0 min 0,025 mm 0,0 UV-I 7 W/m 1,4 C -2,5 C 20,9 km/h (4 Bft) 97,87 %
10.12.2018 08:02 4,2 C 4,4 C 3,3 C 82 % 1014,5 hPa 0,0 l/m 15,7 km/h (3 Bft) W 272 0 min 0,000 mm 0,0 UV-I 9 W/m 1,4 C -2,3 C 29,0 km/h (5 Bft) 97,87 %
10.12.2018 08:04 4,2 C 4,4 C 3,3 C 81 % 1014,7 hPa 0,0 l/m 18,9 km/h (3 Bft) W 264 0 min 0,000 mm 0,0 UV-I 9 W/m 1,2 C -3,7 C 33,8 km/h (5 Bft) 98,00 %
10.12.2018 08:06 4,2 C 4,4 C 3,3 C 81 % 1014,8 hPa 0,0 l/m 14,7 km/h (3 Bft) W-SW 254 0 min 0,000 mm 0,0 UV-I 9 W/m 1,2 C -1,7 C 27,4 km/h (4 Bft) 97,92 %
10.12.2018 08:08 4,2 C 4,4 C 3,3 C 81 % 1014,8 hPa 0,0 l/m 17,4 km/h (3 Bft) W 272 0 min 0,000 mm 0,0 UV-I 9 W/m 1,2 C -3,1 C 24,1 km/h (4 Bft) 100,00 %
10.12.2018 08:10 4,2 C 4,4 C 3,3 C 81 % 1014,8 hPa 0,0 l/m 14,0 km/h (3 Bft) W-SW 237 0 min 0,000 mm 0,0 UV-I 10 W/m 1,2 C -1,4 C 22,5 km/h (4 Bft) 100,00 %
10.12.2018 08:12 4,2 C 4,4 C 3,3 C 81 % 1014,9 hPa 0,0 l/m 14,2 km/h (3 Bft) W 279 0 min 0,000 mm 0,0 UV-I 11 W/m 1,2 C -1,5 C 27,4 km/h (4 Bft) 100,00 %
10.12.2018 08:14 4,2 C 4,4 C 3,3 C 81 % 1014,8 hPa 0,0 l/m 13,6 km/h (3 Bft) W 274 0 min 0,000 mm 0,0 UV-I 11 W/m 1,2 C -1,1 C 25,7 km/h (4 Bft) 100,00 %
10.12.2018 08:16 4,2 C 4,4 C 3,3 C 81 % 1014,9 hPa 0,0 l/m 19,2 km/h (3 Bft) W-NW 286 0 min 0,000 mm 0,0 UV-I 11 W/m 1,2 C -3,9 C 25,7 km/h (4 Bft) 97,14 %
10.12.2018 08:18 4,2 C 4,4 C 3,3 C 81 % 1014,9 hPa 0,0 l/m 17,2 km/h (3 Bft) W 265 0 min 0,000 mm 0,0 UV-I 12 W/m 1,2 C -3,0 C 22,5 km/h (4 Bft) 100,00 %
10.12.2018 08:20 4,2 C 4,4 C 3,3 C 81 % 1014,9 hPa 0,0 l/m 13,9 km/h (3 Bft) W-NW 289 0 min 0,000 mm 0,0 UV-I 12 W/m 1,2 C -1,3 C 22,5 km/h (4 Bft) 95,74 %
10.12.2018 08:22 4,2 C 4,4 C 3,3 C 81 % 1014,9 hPa 0,0 l/m 16,4 km/h (3 Bft) W-SW 254 0 min 0,000 mm 0,0 UV-I 11 W/m 1,2 C -2,6 C 27,4 km/h (4 Bft) 93,62 %
10.12.2018 08:24 4,2 C 4,4 C 3,3 C 81 % 1014,9 hPa 0,0 l/m 14,8 km/h (3 Bft) W-NW 294 0 min 0,000 mm 0,0 UV-I 11 W/m 1,2 C -1,8 C 24,1 km/h (4 Bft) 98,00 %
10.12.2018 08:26 4,2 C 4,4 C 3,3 C 82 % 1014,9 hPa 0,0 l/m 13,7 km/h (3 Bft) W-NW 285 0 min 0,000 mm 0,0 UV-I 14 W/m 1,4 C -1,2 C 22,5 km/h (4 Bft) 95,74 %
10.12.2018 08:28 4,2 C 4,4 C 3,3 C 82 % 1014,9 hPa 0,0 l/m 14,8 km/h (3 Bft) W-SW 255 0 min 0,000 mm 0,0 UV-I 21 W/m 1,4 C -1,8 C 22,5 km/h (4 Bft) 98,00 %
10.12.2018 08:30 4,1 C 4,4 C 3,3 C 82 % 1014,9 hPa 0,0 l/m 13,6 km/h (3 Bft) W 271 0 min 0,000 mm 0,0 UV-I 24 W/m 1,3 C -1,2 C 19,3 km/h (3 Bft) 95,74 %
10.12.2018 08:32 4,1 C 4,4 C 3,3 C 83 % 1014,9 hPa 0,0 l/m 13,1 km/h (3 Bft) W 278 0 min 0,000 mm 0,0 UV-I 28 W/m 1,5 C -1,0 C 17,7 km/h (3 Bft) 94,00 %
10.12.2018 08:34 4,1 C 4,4 C 3,3 C 83 % 1014,9 hPa 0,0 l/m 13,5 km/h (3 Bft) W 279 0 min 0,000 mm 0,0 UV-I 34 W/m 1,5 C -1,2 C 24,1 km/h (4 Bft) 100,00 %
10.12.2018 08:36 4,1 C 4,4 C 3,3 C 83 % 1014,9 hPa 0,0 l/m 18,5 km/h (3 Bft) W 269 0 min 0,000 mm 0,0 UV-I 34 W/m 1,5 C -3,7 C 25,7 km/h (4 Bft) 95,74 %
10.12.2018 08:38 4,1 C 4,4 C 3,3 C 83 % 1014,9 hPa 0,0 l/m 18,6 km/h (3 Bft) W-SW 243 0 min 0,000 mm 0,0 UV-I 27 W/m 1,5 C -3,7 C 30,6 km/h (5 Bft) 98,11 %
10.12.2018 08:40 4,1 C 4,4 C 3,3 C 83 % 1014,9 hPa 0,0 l/m 18,9 km/h (3 Bft) W 269 0 min 0,000 mm 0,0 UV-I 19 W/m 1,5 C -3,9 C 30,6 km/h (5 Bft) 97,87 %
10.12.2018 08:42 4,1 C 4,4 C 3,3 C 83 % 1015,1 hPa 0,0 l/m 15,6 km/h (3 Bft) W 265 0 min 0,000 mm 0,0 UV-I 16 W/m 1,5 C -2,3 C 24,1 km/h (4 Bft) 97,87 %
10.12.2018 08:44 4,2 C 4,4 C 3,3 C 83 % 1015,1 hPa 0,0 l/m 19,4 km/h (3 Bft) W 263 0 min 0,000 mm 0,0 UV-I 18 W/m 1,6 C -4,0 C 25,7 km/h (4 Bft) 95,74 %
10.12.2018 08:46 4,2 C 4,4 C 3,3 C 83 % 1015,2 hPa 0,0 l/m 20,1 km/h (4 Bft) W 269 0 min 0,000 mm 0,0 UV-I 17 W/m 1,6 C -4,2 C 27,4 km/h (4 Bft) 94,87 %
10.12.2018 08:48 4,2 C 4,4 C 3,9 C 83 % 1015,1 hPa 0,0 l/m 21,4 km/h (4 Bft) W-SW 257 0 min 0,000 mm 0,0 UV-I 33 W/m 1,6 C -4,8 C 38,6 km/h (5 Bft) 97,87 %
10.12.2018 08:50 4,2 C 4,4 C 3,9 C 84 % 1015,2 hPa 0,0 l/m 23,0 km/h (4 Bft) W-NW 283 0 min 0,000 mm 0,0 UV-I 35 W/m 1,7 C -5,3 C 33,8 km/h (5 Bft) 98,00 %
10.12.2018 08:52 4,1 C 4,4 C 3,9 C 84 % 1015,3 hPa 0,0 l/m 14,9 km/h (3 Bft) W 265 0 min 0,000 mm 0,0 UV-I 31 W/m 1,6 C -2,0 C 20,9 km/h (4 Bft) 92,00 %
10.12.2018 08:54 4,1 C 4,4 C 3,9 C 84 % 1015,3 hPa 0,0 l/m 16,0 km/h (3 Bft) W 279 0 min 0,000 mm 0,0 UV-I 33 W/m 1,6 C -2,5 C 24,1 km/h (4 Bft) 100,00 %
10.12.2018 08:56 4,1 C 4,4 C 3,9 C 84 % 1015,3 hPa 0,0 l/m 14,1 km/h (3 Bft) W-NW 283 0 min 0,000 mm 0,0 UV-I 35 W/m 1,6 C -1,5 C 20,9 km/h (4 Bft) 100,00 %
10.12.2018 08:58 4,1 C 4,4 C 3,9 C 85 % 1015,5 hPa 0,0 l/m 12,1 km/h (2 Bft) W-SW 254 0 min 0,000 mm 0,0 UV-I 28 W/m 1,8 C -0,3 C 16,1 km/h (3 Bft) 100,00 %
10.12.2018 09:00 4,1 C 4,4 C 3,9 C 85 % 1015,6 hPa 0,0 l/m 15,4 km/h (3 Bft) W-NW 282 0 min 0,026 mm 0,0 UV-I 24 W/m 1,8 C -2,2 C 22,5 km/h (4 Bft) 95,74 %
10.12.2018 09:02 4,1 C 4,4 C 3,9 C 85 % 1015,6 hPa 0,0 l/m 14,4 km/h (3 Bft) W 271 0 min 0,000 mm 0,0 UV-I 19 W/m 1,8 C -1,7 C 22,5 km/h (4 Bft) 94,29 %
10.12.2018 09:04 4,1 C 4,4 C 3,9 C 85 % 1015,7 hPa 0,0 l/m 13,1 km/h (3 Bft) W-SW 252 0 min 0,000 mm 0,0 UV-I 22 W/m 1,8 C -1,0 C 20,9 km/h (4 Bft) 94,00 %
10.12.2018 09:06 4,1 C 4,4 C 3,9 C 85 % 1015,6 hPa 0,0 l/m 16,2 km/h (3 Bft) W-SW 253 0 min 0,000 mm 0,0 UV-I 32 W/m 1,8 C -2,6 C 24,1 km/h (4 Bft) 95,74 %
10.12.2018 09:08 4,1 C 4,4 C 3,9 C 85 % 1015,7 hPa 0,0 l/m 16,3 km/h (3 Bft) W 281 0 min 0,000 mm 0,0 UV-I 39 W/m 1,8 C -2,7 C 25,7 km/h (4 Bft) 96,00 %
10.12.2018 09:10 4,2 C 4,4 C 3,9 C 85 % 1015,7 hPa 0,0 l/m 21,2 km/h (4 Bft) W-SW 256 0 min 0,000 mm 0,0 UV-I 58 W/m 1,9 C -4,7 C 33,8 km/h (5 Bft) 93,62 %
10.12.2018 09:12 4,2 C 4,4 C 4,4 C 84 % 1015,6 hPa 0,0 l/m 19,0 km/h (3 Bft) W-NW 284 0 min 0,000 mm 0,0 UV-I 69 W/m 1,7 C -3,8 C 25,7 km/h (4 Bft) 95,74 %
10.12.2018 09:14 4,2 C 4,4 C 4,4 C 84 % 1015,8 hPa 0,0 l/m 18,2 km/h (3 Bft) W-SW 257 0 min 0,000 mm 0,0 UV-I 75 W/m 1,7 C -3,4 C 24,1 km/h (4 Bft) 95,74 %
10.12.2018 09:16 4,2 C 4,4 C 4,4 C 84 % 1015,5 hPa 0,0 l/m 21,6 km/h (4 Bft) W 275 0 min 0,000 mm 0,0 UV-I 75 W/m 1,7 C -4,8 C 33,8 km/h (5 Bft) 95,74 %
10.12.2018 09:18 4,2 C 4,4 C 4,4 C 83 % 1015,7 hPa 0,0 l/m 19,8 km/h (3 Bft) W-SW 257 0 min 0,000 mm 0,0 UV-I 63 W/m 1,6 C -4,1 C 30,6 km/h (5 Bft) 92,00 %
10.12.2018 09:20 4,2 C 4,4 C 4,4 C 83 % 1015,7 hPa 0,0 l/m 18,0 km/h (3 Bft) W-NW 291 0 min 0,000 mm 0,0 UV-I 49 W/m 1,6 C -3,4 C 25,7 km/h (4 Bft) 93,62 %
10.12.2018 09:22 4,2 C 4,4 C 4,4 C 83 % 1015,7 hPa 0,0 l/m 25,7 km/h (4 Bft) W-SW 255 0 min 0,000 mm 0,0 UV-I 50 W/m 1,6 C -6,3 C 35,4 km/h (5 Bft) 100,00 %
10.12.2018 09:24 4,2 C 4,4 C 3,9 C 83 % 1015,9 hPa 0,0 l/m 19,5 km/h (3 Bft) W 273 0 min 0,000 mm 0,0 UV-I 38 W/m 1,6 C -4,0 C 25,7 km/h (4 Bft) 96,00 %
10.12.2018 09:26 4,2 C 4,4 C 3,9 C 83 % 1015,9 hPa 0,0 l/m 25,2 km/h (4 Bft) W 269 0 min 0,000 mm 0,0 UV-I 39 W/m 1,6 C -6,1 C 41,8 km/h (6 Bft) 97,87 %
10.12.2018 09:28 4,1 C 4,4 C 3,3 C 83 % 1015,9 hPa 0,0 l/m 23,6 km/h (4 Bft) W 270 0 min 0,000 mm 0,0 UV-I 50 W/m 1,5 C -5,7 C 37,0 km/h (5 Bft) 96,00 %
10.12.2018 09:30 4,0 C 4,4 C 3,3 C 84 % 1015,9 hPa 0,0 l/m 18,2 km/h (3 Bft) W-SW 252 0 min 0,000 mm 0,0 UV-I 42 W/m 1,5 C -3,7 C 32,2 km/h (5 Bft) 95,74 %
10.12.2018 09:32 3,8 C 4,4 C 3,3 C 85 % 1015,9 hPa 0,0 l/m 16,9 km/h (3 Bft) W-SW 240 0 min 0,000 mm 0,0 UV-I 27 W/m 1,5 C -3,3 C 25,7 km/h (4 Bft) 96,00 %
10.12.2018 09:34 3,7 C 4,4 C 2,8 C 85 % 1015,9 hPa 0,0 l/m 22,8 km/h (4 Bft) W-SW 258 0 min 0,000 mm 0,0 UV-I 19 W/m 1,4 C -5,9 C 30,6 km/h (5 Bft) 95,74 %
10.12.2018 09:36 3,6 C 4,4 C 2,8 C 86 % 1015,8 hPa 0,0 l/m 17,8 km/h (3 Bft) W-SW 255 0 min 0,000 mm 0,0 UV-I 33 W/m 1,5 C -4,0 C 27,4 km/h (4 Bft) 97,87 %
10.12.2018 09:38 3,4 C 4,4 C 2,8 C 87 % 1015,9 hPa 0,0 l/m 20,2 km/h (4 Bft) NW 306 0 min 0,000 mm 0,0 UV-I 49 W/m 1,4 C -5,3 C 25,7 km/h (4 Bft) 97,87 %
10.12.2018 09:40 3,3 C 4,4 C 2,8 C 88 % 1015,9 hPa 0,0 l/m 18,6 km/h (3 Bft) W 263 0 min 0,000 mm 0,0 UV-I 60 W/m 1,5 C -4,8 C 25,7 km/h (4 Bft) 95,74 %
10.12.2018 09:42 3,2 C 4,4 C 2,8 C 88 % 1015,9 hPa 0,0 l/m 19,1 km/h (3 Bft) W 259 0 min 0,000 mm 0,0 UV-I 70 W/m 1,4 C -5,1 C 29,0 km/h (5 Bft) 95,74 %
10.12.2018 09:44 3,2 C 4,4 C 2,8 C 89 % 1016,0 hPa 0,0 l/m 20,2 km/h (4 Bft) W 259 0 min 0,000 mm 0,0 UV-I 87 W/m 1,6 C -5,6 C 33,8 km/h (5 Bft) 95,74 %
10.12.2018 09:46 3,1 C 4,4 C 2,8 C 89 % 1016,0 hPa 0,0 l/m 18,4 km/h (3 Bft) W-NW 295 0 min 0,000 mm 0,0 UV-I 101 W/m 1,5 C -4,9 C 30,6 km/h (5 Bft) 95,74 %
10.12.2018 09:48 3,1 C 4,4 C 3,3 C 89 % 1015,9 hPa 0,0 l/m 24,8 km/h (4 Bft) W-NW 295 0 min 0,000 mm 0,0 UV-I 108 W/m 1,5 C -7,5 C 40,2 km/h (6 Bft) 95,74 %
10.12.2018 09:50 3,1 C 4,4 C 3,3 C 89 % 1016,0 hPa 0,2 l/m 24,6 km/h (4 Bft) W 269 0 min 0,000 mm 0,0 UV-I 125 W/m 1,5 C -7,4 C 40,2 km/h (6 Bft) 94,29 %
10.12.2018 09:52 3,1 C 4,4 C 3,3 C 89 % 1016,0 hPa 0,0 l/m 24,8 km/h (4 Bft) W 269 0 min 0,000 mm 0,0 UV-I 128 W/m 1,5 C -7,5 C 35,4 km/h (5 Bft) 98,00 %
10.12.2018 09:54 3,1 C 4,4 C 3,3 C 89 % 1016,1 hPa 0,0 l/m 24,5 km/h (4 Bft) W 271 0 min 0,000 mm 0,0 UV-I 127 W/m 1,5 C -7,3 C 35,4 km/h (5 Bft) 97,87 %
10.12.2018 09:56 3,1 C 4,4 C 3,3 C 89 % 1016,1 hPa 0,0 l/m 22,1 km/h (4 Bft) W 281 0 min 0,000 mm 0,0 UV-I 124 W/m 1,5 C -6,5 C 37,0 km/h (5 Bft) 95,74 %
10.12.2018 09:58 3,1 C 4,4 C 3,3 C 88 % 1016,1 hPa 0,0 l/m 22,9 km/h (4 Bft) W-NW 284 0 min 0,000 mm 0,0 UV-I 97 W/m 1,3 C -6,8 C 38,6 km/h (5 Bft) 97,87 %
10.12.2018 10:00 3,2 C 4,4 C 3,3 C 88 % 1016,1 hPa 0,0 l/m 19,6 km/h (3 Bft) W 271 0 min 0,050 mm 0,0 UV-I 101 W/m 1,4 C -5,3 C 30,6 km/h (5 Bft) 95,83 %
10.12.2018 10:02 3,2 C 4,4 C 3,3 C 88 % 1016,2 hPa 0,0 l/m 20,1 km/h (4 Bft) NW 304 0 min 0,000 mm 0,0 UV-I 105 W/m 1,4 C -5,5 C 35,4 km/h (5 Bft) 97,87 %
10.12.2018 10:04 3,1 C 4,4 C 3,3 C 88 % 1016,2 hPa 0,0 l/m 23,6 km/h (4 Bft) W 267 0 min 0,000 mm 0,0 UV-I 111 W/m 1,3 C -7,0 C 38,6 km/h (5 Bft) 93,62 %
10.12.2018 10:06 3,2 C 4,4 C 3,3 C 88 % 1016,4 hPa 0,0 l/m 19,4 km/h (3 Bft) W-SW 248 0 min 0,000 mm 0,0 UV-I 124 W/m 1,4 C -5,2 C 33,8 km/h (5 Bft) 96,00 %
10.12.2018 10:08 3,2 C 4,4 C 3,3 C 88 % 1016,2 hPa 0,0 l/m 27,9 km/h (4 Bft) W 281 0 min 0,000 mm 0,0 UV-I 137 W/m 1,4 C -8,3 C 43,5 km/h (6 Bft) 97,87 %
10.12.2018 10:10 3,2 C 4,4 C 3,3 C 88 % 1016,2 hPa 0,0 l/m 17,5 km/h (3 Bft) W-SW 242 0 min 0,000 mm 0,0 UV-I 141 W/m 1,4 C -4,4 C 24,1 km/h (4 Bft) 95,74 %
10.12.2018 10:12 3,2 C 4,4 C 3,9 C 89 % 1016,2 hPa 0,0 l/m 18,3 km/h (3 Bft) W 264 0 min 0,000 mm 0,0 UV-I 137 W/m 1,6 C -4,8 C 32,2 km/h (5 Bft) 97,87 %
10.12.2018 10:14 3,3 C 4,4 C 3,9 C 89 % 1016,3 hPa 0,0 l/m 17,0 km/h (3 Bft) W 267 0 min 0,000 mm 0,0 UV-I 130 W/m 1,7 C -4,0 C 25,7 km/h (4 Bft) 100,00 %
10.12.2018 10:16 3,3 C 4,4 C 3,9 C 89 % 1016,4 hPa 0,0 l/m 19,0 km/h (3 Bft) W-SW 254 0 min 0,000 mm 0,0 UV-I 124 W/m 1,7 C -4,9 C 30,6 km/h (5 Bft) 93,62 %
10.12.2018 10:18 3,3 C 4,4 C 3,9 C 89 % 1016,4 hPa 0,0 l/m 16,9 km/h (3 Bft) W-SW 257 0 min 0,000 mm 0,0 UV-I 121 W/m 1,7 C -4,0 C 24,1 km/h (4 Bft) 97,56 %
10.12.2018 10:20 3,3 C 4,4 C 3,9 C 89 % 1016,5 hPa 0,0 l/m 13,5 km/h (3 Bft) W-SW 252 0 min 0,000 mm 0,0 UV-I 119 W/m 1,7 C -2,1 C 24,1 km/h (4 Bft) 93,62 %
10.12.2018 10:22 3,3 C 4,4 C 3,3 C 89 % 1016,4 hPa 0,0 l/m 16,2 km/h (3 Bft) W-SW 253 0 min 0,000 mm 0,0 UV-I 113 W/m 1,7 C -3,6 C 29,0 km/h (5 Bft) 96,00 %
10.12.2018 10:24 3,3 C 4,4 C 3,3 C 89 % 1016,5 hPa 0,0 l/m 17,6 km/h (3 Bft) W-SW 244 0 min 0,000 mm 0,0 UV-I 113 W/m 1,7 C -4,3 C 25,7 km/h (4 Bft) 91,49 %
10.12.2018 10:26 3,3 C 4,4 C 3,3 C 89 % 1016,5 hPa 0,0 l/m 21,8 km/h (4 Bft) W 270 0 min 0,000 mm 0,0 UV-I 92 W/m 1,7 C -6,1 C 32,2 km/h (5 Bft) 93,62 %
10.12.2018 10:28 3,4 C 4,4 C 3,3 C 89 % 1016,6 hPa 0,0 l/m 16,4 km/h (3 Bft) W-SW 253 0 min 0,000 mm 0,0 UV-I 85 W/m 1,8 C -3,6 C 27,4 km/h (4 Bft) 95,74 %
10.12.2018 10:30 3,4 C 4,4 C 3,3 C 89 % 1016,6 hPa 0,0 l/m 22,8 km/h (4 Bft) W 275 0 min 0,000 mm 0,0 UV-I 80 W/m 1,8 C -6,3 C 35,4 km/h (5 Bft) 95,74 %
10.12.2018 10:32 3,4 C 4,4 C 3,3 C 88 % 1016,6 hPa 0,0 l/m 24,7 km/h (4 Bft) W 265 0 min 0,000 mm 0,0 UV-I 84 W/m 1,6 C -7,0 C 40,2 km/h (6 Bft) 93,62 %
10.12.2018 10:34 3,5 C 4,4 C 3,3 C 88 % 1016,7 hPa 0,0 l/m 14,9 km/h (3 Bft) W-SW 248 0 min 0,000 mm 0,0 UV-I 87 W/m 1,7 C -2,7 C 24,1 km/h (4 Bft) 89,36 %
10.12.2018 10:36 3,6 C 4,4 C 3,3 C 88 % 1016,7 hPa 0,0 l/m 18,0 km/h (3 Bft) W-NW 284 0 min 0,000 mm 0,0 UV-I 87 W/m 1,8 C -4,1 C 30,6 km/h (5 Bft) 95,74 %
10.12.2018 10:38 3,6 C 4,4 C 3,3 C 87 % 1016,7 hPa 0,0 l/m 15,6 km/h (3 Bft) W 275 0 min 0,000 mm 0,0 UV-I 77 W/m 1,6 C -2,9 C 24,1 km/h (4 Bft) 96,00 %
10.12.2018 10:40 3,6 C 4,4 C 3,9 C 87 % 1016,7 hPa 0,0 l/m 15,6 km/h (3 Bft) W-SW 249 0 min 0,000 mm 0,0 UV-I 73 W/m 1,6 C -2,9 C 29,0 km/h (5 Bft) 93,62 %
10.12.2018 10:42 3,7 C 4,4 C 3,9 C 86 % 1016,7 hPa 0,0 l/m 19,8 km/h (3 Bft) W-NW 285 0 min 0,000 mm 0,0 UV-I 75 W/m 1,6 C -4,8 C 35,4 km/h (5 Bft) 97,87 %
10.12.2018 10:44 3,7 C 4,4 C 3,9 C 86 % 1016,7 hPa 0,0 l/m 21,5 km/h (4 Bft) W 281 0 min 0,000 mm 0,0 UV-I 83 W/m 1,6 C -5,5 C 35,4 km/h (5 Bft) 95,83 %
10.12.2018 10:46 3,8 C 4,4 C 3,9 C 85 % 1016,7 hPa 0,0 l/m 20,7 km/h (4 Bft) W-SW 257 0 min 0,000 mm 0,0 UV-I 87 W/m 1,5 C -5,0 C 29,0 km/h (5 Bft) 97,87 %
10.12.2018 10:48 3,8 C 4,4 C 3,9 C 84 % 1016,8 hPa 0,0 l/m 26,4 km/h (4 Bft) W-SW 254 0 min 0,000 mm 0,0 UV-I 80 W/m 1,4 C -7,0 C 43,5 km/h (6 Bft) 97,37 %
10.12.2018 10:50 3,8 C 4,4 C 3,3 C 84 % 1016,7 hPa 0,0 l/m 24,9 km/h (4 Bft) W-SW 257 0 min 0,000 mm 0,0 UV-I 70 W/m 1,4 C -6,5 C 40,2 km/h (6 Bft) 97,87 %
10.12.2018 10:52 3,9 C 4,4 C 3,9 C 84 % 1016,7 hPa 0,0 l/m 19,8 km/h (3 Bft) W-NW 302 0 min 0,000 mm 0,0 UV-I 77 W/m 1,4 C -4,5 C 33,8 km/h (5 Bft) 96,00 %
10.12.2018 10:54 3,9 C 4,4 C 3,9 C 84 % 1016,7 hPa 0,0 l/m 17,3 km/h (3 Bft) W-NW 282 0 min 0,000 mm 0,0 UV-I 74 W/m 1,4 C -3,4 C 27,4 km/h (4 Bft) 98,00 %
10.12.2018 10:56 3,9 C 4,4 C 3,9 C 83 % 1016,7 hPa 0,0 l/m 23,4 km/h (4 Bft) W 278 0 min 0,000 mm 0,0 UV-I 74 W/m 1,3 C -5,9 C 46,7 km/h (6 Bft) 97,87 %
10.12.2018 10:58 3,9 C 4,4 C 3,9 C 83 % 1016,8 hPa 0,0 l/m 17,9 km/h (3 Bft) W-NW 300 0 min 0,000 mm 0,0 UV-I 76 W/m 1,3 C -3,7 C 22,5 km/h (4 Bft) 97,87 %
10.12.2018 11:00 3,9 C 4,4 C 3,9 C 83 % 1016,8 hPa 0,0 l/m 17,8 km/h (3 Bft) W-NW 292 0 min 0,051 mm 0,0 UV-I 80 W/m 1,3 C -3,6 C 25,7 km/h (4 Bft) 97,87 %
10.12.2018 11:02 3,9 C 4,4 C 3,9 C 83 % 1016,8 hPa 0,0 l/m 14,2 km/h (3 Bft) W 263 0 min 0,000 mm 0,0 UV-I 95 W/m 1,3 C -1,8 C 25,7 km/h (4 Bft) 100,00 %
10.12.2018 11:04 4,0 C 4,4 C 3,9 C 82 % 1016,7 hPa 0,0 l/m 17,0 km/h (3 Bft) NW 324 0 min 0,000 mm 0,0 UV-I 103 W/m 1,2 C -3,1 C 37,0 km/h (5 Bft) 100,00 %
10.12.2018 11:06 4,0 C 4,4 C 3,9 C 82 % 1016,8 hPa 0,0 l/m 15,2 km/h (3 Bft) W 265 0 min 0,000 mm 0,0 UV-I 113 W/m 1,2 C -2,2 C 30,6 km/h (5 Bft) 95,74 %
10.12.2018 11:08 4,1 C 4,4 C 4,4 C 81 % 1016,8 hPa 0,0 l/m 11,9 km/h (2 Bft) NW 317 0 min 0,000 mm 0,0 UV-I 125 W/m 1,1 C -0,2 C 19,3 km/h (3 Bft) 100,00 %
10.12.2018 11:10 4,1 C 4,4 C 4,4 C 81 % 1016,9 hPa 0,0 l/m 13,6 km/h (3 Bft) N-NW 327 0 min 0,000 mm 0,0 UV-I 130 W/m 1,1 C -1,2 C 20,9 km/h (4 Bft) 100,00 %
10.12.2018 11:12 4,1 C 4,4 C 4,4 C 81 % 1016,9 hPa 0,0 l/m 12,1 km/h (2 Bft) NW 317 0 min 0,000 mm 0,0 UV-I 135 W/m 1,1 C -0,3 C 20,9 km/h (4 Bft) 96,00 %
10.12.2018 11:14 4,2 C 4,4 C 4,4 C 79 % 1016,9 hPa 0,0 l/m 18,4 km/h (3 Bft) W-NW 292 0 min 0,000 mm 0,0 UV-I 134 W/m 0,9 C -3,5 C 32,2 km/h (5 Bft) 97,87 %
10.12.2018 11:16 4,2 C 4,4 C 4,4 C 79 % 1016,8 hPa 0,0 l/m 11,2 km/h (2 Bft) W 268 0 min 0,000 mm 0,0 UV-I 132 W/m 0,9 C 0,4 C 20,9 km/h (4 Bft) 100,00 %
10.12.2018 11:18 4,3 C 4,4 C 5,0 C 79 % 1016,9 hPa 0,0 l/m 15,4 km/h (3 Bft) W 278 0 min 0,000 mm 0,0 UV-I 122 W/m 1,0 C -2,0 C 35,4 km/h (5 Bft) 97,87 %
10.12.2018 11:20 4,3 C 4,4 C 4,4 C 78 % 1016,9 hPa 0,0 l/m 17,5 km/h (3 Bft) W-NW 287 0 min 0,000 mm 0,0 UV-I 107 W/m 0,8 C -3,0 C 27,4 km/h (4 Bft) 100,00 %
10.12.2018 11:22 4,3 C 4,4 C 4,4 C 78 % 1016,9 hPa 0,0 l/m 17,1 km/h (3 Bft) W-NW 292 0 min 0,000 mm 0,0 UV-I 94 W/m 0,8 C -2,8 C 25,7 km/h (4 Bft) 100,00 %
10.12.2018 11:24 4,3 C 4,4 C 4,4 C 78 % 1016,9 hPa 0,0 l/m 14,3 km/h (3 Bft) W 272 0 min 0,000 mm 0,0 UV-I 81 W/m 0,8 C -1,4 C 22,5 km/h (4 Bft) 98,00 %
10.12.2018 11:26 4,3 C 4,4 C 4,4 C 78 % 1016,9 hPa 0,0 l/m 15,2 km/h (3 Bft) W 270 0 min 0,000 mm 0,0 UV-I 87 W/m 0,8 C -1,9 C 30,6 km/h (5 Bft) 100,00 %
10.12.2018 11:28 4,3 C 4,4 C 4,4 C 79 % 1016,9 hPa 0,0 l/m 13,5 km/h (3 Bft) W-NW 299 0 min 0,000 mm 0,0 UV-I 89 W/m 1,0 C -0,9 C 19,3 km/h (3 Bft) 100,00 %
10.12.2018 11:30 4,3 C 4,4 C 4,4 C 80 % 1016,9 hPa 0,0 l/m 16,4 km/h (3 Bft) W 269 0 min 0,000 mm 0,0 UV-I 86 W/m 1,2 C -2,5 C 25,7 km/h (4 Bft) 100,00 %
10.12.2018 11:32 4,3 C 4,4 C 5,0 C 81 % 1016,9 hPa 0,0 l/m 14,4 km/h (3 Bft) W 259 0 min 0,000 mm 0,0 UV-I 102 W/m 1,3 C -1,5 C 24,1 km/h (4 Bft) 100,00 %
10.12.2018 11:34 4,2 C 4,4 C 5,0 C 82 % 1016,9 hPa 0,0 l/m 18,0 km/h (3 Bft) W 261 0 min 0,000 mm 0,0 UV-I 119 W/m 1,4 C -3,4 C 27,4 km/h (4 Bft) 97,87 %
10.12.2018 11:36 4,2 C 4,4 C 5,0 C 82 % 1016,9 hPa 0,0 l/m 12,1 km/h (2 Bft) W 275 0 min 0,000 mm 0,0 UV-I 132 W/m 1,4 C -0,2 C 20,9 km/h (4 Bft) 97,37 %
10.12.2018 11:38 4,1 C 4,4 C 5,0 C 83 % 1016,9 hPa 0,0 l/m 11,2 km/h (2 Bft) NW 321 0 min 0,000 mm 0,0 UV-I 140 W/m 1,5 C 0,2 C 17,7 km/h (3 Bft) 97,87 %
10.12.2018 11:40 4,2 C 4,4 C 5,0 C 83 % 1016,9 hPa 0,0 l/m 17,8 km/h (3 Bft) W 269 0 min 0,000 mm 0,0 UV-I 149 W/m 1,6 C -3,3 C 27,4 km/h (4 Bft) 97,87 %
10.12.2018 11:42 4,2 C 4,4 C 5,6 C 83 % 1016,9 hPa 0,0 l/m 18,0 km/h (3 Bft) W-SW 252 0 min 0,000 mm 0,0 UV-I 159 W/m 1,6 C -3,4 C 25,7 km/h (4 Bft) 95,74 %
10.12.2018 11:44 4,2 C 4,4 C 5,6 C 83 % 1016,9 hPa 0,0 l/m 19,6 km/h (3 Bft) W-NW 283 0 min 0,000 mm 0,0 UV-I 171 W/m 1,6 C -4,0 C 30,6 km/h (5 Bft) 98,00 %
10.12.2018 11:46 4,2 C 4,4 C 5,6 C 83 % 1016,9 hPa 0,0 l/m 12,9 km/h (3 Bft) W-NW 287 0 min 0,000 mm 0,0 UV-I 181 W/m 1,6 C -0,7 C 19,3 km/h (3 Bft) 98,00 %
10.12.2018 11:48 4,2 C 4,4 C 5,6 C 83 % 1016,9 hPa 0,0 l/m 17,6 km/h (3 Bft) W-NW 288 0 min 0,000 mm 0,0 UV-I 176 W/m 1,6 C -3,2 C 29,0 km/h (5 Bft) 95,74 %
10.12.2018 11:50 4,3 C 4,4 C 5,6 C 83 % 1016,9 hPa 0,0 l/m 23,1 km/h (4 Bft) W-NW 301 0 min 0,000 mm 0,0 UV-I 168 W/m 1,7 C -5,2 C 33,8 km/h (5 Bft) 97,87 %
10.12.2018 11:52 4,3 C 4,4 C 5,6 C 82 % 1016,9 hPa 0,0 l/m 20,4 km/h (4 Bft) W-SW 252 0 min 0,000 mm 0,0 UV-I 158 W/m 1,5 C -4,2 C 29,0 km/h (5 Bft) 97,87 %
10.12.2018 11:54 4,3 C 4,4 C 5,6 C 82 % 1017,0 hPa 0,0 l/m 16,2 km/h (3 Bft) W 271 0 min 0,000 mm 0,0 UV-I 154 W/m 1,5 C -2,4 C 29,0 km/h (5 Bft) 97,87 %
10.12.2018 11:56 4,3 C 4,4 C 5,6 C 83 % 1017,1 hPa 0,0 l/m 22,6 km/h (4 Bft) W-SW 246 0 min 0,000 mm 0,0 UV-I 156 W/m 1,7 C -5,1 C 33,8 km/h (5 Bft) 97,87 %
10.12.2018 11:58 4,3 C 4,4 C 5,6 C 83 % 1017,1 hPa 0,0 l/m 20,3 km/h (4 Bft) W-NW 300 0 min 0,000 mm 0,0 UV-I 159 W/m 1,7 C -4,2 C 33,8 km/h (5 Bft) 100,00 %
10.12.2018 12:00 4,2 C 4,4 C 5,6 C 82 % 1017,1 hPa 0,0 l/m 18,9 km/h (3 Bft) W 271 0 min 0,076 mm 0,0 UV-I 155 W/m 1,4 C -3,7 C 27,4 km/h (4 Bft) 100,00 %
10.12.2018 12:02 4,2 C 4,4 C 5,6 C 83 % 1017,1 hPa 0,0 l/m 15,2 km/h (3 Bft) W 262 0 min 0,000 mm 0,0 UV-I 147 W/m 1,6 C -2,0 C 24,1 km/h (4 Bft) 100,00 %
10.12.2018 12:04 4,3 C 4,4 C 5,6 C 83 % 1017,1 hPa 0,0 l/m 14,5 km/h (3 Bft) W 267 0 min 0,000 mm 0,0 UV-I 149 W/m 1,7 C -1,5 C 24,1 km/h (4 Bft) 100,00 %
10.12.2018 12:06 4,3 C 4,4 C 5,6 C 82 % 1017,1 hPa 0,0 l/m 20,9 km/h (4 Bft) W 259 0 min 0,000 mm 0,0 UV-I 159 W/m 1,5 C -4,4 C 30,6 km/h (5 Bft) 100,00 %
10.12.2018 12:08 4,3 C 4,4 C 5,6 C 82 % 1017,0 hPa 0,0 l/m 17,8 km/h (3 Bft) W-SW 257 0 min 0,000 mm 0,0 UV-I 164 W/m 1,5 C -3,1 C 27,4 km/h (4 Bft) 95,74 %
10.12.2018 12:10 4,3 C 4,4 C 5,6 C 82 % 1017,1 hPa 0,0 l/m 18,6 km/h (3 Bft) SW 225 0 min 0,000 mm 0,0 UV-I 139 W/m 1,5 C -3,5 C 29,0 km/h (5 Bft) 100,00 %
10.12.2018 12:12 4,3 C 4,4 C 5,0 C 82 % 1017,1 hPa 0,0 l/m 16,3 km/h (3 Bft) W-SW 241 0 min 0,000 mm 0,0 UV-I 95 W/m 1,5 C -2,4 C 25,7 km/h (4 Bft) 100,00 %
10.12.2018 12:14 4,3 C 4,4 C 5,0 C 82 % 1017,0 hPa 0,0 l/m 19,7 km/h (3 Bft) W 263 0 min 0,000 mm 0,0 UV-I 82 W/m 1,5 C -4,0 C 30,6 km/h (5 Bft) 97,87 %
10.12.2018 12:16 4,2 C 4,4 C 5,0 C 83 % 1017,0 hPa 0,0 l/m 19,5 km/h (3 Bft) SW 225 0 min 0,000 mm 0,0 UV-I 92 W/m 1,6 C -4,0 C 29,0 km/h (5 Bft) 100,00 %
10.12.2018 12:18 4,2 C 4,4 C 5,0 C 83 % 1017,0 hPa 0,0 l/m 20,9 km/h (4 Bft) W-SW 243 0 min 0,000 mm 0,0 UV-I 105 W/m 1,6 C -4,6 C 29,0 km/h (5 Bft) 97,87 %
10.12.2018 12:20 4,2 C 4,4 C 5,0 C 83 % 1017,0 hPa 0,0 l/m 22,1 km/h (4 Bft) W 261 0 min 0,000 mm 0,0 UV-I 95 W/m 1,6 C -5,0 C 32,2 km/h (5 Bft) 97,87 %
10.12.2018 12:22 4,2 C 4,4 C 4,4 C 82 % 1017,0 hPa 0,0 l/m 26,4 km/h (4 Bft) W-SW 258 0 min 0,000 mm 0,0 UV-I 80 W/m 1,4 C -6,5 C 37,0 km/h (5 Bft) 100,00 %
10.12.2018 12:24 4,1 C 4,4 C 4,4 C 82 % 1016,9 hPa 0,0 l/m 22,8 km/h (4 Bft) W-SW 251 0 min 0,000 mm 0,0 UV-I 66 W/m 1,3 C -5,4 C 33,8 km/h (5 Bft) 100,00 %
10.12.2018 12:26 4,1 C 4,4 C 4,4 C 82 % 1016,9 hPa 0,0 l/m 19,1 km/h (3 Bft) W 277 0 min 0,000 mm 0,0 UV-I 63 W/m 1,3 C -4,0 C 29,0 km/h (5 Bft) 93,62 %
10.12.2018 12:28 4,1 C 4,4 C 4,4 C 82 % 1016,9 hPa 0,0 l/m 17,6 km/h (3 Bft) W-NW 285 0 min 0,000 mm 0,0 UV-I 99 W/m 1,3 C -3,3 C 24,1 km/h (4 Bft) 97,87 %
10.12.2018 12:30 4,1 C 4,4 C 5,0 C 82 % 1016,9 hPa 0,0 l/m 20,2 km/h (4 Bft) W 267 0 min 0,000 mm 0,0 UV-I 126 W/m 1,3 C -4,4 C 30,6 km/h (5 Bft) 97,22 %
10.12.2018 12:32 4,2 C 4,4 C 5,0 C 82 % 1016,9 hPa 0,0 l/m 18,2 km/h (3 Bft) W 279 0 min 0,000 mm 0,0 UV-I 140 W/m 1,4 C -3,4 C 25,7 km/h (4 Bft) 98,04 %
10.12.2018 12:34 4,2 C 4,4 C 5,6 C 82 % 1016,9 hPa 0,0 l/m 20,9 km/h (4 Bft) W 259 0 min 0,000 mm 0,0 UV-I 153 W/m 1,4 C -4,6 C 35,4 km/h (5 Bft) 97,87 %
10.12.2018 12:36 4,3 C 4,4 C 5,6 C 81 % 1016,9 hPa 0,0 l/m 23,4 km/h (4 Bft) W-SW 243 0 min 0,000 mm 0,0 UV-I 173 W/m 1,3 C -5,4 C 45,1 km/h (6 Bft) 94,00 %
10.12.2018 12:38 4,3 C 4,4 C 5,6 C 80 % 1016,9 hPa 0,0 l/m 21,3 km/h (4 Bft) W-SW 240 2 min 0,000 mm 0,0 UV-I 182 W/m 1,2 C -4,6 C 30,6 km/h (5 Bft) 97,87 %
10.12.2018 12:40 4,3 C 4,4 C 5,6 C 81 % 1016,9 hPa 0,0 l/m 25,0 km/h (4 Bft) SW 231 2 min 0,000 mm 0,0 UV-I 190 W/m 1,3 C -5,9 C 38,6 km/h (5 Bft) 98,00 %
10.12.2018 12:42 4,4 C 4,4 C 5,6 C 80 % 1016,9 hPa 0,0 l/m 27,0 km/h (4 Bft) W-SW 239 0 min 0,000 mm 0,0 UV-I 161 W/m 1,3 C -6,4 C 43,5 km/h (6 Bft) 94,74 %
10.12.2018 12:44 4,4 C 4,4 C 5,6 C 80 % 1016,9 hPa 0,0 l/m 23,0 km/h (4 Bft) W 261 0 min 0,000 mm 0,0 UV-I 156 W/m 1,3 C -5,1 C 37,0 km/h (5 Bft) 97,87 %
10.12.2018 12:46 4,4 C 4,4 C 5,6 C 79 % 1016,9 hPa 0,0 l/m 23,9 km/h (4 Bft) W 274 0 min 0,000 mm 0,0 UV-I 149 W/m 1,1 C -5,4 C 33,8 km/h (5 Bft) 97,87 %
10.12.2018 12:48 4,4 C 4,4 C 5,6 C 79 % 1016,9 hPa 0,0 l/m 23,8 km/h (4 Bft) W 276 0 min 0,000 mm 0,0 UV-I 138 W/m 1,1 C -5,4 C 30,6 km/h (5 Bft) 97,87 %
10.12.2018 12:50 4,4 C 4,4 C 5,6 C 79 % 1016,9 hPa 0,0 l/m 19,9 km/h (4 Bft) W 271 0 min 0,000 mm 0,0 UV-I 132 W/m 1,1 C -3,9 C 29,0 km/h (5 Bft) 96,23 %
10.12.2018 12:52 4,4 C 4,4 C 5,6 C 79 % 1016,9 hPa 0,0 l/m 28,2 km/h (4 Bft) W-SW 239 0 min 0,000 mm 0,0 UV-I 117 W/m 1,1 C -6,7 C 43,5 km/h (6 Bft) 95,74 %
10.12.2018 12:54 4,4 C 4,4 C 5,6 C 78 % 1017,0 hPa 0,0 l/m 21,5 km/h (4 Bft) W 259 0 min 0,000 mm 0,0 UV-I 117 W/m 0,9 C -4,5 C 35,4 km/h (5 Bft) 91,49 %
10.12.2018 12:56 4,5 C 4,4 C 5,6 C 79 % 1017,0 hPa 0,0 l/m 18,5 km/h (3 Bft) W 259 0 min 0,000 mm 0,0 UV-I 133 W/m 1,2 C -3,2 C 29,0 km/h (5 Bft) 95,74 %
10.12.2018 12:58 4,5 C 4,4 C 5,6 C 78 % 1016,9 hPa 0,0 l/m 24,1 km/h (4 Bft) W 269 0 min 0,000 mm 0,0 UV-I 134 W/m 1,0 C -5,3 C 38,6 km/h (5 Bft) 93,62 %
10.12.2018 13:00 4,5 C 4,4 C 5,6 C 78 % 1016,9 hPa 0,0 l/m 22,7 km/h (4 Bft) W 275 0 min 0,077 mm 0,0 UV-I 140 W/m 1,0 C -4,8 C 33,8 km/h (5 Bft) 93,62 %
10.12.2018 13:02 4,6 C 4,4 C 5,6 C 78 % 1016,9 hPa 0,0 l/m 20,9 km/h (4 Bft) W 265 0 min 0,000 mm 0,0 UV-I 142 W/m 1,1 C -4,0 C 30,6 km/h (5 Bft) 97,37 %
10.12.2018 13:04 4,6 C 4,4 C 5,6 C 78 % 1016,9 hPa 0,0 l/m 21,1 km/h (4 Bft) W 278 0 min 0,000 mm 0,0 UV-I 148 W/m 1,1 C -4,1 C 32,2 km/h (5 Bft) 97,87 %
10.12.2018 13:06 4,6 C 4,4 C 5,6 C 78 % 1017,0 hPa 0,0 l/m 25,1 km/h (4 Bft) W 265 0 min 0,000 mm 0,0 UV-I 153 W/m 1,1 C -5,5 C 32,2 km/h (5 Bft) 98,11 %
10.12.2018 13:08 4,6 C 4,4 C 5,6 C 78 % 1017,0 hPa 0,0 l/m 22,9 km/h (4 Bft) W-NW 298 0 min 0,000 mm 0,0 UV-I 158 W/m 1,1 C -4,8 C 33,8 km/h (5 Bft) 97,87 %
10.12.2018 13:10 4,7 C 4,4 C 5,6 C 78 % 1017,0 hPa 0,0 l/m 18,2 km/h (3 Bft) W 261 2 min 0,000 mm 0,0 UV-I 166 W/m 1,2 C -2,8 C 25,7 km/h (4 Bft) 96,00 %
10.12.2018 13:12 4,7 C 4,4 C 6,1 C 78 % 1017,0 hPa 0,0 l/m 21,8 km/h (4 Bft) W 277 2 min 0,000 mm 0,0 UV-I 189 W/m 1,2 C -4,3 C 33,8 km/h (5 Bft) 97,22 %
10.12.2018 13:14 4,7 C 4,4 C 6,1 C 78 % 1016,9 hPa 0,0 l/m 24,2 km/h (4 Bft) W 265 2 min 0,000 mm 0,0 UV-I 188 W/m 1,2 C -5,1 C 32,2 km/h (5 Bft) 96,00 %
10.12.2018 13:16 4,7 C 4,4 C 6,1 C 78 % 1017,0 hPa 0,0 l/m 28,2 km/h (4 Bft) W-SW 242 2 min 0,000 mm 0,0 UV-I 183 W/m 1,2 C -6,3 C 38,6 km/h (5 Bft) 93,62 %
10.12.2018 13:18 4,7 C 4,4 C 6,1 C 78 % 1016,9 hPa 0,0 l/m 26,1 km/h (4 Bft) W 261 2 min 0,000 mm 0,0 UV-I 198 W/m 1,2 C -5,7 C 41,8 km/h (6 Bft) 96,00 %
10.12.2018 13:20 4,7 C 4,4 C 5,6 C 77 % 1016,9 hPa 0,0 l/m 31,2 km/h (5 Bft) W 261 2 min 0,000 mm 0,0 UV-I 190 W/m 1,0 C -7,1 C 43,5 km/h (6 Bft) 95,74 %
10.12.2018 13:22 4,7 C 4,4 C 6,1 C 77 % 1016,9 hPa 0,0 l/m 21,2 km/h (4 Bft) W 273 2 min 0,000 mm 0,0 UV-I 179 W/m 1,0 C -4,0 C 37,0 km/h (5 Bft) 93,62 %
10.12.2018 13:24 4,7 C 4,4 C 5,6 C 77 % 1016,9 hPa 0,0 l/m 25,9 km/h (4 Bft) W 266 2 min 0,000 mm 0,0 UV-I 170 W/m 1,0 C -5,6 C 45,1 km/h (6 Bft) 97,87 %
10.12.2018 13:26 4,7 C 4,4 C 5,6 C 77 % 1016,8 hPa 0,0 l/m 19,0 km/h (3 Bft) W 260 2 min 0,000 mm 0,0 UV-I 163 W/m 1,0 C -3,1 C 33,8 km/h (5 Bft) 95,74 %
10.12.2018 13:28 4,7 C 4,4 C 5,6 C 77 % 1016,8 hPa 0,0 l/m 22,4 km/h (4 Bft) W 269 2 min 0,000 mm 0,0 UV-I 169 W/m 1,0 C -4,5 C 38,6 km/h (5 Bft) 97,87 %
10.12.2018 13:30 4,7 C 4,4 C 5,6 C 77 % 1016,8 hPa 0,0 l/m 24,8 km/h (4 Bft) W 270 2 min 0,000 mm 0,0 UV-I 164 W/m 1,0 C -5,3 C 38,6 km/h (5 Bft) 96,00 %
10.12.2018 13:32 4,7 C 4,4 C 5,6 C 76 % 1016,7 hPa 0,0 l/m 27,0 km/h (4 Bft) W 265 2 min 0,000 mm 0,0 UV-I 159 W/m 0,8 C -6,0 C 49,9 km/h (6 Bft) 95,74 %
10.12.2018 13:34 4,7 C 4,4 C 5,6 C 77 % 1016,8 hPa 0,0 l/m 18,1 km/h (3 Bft) W-SW 257 2 min 0,000 mm 0,0 UV-I 158 W/m 1,0 C -2,8 C 25,7 km/h (4 Bft) 95,74 %
10.12.2018 13:36 4,7 C 4,4 C 5,6 C 78 % 1016,8 hPa 0,0 l/m 14,9 km/h (3 Bft) W-SW 240 2 min 0,000 mm 0,0 UV-I 153 W/m 1,2 C -1,2 C 25,7 km/h (4 Bft) 95,74 %
10.12.2018 13:38 4,7 C 4,4 C 5,6 C 78 % 1016,9 hPa 0,0 l/m 23,7 km/h (4 Bft) SW 235 2 min 0,000 mm 0,0 UV-I 160 W/m 1,2 C -4,9 C 40,2 km/h (6 Bft) 93,62 %
10.12.2018 13:40 4,7 C 4,4 C 5,6 C 77 % 1016,9 hPa 0,0 l/m 22,4 km/h (4 Bft) W-SW 246 2 min 0,000 mm 0,0 UV-I 153 W/m 1,0 C -4,5 C 33,8 km/h (5 Bft) 97,87 %
10.12.2018 13:42 4,7 C 4,4 C 5,6 C 77 % 1016,9 hPa 0,0 l/m 20,7 km/h (4 Bft) W-NW 283 0 min 0,000 mm 0,0 UV-I 141 W/m 1,0 C -3,8 C 29,0 km/h (5 Bft) 97,87 %
10.12.2018 13:44 4,6 C 4,4 C 5,0 C 77 % 1016,9 hPa 0,0 l/m 21,6 km/h (4 Bft) W 267 0 min 0,000 mm 0,0 UV-I 135 W/m 0,9 C -4,3 C 35,4 km/h (5 Bft) 92,11 %
10.12.2018 13:46 4,6 C 4,4 C 5,6 C 77 % 1016,8 hPa 0,0 l/m 15,7 km/h (3 Bft) NW 304 0 min 0,000 mm 0,0 UV-I 129 W/m 0,9 C -1,8 C 22,5 km/h (4 Bft) 95,74 %
10.12.2018 13:48 4,6 C 4,4 C 5,0 C 77 % 1016,8 hPa 0,0 l/m 24,6 km/h (4 Bft) W 269 0 min 0,000 mm 0,0 UV-I 125 W/m 0,9 C -5,4 C 33,8 km/h (5 Bft) 98,00 %
10.12.2018 13:50 4,6 C 4,4 C 5,0 C 77 % 1016,8 hPa 0,0 l/m 22,2 km/h (4 Bft) W 260 0 min 0,000 mm 0,0 UV-I 121 W/m 0,9 C -4,5 C 33,8 km/h (5 Bft) 97,87 %
10.12.2018 13:52 4,6 C 4,4 C 5,0 C 77 % 1016,8 hPa 0,0 l/m 18,8 km/h (3 Bft) W-SW 256 0 min 0,000 mm 0,0 UV-I 116 W/m 0,9 C -3,2 C 27,4 km/h (4 Bft) 98,00 %
10.12.2018 13:54 4,6 C 4,4 C 5,0 C 77 % 1016,8 hPa 0,0 l/m 20,6 km/h (4 Bft) W 277 0 min 0,000 mm 0,0 UV-I 111 W/m 0,9 C -3,9 C 29,0 km/h (5 Bft) 95,74 %
10.12.2018 13:56 4,6 C 4,4 C 5,0 C 77 % 1016,8 hPa 0,0 l/m 22,3 km/h (4 Bft) W-NW 284 0 min 0,000 mm 0,0 UV-I 114 W/m 0,9 C -4,6 C 33,8 km/h (5 Bft) 94,87 %
10.12.2018 13:58 4,6 C 4,4 C 5,0 C 77 % 1016,8 hPa 0,0 l/m 20,9 km/h (4 Bft) W 266 0 min 0,000 mm 0,0 UV-I 118 W/m 0,9 C -4,0 C 30,6 km/h (5 Bft) 97,87 %
10.12.2018 14:00 4,6 C 4,4 C 5,0 C 77 % 1016,8 hPa 0,0 l/m 21,8 km/h (4 Bft) W-SW 251 0 min 0,000 mm 0,0 UV-I 121 W/m 0,9 C -4,4 C 32,2 km/h (5 Bft) 97,87 %
10.12.2018 14:02 4,6 C 4,4 C 5,0 C 77 % 1016,8 hPa 0,0 l/m 22,9 km/h (4 Bft) W 270 0 min 0,101 mm 0,0 UV-I 120 W/m 0,9 C -4,8 C 35,4 km/h (5 Bft) 95,74 %
10.12.2018 14:04 4,6 C 4,4 C 5,0 C 77 % 1016,7 hPa 0,0 l/m 21,5 km/h (4 Bft) W 263 0 min 0,000 mm 0,0 UV-I 125 W/m 0,9 C -4,3 C 41,8 km/h (6 Bft) 93,62 %
10.12.2018 14:06 4,6 C 4,4 C 5,0 C 77 % 1016,7 hPa 0,0 l/m 17,8 km/h (3 Bft) W-SW 250 0 min 0,000 mm 0,0 UV-I 122 W/m 0,9 C -2,8 C 27,4 km/h (4 Bft) 98,00 %
10.12.2018 14:08 4,6 C 4,4 C 5,0 C 77 % 1016,8 hPa 0,0 l/m 19,2 km/h (3 Bft) W 268 0 min 0,000 mm 0,0 UV-I 119 W/m 0,9 C -3,4 C 29,0 km/h (5 Bft) 100,00 %
10.12.2018 14:10 4,6 C 4,4 C 5,0 C 77 % 1016,8 hPa 0,0 l/m 19,3 km/h (3 Bft) W-SW 257 0 min 0,000 mm 0,0 UV-I 117 W/m 0,9 C -3,4 C 29,0 km/h (5 Bft) 97,87 %
10.12.2018 14:12 4,6 C 4,4 C 5,6 C 77 % 1016,8 hPa 0,0 l/m 17,5 km/h (3 Bft) W 281 0 min 0,000 mm 0,0 UV-I 121 W/m 0,9 C -2,6 C 41,8 km/h (6 Bft) 96,00 %
10.12.2018 14:14 4,6 C 4,4 C 5,0 C 77 % 1016,8 hPa 0,0 l/m 30,8 km/h (5 Bft) W 265 0 min 0,000 mm 0,0 UV-I 109 W/m 0,9 C -7,1 C 43,5 km/h (6 Bft) 93,62 %
10.12.2018 14:16 4,6 C 4,4 C 5,0 C 76 % 1016,8 hPa 0,0 l/m 27,5 km/h (4 Bft) W-SW 256 0 min 0,000 mm 0,0 UV-I 89 W/m 0,7 C -6,2 C 38,6 km/h (5 Bft) 91,49 %
10.12.2018 14:18 4,6 C 4,4 C 5,6 C 77 % 1016,8 hPa 0,0 l/m 26,0 km/h (4 Bft) W 273 2 min 0,000 mm 0,0 UV-I 135 W/m 0,9 C -5,8 C 45,1 km/h (6 Bft) 97,37 %
10.12.2018 14:20 4,7 C 4,4 C 5,6 C 77 % 1016,8 hPa 0,0 l/m 17,3 km/h (3 Bft) W-SW 253 2 min 0,000 mm 0,0 UV-I 201 W/m 1,0 C -2,4 C 30,6 km/h (5 Bft) 94,00 %
10.12.2018 14:22 4,7 C 4,4 C 6,1 C 77 % 1016,8 hPa 0,0 l/m 21,6 km/h (4 Bft) W 279 2 min 0,000 mm 0,0 UV-I 204 W/m 1,0 C -4,2 C 38,6 km/h (5 Bft) 97,22 %
10.12.2018 14:24 4,8 C 4,4 C 6,1 C 77 % 1016,7 hPa 0,0 l/m 21,0 km/h (4 Bft) W 259 2 min 0,000 mm 0,0 UV-I 175 W/m 1,1 C -3,8 C 32,2 km/h (5 Bft) 89,06 %
10.12.2018 14:26 4,8 C 4,4 C 5,6 C 77 % 1016,9 hPa 0,0 l/m 20,7 km/h (4 Bft) W-NW 282 2 min 0,000 mm 0,0 UV-I 114 W/m 1,1 C -3,7 C 32,2 km/h (5 Bft) 95,74 %
10.12.2018 14:28 4,8 C 4,4 C 5,6 C 77 % 1016,7 hPa 0,0 l/m 23,7 km/h (4 Bft) W-NW 290 0 min 0,000 mm 0,0 UV-I 97 W/m 1,1 C -4,8 C 35,4 km/h (5 Bft) 93,62 %
10.12.2018 14:30 4,7 C 4,4 C 5,0 C 77 % 1016,8 hPa 0,0 l/m 20,4 km/h (4 Bft) W 272 0 min 0,000 mm 0,0 UV-I 85 W/m 1,0 C -3,7 C 29,0 km/h (5 Bft) 92,31 %
10.12.2018 14:32 4,7 C 4,4 C 5,0 C 77 % 1016,7 hPa 0,0 l/m 17,1 km/h (3 Bft) W-SW 252 0 min 0,000 mm 0,0 UV-I 75 W/m 1,0 C -2,3 C 24,1 km/h (4 Bft) 95,74 %
10.12.2018 14:34 4,7 C 4,4 C 4,4 C 77 % 1016,8 hPa 0,0 l/m 19,9 km/h (4 Bft) W 262 0 min 0,000 mm 0,0 UV-I 56 W/m 1,0 C -3,5 C 41,8 km/h (6 Bft) 95,74 %
10.12.2018 14:36 4,7 C 4,4 C 4,4 C 77 % 1016,7 hPa 0,0 l/m 23,8 km/h (4 Bft) W 269 0 min 0,000 mm 0,0 UV-I 45 W/m 1,0 C -5,0 C 41,8 km/h (6 Bft) 95,74 %
10.12.2018 14:38 4,6 C 4,4 C 4,4 C 77 % 1016,7 hPa 0,0 l/m 20,5 km/h (4 Bft) W 275 0 min 0,000 mm 0,0 UV-I 40 W/m 0,9 C -3,9 C 37,0 km/h (5 Bft) 97,87 %
10.12.2018 14:40 4,6 C 4,4 C 4,4 C 77 % 1016,7 hPa 0,0 l/m 23,0 km/h (4 Bft) W-NW 299 0 min 0,000 mm 0,0 UV-I 35 W/m 0,9 C -4,8 C 38,6 km/h (5 Bft) 93,62 %
10.12.2018 14:42 4,6 C 4,4 C 4,4 C 77 % 1016,7 hPa 0,0 l/m 18,0 km/h (3 Bft) W 269 0 min 0,000 mm 0,0 UV-I 32 W/m 0,9 C -2,8 C 29,0 km/h (5 Bft) 97,37 %
10.12.2018 14:44 4,6 C 4,4 C 4,4 C 77 % 1016,7 hPa 0,0 l/m 16,6 km/h (3 Bft) W-NW 300 0 min 0,000 mm 0,0 UV-I 33 W/m 0,9 C -2,2 C 25,7 km/h (4 Bft) 98,39 %
10.12.2018 14:46 4,5 C 4,4 C 4,4 C 77 % 1016,6 hPa 0,0 l/m 20,1 km/h (4 Bft) W 259 0 min 0,000 mm 0,0 UV-I 35 W/m 0,8 C -3,9 C 35,4 km/h (5 Bft) 97,37 %
10.12.2018 14:48 4,5 C 4,4 C 4,4 C 77 % 1016,7 hPa 0,0 l/m 23,6 km/h (4 Bft) W 259 0 min 0,000 mm 0,0 UV-I 37 W/m 0,8 C -5,2 C 40,2 km/h (6 Bft) 97,87 %
10.12.2018 14:50 4,5 C 4,4 C 4,4 C 77 % 1016,7 hPa 0,0 l/m 19,2 km/h (3 Bft) W-SW 241 0 min 0,000 mm 0,0 UV-I 35 W/m 0,8 C -3,5 C 24,1 km/h (4 Bft) 97,87 %
10.12.2018 14:52 4,5 C 4,4 C 4,4 C 77 % 1016,7 hPa 0,0 l/m 20,6 km/h (4 Bft) SW 222 0 min 0,000 mm 0,0 UV-I 34 W/m 0,8 C -4,1 C 27,4 km/h (4 Bft) 96,23 %
10.12.2018 14:54 4,5 C 4,4 C 4,4 C 77 % 1016,9 hPa 0,0 l/m 24,0 km/h (4 Bft) W 276 0 min 0,000 mm 0,0 UV-I 33 W/m 0,8 C -5,3 C 45,1 km/h (6 Bft) 93,62 %
10.12.2018 14:56 4,5 C 4,4 C 4,4 C 77 % 1016,7 hPa 0,0 l/m 25,3 km/h (4 Bft) W-SW 245 0 min 0,000 mm 0,0 UV-I 30 W/m 0,8 C -5,7 C 38,6 km/h (5 Bft) 95,74 %
10.12.2018 14:58 4,6 C 4,4 C 4,4 C 77 % 1016,9 hPa 0,0 l/m 21,2 km/h (4 Bft) W 279 0 min 0,000 mm 0,0 UV-I 25 W/m 0,9 C -4,2 C 29,0 km/h (5 Bft) 95,12 %
10.12.2018 15:00 4,5 C 4,4 C 4,4 C 78 % 1016,8 hPa 0,0 l/m 21,3 km/h (4 Bft) W 259 0 min 0,076 mm 0,0 UV-I 21 W/m 1,0 C -4,3 C 27,4 km/h (4 Bft) 97,87 %
10.12.2018 15:02 4,5 C 4,4 C 4,4 C 77 % 1016,8 hPa 0,0 l/m 25,7 km/h (4 Bft) W-NW 287 0 min 0,000 mm 0,0 UV-I 19 W/m 0,8 C -5,8 C 40,2 km/h (6 Bft) 97,87 %
10.12.2018 15:04 4,4 C 4,4 C 4,4 C 77 % 1016,7 hPa 0,0 l/m 23,1 km/h (4 Bft) W 261 0 min 0,000 mm 0,0 UV-I 19 W/m 0,7 C -5,1 C 30,6 km/h (5 Bft) 100,00 %
10.12.2018 15:06 4,4 C 4,4 C 4,4 C 77 % 1016,7 hPa 0,0 l/m 20,5 km/h (4 Bft) W 279 0 min 0,000 mm 0,0 UV-I 18 W/m 0,7 C -4,1 C 32,2 km/h (5 Bft) 97,87 %
10.12.2018 15:08 4,4 C 4,4 C 4,4 C 77 % 1016,8 hPa 0,0 l/m 20,3 km/h (4 Bft) W 268 0 min 0,000 mm 0,0 UV-I 18 W/m 0,7 C -4,1 C 37,0 km/h (5 Bft) 100,00 %
10.12.2018 15:10 4,4 C 4,4 C 3,9 C 77 % 1016,8 hPa 0,0 l/m 27,4 km/h (4 Bft) NW 326 0 min 0,000 mm 0,0 UV-I 15 W/m 0,7 C -6,5 C 38,6 km/h (5 Bft) 100,00 %
10.12.2018 15:12 4,3 C 4,4 C 3,9 C 78 % 1016,9 hPa 0,0 l/m 33,5 km/h (5 Bft) W 268 0 min 0,000 mm 0,0 UV-I 11 W/m 0,8 C -8,2 C 53,1 km/h (7 Bft) 100,00 %
10.12.2018 15:14 4,1 C 4,4 C 3,3 C 79 % 1017,0 hPa 0,0 l/m 29,2 km/h (5 Bft) W 268 0 min 0,000 mm 0,0 UV-I 8 W/m 0,8 C -7,4 C 46,7 km/h (6 Bft) 100,00 %
10.12.2018 15:16 3,7 C 4,4 C 2,8 C 81 % 1016,9 hPa 0,0 l/m 25,9 km/h (4 Bft) W 269 0 min 0,000 mm 0,0 UV-I 10 W/m 0,7 C -7,0 C 40,2 km/h (6 Bft) 100,00 %
10.12.2018 15:18 3,3 C 4,4 C 2,2 C 82 % 1017,0 hPa 0,0 l/m 21,8 km/h (4 Bft) W 269 0 min 0,000 mm 0,0 UV-I 12 W/m 0,5 C -6,1 C 35,4 km/h (5 Bft) 100,00 %
10.12.2018 15:20 3,0 C 4,4 C 2,2 C 84 % 1016,9 hPa 0,0 l/m 20,5 km/h (4 Bft) W-SW 257 0 min 0,000 mm 0,0 UV-I 12 W/m 0,6 C -6,0 C 33,8 km/h (5 Bft) 100,00 %
10.12.2018 15:22 2,8 C 4,4 C 2,2 C 86 % 1016,9 hPa 0,0 l/m 16,3 km/h (3 Bft) W-SW 250 0 min 0,000 mm 0,0 UV-I 7 W/m 0,7 C -4,3 C 25,7 km/h (4 Bft) 100,00 %
10.12.2018 15:24 2,6 C 4,4 C 2,2 C 87 % 1017,1 hPa 0,0 l/m 14,2 km/h (3 Bft) W 261 0 min 0,000 mm 0,0 UV-I 7 W/m 0,7 C -3,4 C 25,7 km/h (4 Bft) 100,00 %
10.12.2018 15:26 2,5 C 4,4 C 1,7 C 88 % 1017,1 hPa 0,0 l/m 13,0 km/h (3 Bft) W-SW 253 0 min 0,000 mm 0,0 UV-I 8 W/m 0,7 C -2,8 C 20,9 km/h (4 Bft) 97,87 %
10.12.2018 15:28 2,3 C 4,4 C 1,1 C 88 % 1017,1 hPa 0,0 l/m 10,9 km/h (2 Bft) W 262 0 min 0,000 mm 0,0 UV-I 11 W/m 0,5 C -1,6 C 19,3 km/h (3 Bft) 97,87 %
10.12.2018 15:30 2,2 C 4,4 C 1,1 C 89 % 1017,0 hPa 0,2 l/m 13,4 km/h (3 Bft) W 269 0 min 0,000 mm 0,0 UV-I 11 W/m 0,6 C -3,4 C 20,9 km/h (4 Bft) 95,74 %
10.12.2018 15:32 2,1 C 4,4 C 1,1 C 89 % 1017,1 hPa 0,0 l/m 10,3 km/h (2 Bft) NW 315 0 min 0,000 mm 0,0 UV-I 9 W/m 0,5 C -1,4 C 20,9 km/h (4 Bft) 95,74 %
10.12.2018 15:34 2,0 C 4,4 C 1,1 C 90 % 1017,2 hPa 0,0 l/m 10,8 km/h (2 Bft) W-NW 292 0 min 0,000 mm 0,0 UV-I 6 W/m 0,5 C -1,8 C 22,5 km/h (4 Bft) 96,00 %
10.12.2018 15:36 2,0 C 4,4 C 1,1 C 91 % 1017,2 hPa 0,2 l/m 11,1 km/h (2 Bft) NW 315 0 min 0,000 mm 0,0 UV-I 5 W/m 0,7 C -2,1 C 16,1 km/h (3 Bft) 94,29 %
10.12.2018 15:38 1,9 C 4,4 C 1,1 C 91 % 1017,4 hPa 0,0 l/m 12,9 km/h (3 Bft) W-NW 284 0 min 0,000 mm 0,0 UV-I 0 W/m 0,6 C -3,4 C 17,7 km/h (3 Bft) 98,00 %
10.12.2018 15:40 1,7 C 4,4 C 0,0 C 91 % 1017,5 hPa 0,0 l/m 19,7 km/h (3 Bft) W-NW 288 0 min 0,000 mm 0,0 UV-I 0 W/m 0,4 C -7,3 C 30,6 km/h (5 Bft) 97,87 %
10.12.2018 15:42 1,4 C 4,4 C 0,0 C 90 % 1017,4 hPa 0,0 l/m 17,4 km/h (3 Bft) W 279 0 min 0,000 mm 0,0 UV-I 5 W/m -0,1 C -6,6 C 37,0 km/h (5 Bft) 95,74 %
10.12.2018 15:44 1,2 C 4,4 C 0,0 C 91 % 1017,6 hPa 0,0 l/m 19,0 km/h (3 Bft) W 264 0 min 0,000 mm 0,0 UV-I 5 W/m -0,1 C -7,6 C 32,2 km/h (5 Bft) 95,83 %
10.12.2018 15:46 0,9 C 4,4 C 0,0 C 91 % 1017,5 hPa 0,0 l/m 12,3 km/h (3 Bft) W-NW 288 0 min 0,000 mm 0,0 UV-I 5 W/m -0,4 C -4,2 C 20,9 km/h (4 Bft) 95,74 %
10.12.2018 15:48 0,8 C 4,4 C 0,0 C 91 % 1017,5 hPa 0,0 l/m 15,1 km/h (3 Bft) W 281 0 min 0,000 mm 0,0 UV-I 5 W/m -0,5 C -6,1 C 25,7 km/h (4 Bft) 98,00 %
10.12.2018 15:50 0,7 C 4,4 C 0,0 C 92 % 1017,6 hPa 0,0 l/m 14,2 km/h (3 Bft) W 263 0 min 0,000 mm 0,0 UV-I 5 W/m -0,4 C -5,7 C 27,4 km/h (4 Bft) 100,00 %
10.12.2018 15:52 0,7 C 4,4 C 0,0 C 92 % 1017,5 hPa 0,0 l/m 17,4 km/h (3 Bft) W-NW 303 0 min 0,000 mm 0,0 UV-I 5 W/m -0,4 C -7,5 C 27,4 km/h (4 Bft) 95,74 %
10.12.2018 15:54 0,6 C 4,4 C 0,0 C 93 % 1017,5 hPa 0,0 l/m 20,1 km/h (4 Bft) W 272 0 min 0,000 mm 0,0 UV-I 5 W/m -0,4 C -8,9 C 38,6 km/h (5 Bft) 97,87 %
10.12.2018 15:56 0,6 C 4,4 C 0,0 C 93 % 1017,3 hPa 0,0 l/m 18,9 km/h (3 Bft) W-SW 248 0 min 0,000 mm 0,0 UV-I 5 W/m -0,4 C -8,3 C 27,4 km/h (4 Bft) 96,00 %
10.12.2018 15:58 0,6 C 4,4 C 0,0 C 93 % 1017,3 hPa 0,0 l/m 14,9 km/h (3 Bft) W 280 0 min 0,000 mm 0,0 UV-I 5 W/m -0,4 C -6,2 C 27,4 km/h (4 Bft) 100,00 %
10.12.2018 16:00 0,6 C 4,4 C 0,0 C 93 % 1017,2 hPa 0,0 l/m 19,8 km/h (3 Bft) SW 229 0 min 0,026 mm 0,0 UV-I 6 W/m -0,4 C -8,8 C 30,6 km/h (5 Bft) 100,00 %
10.12.2018 16:02 0,6 C 4,4 C 0,0 C 93 % 1017,2 hPa 0,0 l/m 15,7 km/h (3 Bft) W-NW 292 0 min 0,000 mm 0,0 UV-I 7 W/m -0,4 C -6,7 C 20,9 km/h (4 Bft) 95,74 %
10.12.2018 16:04 0,6 C 4,4 C 0,0 C 94 % 1017,2 hPa 0,0 l/m 18,9 km/h (3 Bft) W 275 0 min 0,000 mm 0,0 UV-I 7 W/m -0,3 C -8,3 C 29,0 km/h (5 Bft) 97,87 %
10.12.2018 16:06 0,7 C 4,4 C 0,0 C 94 % 1017,3 hPa 0,0 l/m 18,8 km/h (3 Bft) W 265 0 min 0,000 mm 0,0 UV-I 7 W/m -0,2 C -8,2 C 24,1 km/h (4 Bft) 95,74 %
10.12.2018 16:08 0,7 C 4,4 C 0,0 C 94 % 1017,3 hPa 0,0 l/m 17,3 km/h (3 Bft) W-NW 282 0 min 0,000 mm 0,0 UV-I 7 W/m -0,2 C -7,4 C 25,7 km/h (4 Bft) 100,00 %
10.12.2018 16:10 0,7 C 4,4 C 0,0 C 94 % 1017,3 hPa 0,0 l/m 15,1 km/h (3 Bft) W-NW 286 0 min 0,000 mm 0,0 UV-I 7 W/m -0,2 C -6,2 C 25,7 km/h (4 Bft) 98,00 %
10.12.2018 16:12 0,7 C 4,4 C 0,0 C 94 % 1017,2 hPa 0,0 l/m 18,4 km/h (3 Bft) W-NW 301 0 min 0,000 mm 0,0 UV-I 7 W/m -0,2 C -8,0 C 27,4 km/h (4 Bft) 97,87 %
10.12.2018 16:14 0,8 C 4,4 C 0,0 C 94 % 1017,2 hPa 0,0 l/m 13,8 km/h (3 Bft) W 281 0 min 0,000 mm 0,0 UV-I 7 W/m -0,1 C -5,3 C 19,3 km/h (3 Bft) 97,87 %
10.12.2018 16:16 0,7 C 4,4 C 0,0 C 94 % 1017,2 hPa 0,0 l/m 13,3 km/h (3 Bft) W-NW 282 0 min 0,000 mm 0,0 UV-I 5 W/m -0,2 C -5,1 C 17,7 km/h (3 Bft) 100,00 %
10.12.2018 16:18 0,7 C 4,4 C 0,0 C 94 % 1017,2 hPa 0,0 l/m 15,0 km/h (3 Bft) W 279 0 min 0,000 mm 0,0 UV-I 5 W/m -0,2 C -6,1 C 19,3 km/h (3 Bft) 100,00 %
10.12.2018 16:20 0,8 C 4,4 C 0,0 C 94 % 1017,2 hPa 0,0 l/m 19,4 km/h (3 Bft) W-SW 252 0 min 0,000 mm 0,0 UV-I 5 W/m -0,1 C -8,3 C 29,0 km/h (5 Bft) 100,00 %
10.12.2018 16:22 0,8 C 4,4 C 0,0 C 94 % 1017,3 hPa 0,0 l/m 10,0 km/h (2 Bft) W-NW 298 0 min 0,000 mm 0,0 UV-I 5 W/m -0,1 C -2,6 C 16,1 km/h (3 Bft) 100,00 %
10.12.2018 16:24 0,8 C 4,4 C 0,0 C 94 % 1017,3 hPa 0,0 l/m 12,5 km/h (3 Bft) W 280 0 min 0,000 mm 0,0 UV-I 5 W/m -0,1 C -4,4 C 19,3 km/h (3 Bft) 100,00 %
10.12.2018 16:26 0,8 C 4,4 C 0,0 C 94 % 1017,4 hPa 0,0 l/m 12,8 km/h (3 Bft) W 267 0 min 0,000 mm 0,0 UV-I 3 W/m -0,1 C -4,6 C 17,7 km/h (3 Bft) 97,92 %
10.12.2018 16:28 0,8 C 4,4 C 0,0 C 94 % 1017,4 hPa 0,0 l/m 11,6 km/h (2 Bft) W 279 0 min 0,000 mm 0,0 UV-I 0 W/m -0,1 C -3,8 C 17,7 km/h (3 Bft) 97,87 %
10.12.2018 16:30 0,8 C 4,4 C 0,0 C 94 % 1017,4 hPa 0,0 l/m 11,2 km/h (2 Bft) W 267 0 min 0,000 mm 0,0 UV-I 0 W/m -0,1 C -3,5 C 17,7 km/h (3 Bft) 100,00 %
10.12.2018 16:32 0,8 C 4,4 C 0,0 C 94 % 1017,4 hPa 0,0 l/m 9,8 km/h (2 Bft) W 259 0 min 0,000 mm 0,0 UV-I 0 W/m -0,1 C -2,4 C 12,9 km/h (3 Bft) 95,74 %
10.12.2018 16:34 0,8 C 4,4 C 0,0 C 94 % 1017,4 hPa 0,0 l/m 13,4 km/h (3 Bft) W 259 0 min 0,000 mm 0,0 UV-I 0 W/m -0,1 C -5,0 C 19,3 km/h (3 Bft) 93,62 %
10.12.2018 16:36 0,8 C 4,4 C 0,0 C 94 % 1017,4 hPa 0,0 l/m 13,4 km/h (3 Bft) W 261 0 min 0,000 mm 0,0 UV-I 0 W/m -0,1 C -5,0 C 19,3 km/h (3 Bft) 97,87 %
10.12.2018 16:38 0,8 C 4,4 C 0,0 C 94 % 1017,5 hPa 0,0 l/m 10,6 km/h (2 Bft) W 269 0 min 0,000 mm 0,0 UV-I 0 W/m -0,1 C -3,0 C 14,5 km/h (3 Bft) 95,74 %
10.12.2018 16:40 0,8 C 4,4 C 0,0 C 94 % 1017,5 hPa 0,0 l/m 11,8 km/h (2 Bft) W 270 0 min 0,000 mm 0,0 UV-I 0 W/m -0,1 C -3,9 C 16,1 km/h (3 Bft) 98,00 %
10.12.2018 16:42 0,8 C 4,4 C 0,0 C 94 % 1017,6 hPa 0,0 l/m 11,6 km/h (2 Bft) W-SW 252 0 min 0,000 mm 0,0 UV-I 0 W/m -0,1 C -3,8 C 14,5 km/h (3 Bft) 92,11 %
10.12.2018 16:44 0,8 C 4,4 C 0,0 C 94 % 1017,6 hPa 0,0 l/m 11,6 km/h (2 Bft) W 271 0 min 0,000 mm 0,0 UV-I 0 W/m -0,1 C -3,8 C 17,7 km/h (3 Bft) 95,74 %
10.12.2018 16:46 0,8 C 4,4 C 0,0 C 94 % 1017,6 hPa 0,0 l/m 8,6 km/h (2 Bft) W-SW 253 0 min 0,000 mm 0,0 UV-I 0 W/m -0,1 C -1,4 C 14,5 km/h (3 Bft) 96,00 %
10.12.2018 16:48 0,8 C 4,4 C 0,0 C 94 % 1017,6 hPa 0,0 l/m 11,6 km/h (2 Bft) W 266 0 min 0,000 mm 0,0 UV-I 0 W/m -0,1 C -3,8 C 17,7 km/h (3 Bft) 94,00 %
10.12.2018 16:50 0,8 C 4,4 C 0,0 C 94 % 1017,7 hPa 0,0 l/m 14,1 km/h (3 Bft) W-SW 257 0 min 0,000 mm 0,0 UV-I 0 W/m -0,1 C -5,5 C 19,3 km/h (3 Bft) 95,74 %
10.12.2018 16:52 0,8 C 4,4 C 0,0 C 94 % 1017,7 hPa 0,0 l/m 11,1 km/h (2 Bft) W 261 0 min 0,000 mm 0,0 UV-I 0 W/m -0,1 C -3,4 C 14,5 km/h (3 Bft) 95,74 %
10.12.2018 16:54 0,8 C 4,4 C 0,0 C 94 % 1017,7 hPa 0,0 l/m 12,9 km/h (3 Bft) W-SW 249 0 min 0,000 mm 0,0 UV-I 0 W/m -0,1 C -4,7 C 20,9 km/h (4 Bft) 94,00 %
10.12.2018 16:56 0,8 C 4,4 C 0,0 C 94 % 1017,8 hPa 0,0 l/m 9,9 km/h (2 Bft) W 280 0 min 0,000 mm 0,0 UV-I 0 W/m -0,1 C -2,5 C 17,7 km/h (3 Bft) 91,49 %
10.12.2018 16:58 0,8 C 4,4 C 0,0 C 94 % 1017,8 hPa 0,0 l/m 12,7 km/h (3 Bft) W-NW 292 0 min 0,000 mm 0,0 UV-I 0 W/m -0,1 C -4,6 C 20,9 km/h (4 Bft) 94,44 %
10.12.2018 17:00 0,9 C 4,4 C 0,0 C 94 % 1017,8 hPa 0,0 l/m 8,9 km/h (2 Bft) W 266 0 min 0,000 mm 0,0 UV-I 0 W/m 0,0 C -1,5 C 12,9 km/h (3 Bft) 93,62 %
10.12.2018 17:02 0,9 C 4,4 C 0,0 C 94 % 1017,8 hPa 0,0 l/m 11,8 km/h (2 Bft) W-SW 257 0 min 0,000 mm 0,0 UV-I 0 W/m 0,0 C -3,8 C 17,7 km/h (3 Bft) 94,00 %
10.12.2018 17:04 0,9 C 4,4 C 0,0 C 94 % 1017,8 hPa 0,0 l/m 10,6 km/h (2 Bft) W-SW 253 0 min 0,000 mm 0,0 UV-I 0 W/m 0,0 C -2,9 C 14,5 km/h (3 Bft) 94,34 %
10.12.2018 17:06 1,0 C 4,4 C 0,0 C 94 % 1017,8 hPa 0,0 l/m 11,6 km/h (2 Bft) W-SW 251 0 min 0,000 mm 0,0 UV-I 0 W/m 0,1 C -3,6 C 16,1 km/h (3 Bft) 97,87 %
10.12.2018 17:08 1,1 C 4,4 C 0,0 C 94 % 1017,8 hPa 0,0 l/m 9,6 km/h (2 Bft) W-NW 288 0 min 0,000 mm 0,0 UV-I 0 W/m 0,2 C -1,9 C 12,9 km/h (3 Bft) 97,87 %
10.12.2018 17:10 1,1 C 4,4 C 0,0 C 94 % 1017,8 hPa 0,0 l/m 7,9 km/h (2 Bft) W 273 0 min 0,000 mm 0,0 UV-I 0 W/m 0,2 C -0,4 C 11,3 km/h (2 Bft) 100,00 %
10.12.2018 17:12 1,1 C 4,4 C 0,0 C 93 % 1017,8 hPa 0,0 l/m 8,4 km/h (2 Bft) W 278 0 min 0,000 mm 0,0 UV-I 0 W/m 0,1 C -0,9 C 14,5 km/h (3 Bft) 97,87 %
10.12.2018 17:14 1,1 C 4,4 C 0,0 C 93 % 1017,8 hPa 0,0 l/m 6,5 km/h (2 Bft) W 261 0 min 0,000 mm 0,0 UV-I 0 W/m 0,1 C 1,0 C 11,3 km/h (2 Bft) 95,74 %
10.12.2018 17:16 1,1 C 4,4 C 0,0 C 93 % 1017,8 hPa 0,0 l/m 9,6 km/h (2 Bft) W 264 0 min 0,000 mm 0,0 UV-I 0 W/m 0,1 C -1,9 C 12,9 km/h (3 Bft) 98,00 %
10.12.2018 17:18 1,1 C 4,4 C 0,0 C 93 % 1017,8 hPa 0,0 l/m 9,2 km/h (2 Bft) W-SW 245 0 min 0,000 mm 0,0 UV-I 0 W/m 0,1 C -1,6 C 12,9 km/h (3 Bft) 97,87 %
10.12.2018 17:20 1,1 C 4,4 C 0,0 C 93 % 1017,7 hPa 0,0 l/m 6,9 km/h (2 Bft) SW 215 0 min 0,000 mm 0,0 UV-I 0 W/m 0,1 C 0,6 C 11,3 km/h (2 Bft) 100,00 %
10.12.2018 17:22 1,2 C 4,4 C 0,0 C 93 % 1017,7 hPa 0,0 l/m 6,7 km/h (2 Bft) W-SW 257 0 min 0,000 mm 0,0 UV-I 0 W/m 0,2 C 0,9 C 11,3 km/h (2 Bft) 100,00 %
10.12.2018 17:24 1,2 C 4,4 C 0,0 C 93 % 1017,8 hPa 0,0 l/m 5,1 km/h (1 Bft) W-NW 294 0 min 0,000 mm 0,0 UV-I 0 W/m 0,2 C 1,2 C 9,7 km/h (2 Bft) 100,00 %
10.12.2018 17:26 1,2 C 4,4 C 0,0 C 93 % 1017,8 hPa 0,0 l/m 4,0 km/h (1 Bft) W-NW 288 0 min 0,000 mm 0,0 UV-I 0 W/m 0,2 C 1,2 C 6,4 km/h (2 Bft) 95,74 %
10.12.2018 17:28 1,2 C 4,4 C 0,0 C 93 % 1017,8 hPa 0,0 l/m 4,6 km/h (1 Bft) W 279 0 min 0,000 mm 0,0 UV-I 0 W/m 0,2 C 1,2 C 6,4 km/h (2 Bft) 93,62 %
10.12.2018 17:30 1,1 C 4,4 C 0,0 C 93 % 1017,8 hPa 0,0 l/m 4,4 km/h (1 Bft) W 278 0 min 0,000 mm 0,0 UV-I 0 W/m 0,1 C 1,1 C 6,4 km/h (2 Bft) 97,87 %
10.12.2018 17:32 1,1 C 4,4 C 0,0 C 93 % 1017,7 hPa 0,0 l/m 4,5 km/h (1 Bft) W-SW 246 0 min 0,000 mm 0,0 UV-I 0 W/m 0,1 C 1,1 C 6,4 km/h (2 Bft) 97,87 %
10.12.2018 17:34 1,1 C 4,4 C 0,0 C 93 % 1017,8 hPa 0,0 l/m 6,3 km/h (2 Bft) W-SW 258 0 min 0,000 mm 0,0 UV-I 0 W/m 0,1 C 1,1 C 11,3 km/h (2 Bft) 95,74 %
10.12.2018 17:36 1,1 C 4,4 C 0,0 C 93 % 1017,8 hPa 0,0 l/m 5,3 km/h (1 Bft) W-SW 237 0 min 0,000 mm 0,0 UV-I 0 W/m 0,1 C 1,1 C 9,7 km/h (2 Bft) 97,87 %
10.12.2018 17:38 1,1 C 4,4 C 0,0 C 93 % 1017,8 hPa 0,0 l/m 6,7 km/h (2 Bft) W-SW 238 0 min 0,000 mm 0,0 UV-I 0 W/m 0,1 C 0,8 C 11,3 km/h (2 Bft) 97,87 %
10.12.2018 17:40 1,2 C 4,4 C 0,0 C 93 % 1017,8 hPa 0,0 l/m 6,0 km/h (2 Bft) W-SW 237 0 min 0,000 mm 0,0 UV-I 0 W/m 0,2 C 1,2 C 9,7 km/h (2 Bft) 97,44 %
10.12.2018 17:42 1,2 C 4,4 C 0,0 C 93 % 1017,8 hPa 0,0 l/m 8,9 km/h (2 Bft) SW 232 0 min 0,000 mm 0,0 UV-I 0 W/m 0,2 C -1,2 C 20,9 km/h (4 Bft) 98,00 %
10.12.2018 17:44 1,2 C 4,4 C 0,0 C 93 % 1017,8 hPa 0,0 l/m 14,4 km/h (3 Bft) SW 226 0 min 0,000 mm 0,0 UV-I 0 W/m 0,2 C -5,2 C 22,5 km/h (4 Bft) 97,87 %
10.12.2018 17:46 1,3 C 4,4 C 0,0 C 94 % 1017,8 hPa 0,0 l/m 17,8 km/h (3 Bft) W-SW 248 0 min 0,000 mm 0,0 UV-I 0 W/m 0,4 C -6,9 C 24,1 km/h (4 Bft) 96,00 %
10.12.2018 17:48 1,4 C 4,4 C 0,0 C 94 % 1017,8 hPa 0,0 l/m 16,4 km/h (3 Bft) W 271 0 min 0,000 mm 0,0 UV-I 0 W/m 0,5 C -6,1 C 33,8 km/h (5 Bft) 98,00 %
10.12.2018 17:50 1,5 C 4,4 C 0,0 C 94 % 1017,7 hPa 0,0 l/m 17,0 km/h (3 Bft) W 260 0 min 0,000 mm 0,0 UV-I 0 W/m 0,6 C -6,3 C 24,1 km/h (4 Bft) 93,62 %
10.12.2018 17:52 1,6 C 4,4 C 0,0 C 94 % 1017,7 hPa 0,0 l/m 18,2 km/h (3 Bft) W-SW 252 0 min 0,000 mm 0,0 UV-I 0 W/m 0,7 C -6,7 C 27,4 km/h (4 Bft) 97,87 %
10.12.2018 17:54 1,6 C 4,4 C 0,0 C 93 % 1017,7 hPa 0,0 l/m 20,9 km/h (4 Bft) W 271 0 min 0,000 mm 0,0 UV-I 0 W/m 0,6 C -8,0 C 33,8 km/h (5 Bft) 95,74 %
10.12.2018 17:56 1,6 C 4,4 C 0,0 C 93 % 1017,7 hPa 0,0 l/m 22,1 km/h (4 Bft) W 272 0 min 0,000 mm 0,0 UV-I 0 W/m 0,6 C -8,5 C 32,2 km/h (5 Bft) 95,74 %
10.12.2018 17:58 1,7 C 4,4 C 0,0 C 93 % 1017,7 hPa 0,0 l/m 16,0 km/h (3 Bft) W 262 0 min 0,000 mm 0,0 UV-I 0 W/m 0,7 C -5,5 C 24,1 km/h (4 Bft) 95,74 %
10.12.2018 18:00 1,7 C 4,4 C 0,0 C 93 % 1017,7 hPa 0,0 l/m 16,2 km/h (3 Bft) W-SW 254 0 min 0,000 mm 0,0 UV-I 0 W/m 0,7 C -5,6 C 24,1 km/h (4 Bft) 93,62 %
10.12.2018 18:02 1,7 C 4,4 C 0,0 C 93 % 1017,7 hPa 0,0 l/m 13,3 km/h (3 Bft) W 264 0 min 0,000 mm 0,0 UV-I 0 W/m 0,7 C -3,9 C 19,3 km/h (3 Bft) 97,14 %
10.12.2018 18:04 1,6 C 4,4 C 0,0 C 93 % 1017,7 hPa 0,0 l/m 14,0 km/h (3 Bft) W 272 0 min 0,000 mm 0,0 UV-I 0 W/m 0,6 C -4,5 C 20,9 km/h (4 Bft) 94,00 %
10.12.2018 18:06 1,6 C 4,4 C 0,0 C 93 % 1017,7 hPa 0,0 l/m 15,2 km/h (3 Bft) W-NW 285 0 min 0,000 mm 0,0 UV-I 0 W/m 0,6 C -5,2 C 20,9 km/h (4 Bft) 95,74 %
10.12.2018 18:08 1,6 C 4,4 C 0,0 C 93 % 1017,7 hPa 0,0 l/m 18,4 km/h (3 Bft) W 273 0 min 0,000 mm 0,0 UV-I 0 W/m 0,6 C -6,8 C 24,1 km/h (4 Bft) 93,62 %
10.12.2018 18:10 1,6 C 4,4 C 0,0 C 93 % 1017,7 hPa 0,0 l/m 13,5 km/h (3 Bft) W 270 0 min 0,000 mm 0,0 UV-I 0 W/m 0,6 C -4,1 C 22,5 km/h (4 Bft) 93,62 %
10.12.2018 18:12 1,6 C 4,4 C 0,0 C 93 % 1017,7 hPa 0,0 l/m 16,9 km/h (3 Bft) W-SW 244 0 min 0,000 mm 0,0 UV-I 0 W/m 0,6 C -6,1 C 22,5 km/h (4 Bft) 93,62 %
10.12.2018 18:14 1,6 C 4,4 C 0,0 C 93 % 1017,7 hPa 0,0 l/m 15,8 km/h (3 Bft) W-NW 289 0 min 0,000 mm 0,0 UV-I 0 W/m 0,6 C -5,5 C 22,5 km/h (4 Bft) 96,00 %
10.12.2018 18:16 1,6 C 4,4 C 0,0 C 93 % 1017,7 hPa 0,0 l/m 11,9 km/h (2 Bft) W-SW 254 0 min 0,000 mm 0,0 UV-I 0 W/m 0,6 C -3,1 C 17,7 km/h (3 Bft) 94,34 %
10.12.2018 18:18 1,6 C 4,4 C 0,0 C 93 % 1017,7 hPa 0,0 l/m 14,5 km/h (3 Bft) W 275 0 min 0,000 mm 0,0 UV-I 0 W/m 0,6 C -4,8 C 20,9 km/h (4 Bft) 94,44 %
10.12.2018 18:20 1,6 C 4,4 C 0,0 C 93 % 1017,7 hPa 0,0 l/m 15,3 km/h (3 Bft) W 274 0 min 0,000 mm 0,0 UV-I 0 W/m 0,6 C -5,2 C 20,9 km/h (4 Bft) 95,74 %
10.12.2018 18:22 1,6 C 4,4 C 0,0 C 93 % 1017,7 hPa 0,0 l/m 15,1 km/h (3 Bft) W 279 0 min 0,000 mm 0,0 UV-I 0 W/m 0,6 C -5,1 C 22,5 km/h (4 Bft) 93,62 %
10.12.2018 18:24 1,6 C 4,4 C 0,0 C 93 % 1017,8 hPa 0,2 l/m 18,1 km/h (3 Bft) W-SW 254 0 min 0,000 mm 0,0 UV-I 0 W/m 0,6 C -6,7 C 27,4 km/h (4 Bft) 95,74 %
10.12.2018 18:26 1,6 C 4,4 C 0,0 C 93 % 1017,9 hPa 0,0 l/m 16,3 km/h (3 Bft) W-SW 254 0 min 0,000 mm 0,0 UV-I 0 W/m 0,6 C -5,8 C 22,5 km/h (4 Bft) 97,87 %
10.12.2018 18:28 1,6 C 4,4 C 0,0 C 93 % 1017,8 hPa 0,0 l/m 14,8 km/h (3 Bft) W 281 0 min 0,000 mm 0,0 UV-I 0 W/m 0,6 C -4,9 C 25,7 km/h (4 Bft) 97,87 %
10.12.2018 18:30 1,6 C 4,4 C 0,0 C 92 % 1017,8 hPa 0,0 l/m 17,0 km/h (3 Bft) W 274 0 min 0,000 mm 0,0 UV-I 0 W/m 0,4 C -6,1 C 25,7 km/h (4 Bft) 97,87 %
10.12.2018 18:32 1,6 C 4,4 C 0,0 C 92 % 1017,8 hPa 0,0 l/m 15,9 km/h (3 Bft) W 269 0 min 0,000 mm 0,0 UV-I 0 W/m 0,4 C -5,5 C 25,7 km/h (4 Bft) 98,00 %
10.12.2018 18:34 1,6 C 4,4 C 0,0 C 92 % 1017,9 hPa 0,0 l/m 18,3 km/h (3 Bft) W-SW 242 0 min 0,000 mm 0,0 UV-I 0 W/m 0,4 C -6,8 C 22,5 km/h (4 Bft) 100,00 %
10.12.2018 18:36 1,6 C 4,4 C 0,0 C 92 % 1017,8 hPa 0,0 l/m 15,1 km/h (3 Bft) W-SW 253 0 min 0,000 mm 0,0 UV-I 0 W/m 0,4 C -5,1 C 25,7 km/h (4 Bft) 100,00 %
10.12.2018 18:38 1,5 C 4,4 C 0,0 C 92 % 1017,7 hPa 0,0 l/m 18,9 km/h (3 Bft) W 260 0 min 0,000 mm 0,0 UV-I 0 W/m 0,3 C -7,2 C 30,6 km/h (5 Bft) 100,00 %
10.12.2018 18:40 1,6 C 4,4 C 0,0 C 92 % 1017,7 hPa 0,0 l/m 13,9 km/h (3 Bft) W 265 0 min 0,000 mm 0,0 UV-I 0 W/m 0,4 C -4,4 C 19,3 km/h (3 Bft) 96,00 %
10.12.2018 18:42 1,5 C 4,4 C 0,0 C 92 % 1017,7 hPa 0,0 l/m 15,2 km/h (3 Bft) W 277 0 min 0,000 mm 0,0 UV-I 0 W/m 0,3 C -5,3 C 24,1 km/h (4 Bft) 97,87 %
10.12.2018 18:44 1,5 C 4,4 C 0,0 C 92 % 1017,6 hPa 0,0 l/m 16,6 km/h (3 Bft) W 261 0 min 0,000 mm 0,0 UV-I 0 W/m 0,3 C -6,0 C 24,1 km/h (4 Bft) 97,56 %
10.12.2018 18:46 1,5 C 4,4 C 0,0 C 92 % 1017,7 hPa 0,0 l/m 18,3 km/h (3 Bft) W 267 0 min 0,000 mm 0,0 UV-I 0 W/m 0,3 C -6,9 C 29,0 km/h (5 Bft) 98,00 %
10.12.2018 18:48 1,5 C 4,4 C 0,0 C 93 % 1017,7 hPa 0,0 l/m 11,4 km/h (2 Bft) W 270 0 min 0,000 mm 0,0 UV-I 0 W/m 0,5 C -2,9 C 17,7 km/h (3 Bft) 95,74 %
10.12.2018 18:50 1,5 C 4,4 C 0,0 C 93 % 1017,7 hPa 0,0 l/m 13,8 km/h (3 Bft) W 270 0 min 0,000 mm 0,0 UV-I 0 W/m 0,5 C -4,4 C 24,1 km/h (4 Bft) 97,87 %
10.12.2018 18:52 1,5 C 4,4 C 0,0 C 93 % 1017,7 hPa 0,0 l/m 12,0 km/h (2 Bft) W-SW 248 0 min 0,000 mm 0,0 UV-I 0 W/m 0,5 C -3,3 C 17,7 km/h (3 Bft) 97,87 %
10.12.2018 18:54 1,5 C 4,4 C 0,0 C 92 % 1017,8 hPa 0,0 l/m 11,2 km/h (2 Bft) W 276 0 min 0,000 mm 0,0 UV-I 0 W/m 0,3 C -2,7 C 16,1 km/h (3 Bft) 97,87 %
10.12.2018 18:56 1,5 C 4,4 C 0,0 C 93 % 1017,8 hPa 0,0 l/m 9,7 km/h (2 Bft) W 268 0 min 0,000 mm 0,0 UV-I 0 W/m 0,5 C -1,6 C 12,9 km/h (3 Bft) 96,00 %
10.12.2018 18:58 1,6 C 4,4 C 0,0 C 93 % 1017,7 hPa 0,0 l/m 12,0 km/h (2 Bft) W-SW 244 0 min 0,000 mm 0,0 UV-I 0 W/m 0,6 C -3,2 C 16,1 km/h (3 Bft) 100,00 %
10.12.2018 19:00 1,6 C 4,4 C 0,0 C 93 % 1017,7 hPa 0,0 l/m 10,1 km/h (2 Bft) SW 227 0 min 0,000 mm 0,0 UV-I 0 W/m 0,6 C -1,8 C 14,5 km/h (3 Bft) 96,23 %
10.12.2018 19:02 1,6 C 4,4 C 0,0 C 93 % 1017,6 hPa 0,0 l/m 8,3 km/h (2 Bft) W 265 0 min 0,000 mm 0,0 UV-I 0 W/m 0,6 C -0,2 C 12,9 km/h (3 Bft) 97,87 %
10.12.2018 19:04 1,6 C 4,4 C 0,0 C 92 % 1017,6 hPa 0,0 l/m 12,2 km/h (2 Bft) W-SW 246 0 min 0,000 mm 0,0 UV-I 0 W/m 0,4 C -3,3 C 17,7 km/h (3 Bft) 95,74 %
10.12.2018 19:06 1,7 C 4,4 C 0,0 C 93 % 1017,5 hPa 0,0 l/m 12,1 km/h (2 Bft) SW 227 0 min 0,000 mm 0,0 UV-I 0 W/m 0,7 C -3,1 C 16,1 km/h (3 Bft) 97,87 %
10.12.2018 19:08 1,7 C 4,4 C 0,0 C 92 % 1017,5 hPa 0,0 l/m 12,4 km/h (3 Bft) W-SW 257 0 min 0,000 mm 0,0 UV-I 0 W/m 0,5 C -3,3 C 20,9 km/h (4 Bft) 97,87 %
10.12.2018 19:10 1,8 C 4,4 C 0,0 C 92 % 1017,5 hPa 0,2 l/m 13,0 km/h (3 Bft) W 259 0 min 0,000 mm 0,0 UV-I 0 W/m 0,6 C -3,6 C 19,3 km/h (3 Bft) 96,00 %
10.12.2018 19:12 1,8 C 4,4 C 0,0 C 92 % 1017,5 hPa 0,0 l/m 10,3 km/h (2 Bft) W-SW 250 0 min 0,000 mm 0,0 UV-I 0 W/m 0,6 C -1,7 C 14,5 km/h (3 Bft) 100,00 %
10.12.2018 19:14 1,8 C 4,4 C 0,0 C 92 % 1017,4 hPa 0,0 l/m 12,3 km/h (3 Bft) SW 235 0 min 0,000 mm 0,0 UV-I 0 W/m 0,6 C -3,1 C 16,1 km/h (3 Bft) 95,74 %
10.12.2018 19:16 1,8 C 4,4 C 0,0 C 92 % 1017,4 hPa 0,0 l/m 14,8 km/h (3 Bft) W-SW 254 0 min 0,000 mm 0,0 UV-I 0 W/m 0,6 C -4,7 C 19,3 km/h (3 Bft) 94,00 %
10.12.2018 19:18 1,8 C 4,4 C 0,0 C 92 % 1017,4 hPa 0,0 l/m 9,5 km/h (2 Bft) W-SW 244 0 min 0,000 mm 0,0 UV-I 0 W/m 0,6 C -1,1 C 16,1 km/h (3 Bft) 96,00 %
10.12.2018 19:20 1,8 C 4,4 C 0,0 C 92 % 1017,5 hPa 0,0 l/m 12,2 km/h (2 Bft) W-SW 239 0 min 0,000 mm 0,0 UV-I 0 W/m 0,6 C -3,1 C 17,7 km/h (3 Bft) 96,00 %
10.12.2018 19:22 1,8 C 4,4 C 0,0 C 92 % 1017,4 hPa 0,0 l/m 13,4 km/h (3 Bft) SW 228 0 min 0,000 mm 0,0 UV-I 0 W/m 0,6 C -3,8 C 20,9 km/h (4 Bft) 95,74 %
10.12.2018 19:24 1,8 C 4,4 C 0,0 C 92 % 1017,4 hPa 0,0 l/m 11,4 km/h (2 Bft) W-SW 243 0 min 0,000 mm 0,0 UV-I 0 W/m 0,6 C -2,5 C 16,1 km/h (3 Bft) 97,87 %
10.12.2018 19:26 1,8 C 4,4 C 0,6 C 92 % 1017,4 hPa 0,0 l/m 12,4 km/h (3 Bft) W-SW 243 0 min 0,000 mm 0,0 UV-I 0 W/m 0,6 C -3,2 C 20,9 km/h (4 Bft) 95,74 %
10.12.2018 19:28 1,8 C 4,4 C 0,6 C 92 % 1017,3 hPa 0,0 l/m 14,7 km/h (3 Bft) W-SW 238 0 min 0,000 mm 0,0 UV-I 0 W/m 0,6 C -4,6 C 20,9 km/h (4 Bft) 97,87 %
10.12.2018 19:30 1,8 C 4,4 C 0,6 C 92 % 1017,3 hPa 0,0 l/m 14,0 km/h (3 Bft) W-SW 240 0 min 0,000 mm 0,0 UV-I 0 W/m 0,6 C -4,2 C 20,9 km/h (4 Bft) 97,87 %
10.12.2018 19:32 1,8 C 4,4 C 0,6 C 92 % 1017,3 hPa 0,0 l/m 13,8 km/h (3 Bft) W-SW 240 0 min 0,000 mm 0,0 UV-I 0 W/m 0,6 C -4,1 C 20,9 km/h (4 Bft) 95,12 %
10.12.2018 19:34 1,9 C 4,4 C 0,6 C 92 % 1017,2 hPa 0,0 l/m 14,6 km/h (3 Bft) W 261 0 min 0,000 mm 0,0 UV-I 0 W/m 0,7 C -4,4 C 24,1 km/h (4 Bft) 100,00 %
10.12.2018 19:36 1,9 C 4,4 C 0,6 C 92 % 1017,2 hPa 0,2 l/m 12,9 km/h (3 Bft) W-SW 252 0 min 0,000 mm 0,0 UV-I 0 W/m 0,7 C -3,4 C 20,9 km/h (4 Bft) 97,87 %
10.12.2018 19:38 1,9 C 4,4 C 0,6 C 92 % 1017,1 hPa 0,0 l/m 13,8 km/h (3 Bft) W-SW 242 0 min 0,000 mm 0,0 UV-I 0 W/m 0,7 C -4,0 C 22,5 km/h (4 Bft) 100,00 %
10.12.2018 19:40 1,9 C 4,4 C 0,6 C 92 % 1017,2 hPa 0,0 l/m 14,3 km/h (3 Bft) W-SW 251 0 min 0,000 mm 0,0 UV-I 0 W/m 0,7 C -4,3 C 19,3 km/h (3 Bft) 100,00 %
10.12.2018 19:42 2,0 C 4,4 C 0,6 C 92 % 1017,2 hPa 0,0 l/m 13,8 km/h (3 Bft) W 267 0 min 0,000 mm 0,0 UV-I 0 W/m 0,8 C -3,9 C 19,3 km/h (3 Bft) 98,00 %
10.12.2018 19:44 2,0 C 4,4 C 0,6 C 92 % 1017,1 hPa 0,0 l/m 15,1 km/h (3 Bft) W 276 0 min 0,000 mm 0,0 UV-I 0 W/m 0,8 C -4,6 C 20,9 km/h (4 Bft) 97,87 %
10.12.2018 19:46 2,0 C 4,4 C 0,6 C 92 % 1017,1 hPa 0,2 l/m 15,0 km/h (3 Bft) W 275 0 min 0,000 mm 0,0 UV-I 0 W/m 0,8 C -4,6 C 20,9 km/h (4 Bft) 100,00 %
10.12.2018 19:48 2,0 C 4,4 C 0,6 C 92 % 1017,0 hPa 0,0 l/m 14,4 km/h (3 Bft) W-SW 240 0 min 0,000 mm 0,0 UV-I 0 W/m 0,8 C -4,2 C 20,9 km/h (4 Bft) 97,87 %
10.12.2018 19:50 2,0 C 4,4 C 0,6 C 92 % 1016,9 hPa 0,0 l/m 13,0 km/h (3 Bft) W-SW 251 0 min 0,000 mm 0,0 UV-I 0 W/m 0,8 C -3,4 C 17,7 km/h (3 Bft) 95,74 %
10.12.2018 19:52 2,1 C 4,4 C 1,1 C 92 % 1017,0 hPa 0,0 l/m 12,6 km/h (3 Bft) W-SW 254 0 min 0,000 mm 0,0 UV-I 0 W/m 0,9 C -3,0 C 17,7 km/h (3 Bft) 96,00 %
10.12.2018 19:54 2,0 C 4,4 C 1,1 C 92 % 1016,9 hPa 0,0 l/m 13,2 km/h (3 Bft) W-SW 246 0 min 0,000 mm 0,0 UV-I 0 W/m 0,8 C -3,5 C 19,3 km/h (3 Bft) 97,87 %
10.12.2018 19:56 2,0 C 4,4 C 1,1 C 92 % 1017,0 hPa 0,2 l/m 14,5 km/h (3 Bft) W 261 0 min 0,000 mm 0,0 UV-I 0 W/m 0,8 C -4,3 C 20,9 km/h (4 Bft) 97,87 %
10.12.2018 19:58 2,1 C 4,4 C 1,1 C 92 % 1017,0 hPa 0,0 l/m 15,3 km/h (3 Bft) W 268 0 min 0,000 mm 0,0 UV-I 0 W/m 0,9 C -4,6 C 22,5 km/h (4 Bft) 98,00 %
10.12.2018 20:00 2,1 C 4,4 C 1,1 C 92 % 1016,8 hPa 0,0 l/m 18,9 km/h (3 Bft) SW 233 0 min 0,000 mm 0,0 UV-I 0 W/m 0,9 C -6,4 C 29,0 km/h (5 Bft) 100,00 %
10.12.2018 20:02 2,1 C 4,4 C 1,1 C 92 % 1016,8 hPa 0,0 l/m 20,0 km/h (4 Bft) SW 225 0 min 0,000 mm 0,0 UV-I 0 W/m 0,9 C -6,9 C 27,4 km/h (4 Bft) 100,00 %
10.12.2018 20:04 2,1 C 4,4 C 1,1 C 92 % 1016,8 hPa 0,2 l/m 17,1 km/h (3 Bft) W-SW 256 0 min 0,000 mm 0,0 UV-I 0 W/m 0,9 C -5,6 C 33,8 km/h (5 Bft) 100,00 %
10.12.2018 20:06 2,2 C 4,4 C 1,1 C 92 % 1016,7 hPa 0,0 l/m 22,1 km/h (4 Bft) SW 228 0 min 0,000 mm 0,0 UV-I 0 W/m 1,0 C -7,7 C 30,6 km/h (5 Bft) 100,00 %
10.12.2018 20:08 2,2 C 4,4 C 1,1 C 92 % 1016,7 hPa 0,0 l/m 19,2 km/h (3 Bft) SW 217 0 min 0,000 mm 0,0 UV-I 0 W/m 1,0 C -6,4 C 30,6 km/h (5 Bft) 100,00 %
10.12.2018 20:10 2,2 C 4,4 C 1,1 C 91 % 1016,6 hPa 0,0 l/m 20,4 km/h (4 Bft) W-SW 244 0 min 0,000 mm 0,0 UV-I 0 W/m 0,9 C -7,0 C 32,2 km/h (5 Bft) 97,87 %
10.12.2018 20:12 2,2 C 4,4 C 1,1 C 91 % 1016,6 hPa 0,0 l/m 17,0 km/h (3 Bft) W 262 0 min 0,000 mm 0,0 UV-I 0 W/m 0,9 C -5,4 C 25,7 km/h (4 Bft) 100,00 %
10.12.2018 20:14 2,2 C 4,4 C 1,1 C 91 % 1016,7 hPa 0,0 l/m 17,8 km/h (3 Bft) W 261 0 min 0,000 mm 0,0 UV-I 0 W/m 0,9 C -5,8 C 25,7 km/h (4 Bft) 98,00 %
10.12.2018 20:16 2,2 C 4,4 C 1,1 C 91 % 1016,7 hPa 0,0 l/m 17,3 km/h (3 Bft) SW 234 0 min 0,000 mm 0,0 UV-I 0 W/m 0,9 C -5,5 C 24,1 km/h (4 Bft) 97,44 %
10.12.2018 20:18 2,2 C 4,4 C 1,1 C 91 % 1016,7 hPa 0,0 l/m 19,5 km/h (3 Bft) W-SW 256 0 min 0,000 mm 0,0 UV-I 0 W/m 0,9 C -6,6 C 27,4 km/h (4 Bft) 100,00 %
10.12.2018 20:20 2,2 C 4,4 C 1,1 C 91 % 1016,7 hPa 0,0 l/m 17,1 km/h (3 Bft) W-SW 253 0 min 0,000 mm 0,0 UV-I 0 W/m 0,9 C -5,4 C 27,4 km/h (4 Bft) 93,62 %
10.12.2018 20:22 2,2 C 4,4 C 1,1 C 91 % 1016,7 hPa 0,2 l/m 18,4 km/h (3 Bft) S 188 0 min 0,000 mm 0,0 UV-I 0 W/m 0,9 C -6,1 C 27,4 km/h (4 Bft) 95,74 %
10.12.2018 20:24 2,2 C 4,4 C 1,1 C 91 % 1016,7 hPa 0,0 l/m 16,5 km/h (3 Bft) SW 216 0 min 0,000 mm 0,0 UV-I 0 W/m 0,9 C -5,1 C 22,5 km/h (4 Bft) 98,00 %
10.12.2018 20:26 2,2 C 4,4 C 1,1 C 91 % 1016,7 hPa 0,0 l/m 17,4 km/h (3 Bft) W-SW 246 0 min 0,000 mm 0,0 UV-I 0 W/m 0,9 C -5,6 C 25,7 km/h (4 Bft) 100,00 %
10.12.2018 20:28 2,3 C 4,4 C 1,1 C 91 % 1016,7 hPa 0,0 l/m 19,5 km/h (3 Bft) W-SW 246 0 min 0,000 mm 0,0 UV-I 0 W/m 1,0 C -6,4 C 29,0 km/h (5 Bft) 97,87 %
10.12.2018 20:30 2,3 C 4,4 C 1,1 C 91 % 1016,7 hPa 0,0 l/m 16,5 km/h (3 Bft) W 276 0 min 0,000 mm 0,0 UV-I 0 W/m 1,0 C -5,0 C 22,5 km/h (4 Bft) 97,37 %
10.12.2018 20:32 2,3 C 4,4 C 1,1 C 91 % 1016,7 hPa 0,0 l/m 16,8 km/h (3 Bft) W 265 0 min 0,000 mm 0,0 UV-I 0 W/m 1,0 C -5,2 C 22,5 km/h (4 Bft) 96,23 %
10.12.2018 20:34 2,3 C 4,4 C 1,1 C 91 % 1016,8 hPa 0,2 l/m 17,1 km/h (3 Bft) SW 218 0 min 0,000 mm 0,0 UV-I 0 W/m 1,0 C -5,3 C 25,7 km/h (4 Bft) 97,56 %
10.12.2018 20:36 2,3 C 4,4 C 1,1 C 91 % 1016,7 hPa 0,0 l/m 16,7 km/h (3 Bft) W-SW 250 0 min 0,000 mm 0,0 UV-I 0 W/m 1,0 C -5,1 C 24,1 km/h (4 Bft) 97,87 %
10.12.2018 20:38 2,3 C 4,4 C 1,1 C 91 % 1016,7 hPa 0,0 l/m 20,2 km/h (4 Bft) W-SW 240 0 min 0,000 mm 0,0 UV-I 0 W/m 1,0 C -6,7 C 33,8 km/h (5 Bft) 98,00 %
10.12.2018 20:40 2,3 C 4,4 C 1,1 C 91 % 1016,6 hPa 0,0 l/m 18,6 km/h (3 Bft) W 267 0 min 0,000 mm 0,0 UV-I 0 W/m 1,0 C -6,0 C 27,4 km/h (4 Bft) 97,87 %
10.12.2018 20:42 2,4 C 4,4 C 1,1 C 91 % 1016,8 hPa 0,0 l/m 14,7 km/h (3 Bft) SW 236 0 min 0,000 mm 0,0 UV-I 0 W/m 1,1 C -3,9 C 20,9 km/h (4 Bft) 96,00 %
10.12.2018 20:44 2,4 C 4,4 C 1,1 C 91 % 1016,6 hPa 0,0 l/m 18,7 km/h (3 Bft) W-SW 246 0 min 0,000 mm 0,0 UV-I 0 W/m 1,1 C -6,0 C 30,6 km/h (5 Bft) 97,87 %
10.12.2018 20:46 2,4 C 4,4 C 1,1 C 91 % 1016,7 hPa 0,0 l/m 18,5 km/h (3 Bft) W 262 0 min 0,000 mm 0,0 UV-I 0 W/m 1,1 C -5,9 C 27,4 km/h (4 Bft) 97,87 %
10.12.2018 20:48 2,4 C 4,4 C 1,1 C 91 % 1016,7 hPa 0,0 l/m 18,3 km/h (3 Bft) W-SW 240 0 min 0,000 mm 0,0 UV-I 0 W/m 1,1 C -5,8 C 29,0 km/h (5 Bft) 95,74 %
10.12.2018 20:50 2,5 C 4,4 C 1,1 C 90 % 1016,8 hPa 0,0 l/m 16,2 km/h (3 Bft) W-SW 248 0 min 0,000 mm 0,0 UV-I 0 W/m 1,0 C -4,6 C 24,1 km/h (4 Bft) 97,44 %
10.12.2018 20:52 2,5 C 4,4 C 1,7 C 90 % 1016,9 hPa 0,0 l/m 15,6 km/h (3 Bft) S-SW 213 0 min 0,000 mm 0,0 UV-I 0 W/m 1,0 C -4,3 C 20,9 km/h (4 Bft) 95,74 %
10.12.2018 20:54 2,5 C 4,4 C 1,7 C 90 % 1016,8 hPa 0,0 l/m 16,5 km/h (3 Bft) W-NW 296 0 min 0,000 mm 0,0 UV-I 0 W/m 1,0 C -4,8 C 22,5 km/h (4 Bft) 98,08 %
10.12.2018 20:56 2,6 C 4,4 C 1,7 C 90 % 1016,8 hPa 0,2 l/m 19,2 km/h (3 Bft) SW 233 0 min 0,000 mm 0,0 UV-I 0 W/m 1,1 C -5,9 C 29,0 km/h (5 Bft) 95,74 %
10.12.2018 20:58 2,6 C 4,4 C 1,7 C 90 % 1016,8 hPa 0,0 l/m 17,7 km/h (3 Bft) W-SW 250 0 min 0,000 mm 0,0 UV-I 0 W/m 1,1 C -5,2 C 27,4 km/h (4 Bft) 97,87 %
10.12.2018 21:00 2,6 C 4,4 C 1,7 C 89 % 1016,8 hPa 0,0 l/m 13,8 km/h (3 Bft) W 267 0 min 0,000 mm 0,0 UV-I 0 W/m 1,0 C -3,1 C 19,3 km/h (3 Bft) 95,74 %
10.12.2018 21:02 2,7 C 4,4 C 1,7 C 89 % 1016,8 hPa 0,0 l/m 13,0 km/h (3 Bft) W-SW 246 0 min 0,025 mm 0,0 UV-I 0 W/m 1,1 C -2,5 C 19,3 km/h (3 Bft) 97,37 %
10.12.2018 21:04 2,6 C 4,4 C 1,7 C 89 % 1016,8 hPa 0,0 l/m 16,2 km/h (3 Bft) W-SW 256 0 min 0,000 mm 0,0 UV-I 0 W/m 1,0 C -4,5 C 24,1 km/h (4 Bft) 98,00 %
10.12.2018 21:06 2,6 C 4,4 C 1,7 C 89 % 1016,7 hPa 0,0 l/m 14,6 km/h (3 Bft) W 273 0 min 0,000 mm 0,0 UV-I 0 W/m 1,0 C -3,6 C 22,5 km/h (4 Bft) 97,87 %
10.12.2018 21:08 2,6 C 4,4 C 1,7 C 89 % 1016,8 hPa 0,0 l/m 17,0 km/h (3 Bft) SW 232 0 min 0,000 mm 0,0 UV-I 0 W/m 1,0 C -4,9 C 22,5 km/h (4 Bft) 96,00 %
10.12.2018 21:10 2,7 C 4,4 C 1,7 C 89 % 1016,7 hPa 0,0 l/m 13,9 km/h (3 Bft) W 270 0 min 0,000 mm 0,0 UV-I 0 W/m 1,1 C -3,1 C 25,7 km/h (4 Bft) 97,87 %
10.12.2018 21:12 2,7 C 4,4 C 1,7 C 89 % 1016,7 hPa 0,0 l/m 15,3 km/h (3 Bft) W 275 0 min 0,000 mm 0,0 UV-I 0 W/m 1,1 C -3,9 C 20,9 km/h (4 Bft) 97,87 %
10.12.2018 21:14 2,7 C 4,4 C 1,7 C 89 % 1016,7 hPa 0,0 l/m 14,4 km/h (3 Bft) W 265 0 min 0,000 mm 0,0 UV-I 0 W/m 1,1 C -3,4 C 20,9 km/h (4 Bft) 95,74 %
10.12.2018 21:16 2,7 C 4,4 C 1,7 C 89 % 1016,7 hPa 0,0 l/m 16,6 km/h (3 Bft) SW 232 0 min 0,000 mm 0,0 UV-I 0 W/m 1,1 C -4,6 C 24,1 km/h (4 Bft) 96,00 %
10.12.2018 21:19 2,8 C 4,4 C 1,7 C 88 % 1016,7 hPa 0,2 l/m 18,6 km/h (3 Bft) W 259 0 min 0,000 mm 0,0 UV-I 0 W/m 1,0 C -5,4 C 40,2 km/h (6 Bft) 97,30 %
10.12.2018 21:20 2,8 C 4,4 C 1,7 C 88 % 1016,7 hPa 0,0 l/m 19,4 km/h (3 Bft) W-SW 239 0 min 0,000 mm 0,0 UV-I 0 W/m 1,0 C -5,8 C 25,7 km/h (4 Bft) 92,86 %
10.12.2018 21:22 2,9 C 4,4 C 1,7 C 88 % 1016,7 hPa 0,0 l/m 21,6 km/h (4 Bft) SW 235 0 min 0,000 mm 0,0 UV-I 0 W/m 1,1 C -6,5 C 33,8 km/h (5 Bft) 98,00 %
10.12.2018 21:24 2,9 C 4,4 C 1,7 C 87 % 1016,6 hPa 0,0 l/m 22,7 km/h (4 Bft) W-SW 257 0 min 0,000 mm 0,0 UV-I 0 W/m 1,0 C -7,0 C 32,2 km/h (5 Bft) 97,87 %
10.12.2018 21:26 3,0 C 4,4 C 1,7 C 87 % 1016,5 hPa 0,0 l/m 20,8 km/h (4 Bft) W-SW 258 0 min 0,000 mm 0,0 UV-I 0 W/m 1,1 C -6,1 C 32,2 km/h (5 Bft) 93,62 %
10.12.2018 21:28 3,0 C 4,4 C 1,7 C 87 % 1016,6 hPa 0,0 l/m 16,8 km/h (3 Bft) W 266 0 min 0,000 mm 0,0 UV-I 0 W/m 1,1 C -4,3 C 29,0 km/h (5 Bft) 97,92 %
10.12.2018 21:30 3,0 C 4,4 C 1,7 C 87 % 1016,6 hPa 0,0 l/m 25,9 km/h (4 Bft) W-SW 245 0 min 0,000 mm 0,0 UV-I 0 W/m 1,1 C -8,0 C 48,3 km/h (6 Bft) 97,83 %
10.12.2018 21:32 2,9 C 4,4 C 1,7 C 87 % 1016,6 hPa 0,0 l/m 19,3 km/h (3 Bft) W-NW 284 0 min 0,000 mm 0,0 UV-I 0 W/m 1,0 C -5,6 C 27,4 km/h (4 Bft) 92,00 %
10.12.2018 21:34 2,8 C 4,4 C 0,6 C 87 % 1016,7 hPa 0,2 l/m 34,2 km/h (5 Bft) W-NW 301 0 min 0,000 mm 0,0 UV-I 0 W/m 0,9 C -10,5 C 61,2 km/h (7 Bft) 92,31 %
10.12.2018 21:36 2,4 C 4,4 C 0,0 C 87 % 1017,0 hPa 0,0 l/m 27,8 km/h (4 Bft) W 263 0 min 0,000 mm 0,0 UV-I 0 W/m 0,5 C -9,4 C 41,8 km/h (6 Bft) 95,74 %
10.12.2018 21:38 2,0 C 4,4 C 0,0 C 88 % 1017,1 hPa 0,2 l/m 17,4 km/h (3 Bft) W-NW 300 0 min 0,000 mm 0,0 UV-I 0 W/m 0,2 C -5,8 C 33,8 km/h (5 Bft) 97,87 %
10.12.2018 21:40 1,5 C 4,4 C 0,0 C 88 % 1017,2 hPa 0,0 l/m 16,9 km/h (3 Bft) NW 317 0 min 0,000 mm 0,0 UV-I 0 W/m -0,3 C -6,2 C 30,6 km/h (5 Bft) 98,00 %
10.12.2018 21:42 1,1 C 4,4 C 0,0 C 90 % 1017,2 hPa 0,0 l/m 17,2 km/h (3 Bft) W 263 0 min 0,000 mm 0,0 UV-I 0 W/m -0,4 C -6,9 C 32,2 km/h (5 Bft) 97,87 %
10.12.2018 21:44 0,9 C 4,4 C 0,0 C 90 % 1017,2 hPa 0,0 l/m 19,8 km/h (3 Bft) W-NW 296 0 min 0,000 mm 0,0 UV-I 0 W/m -0,6 C -8,4 C 40,2 km/h (6 Bft) 91,49 %
10.12.2018 21:46 0,7 C 4,4 C 0,0 C 91 % 1017,1 hPa 0,2 l/m 14,9 km/h (3 Bft) W-NW 288 0 min 0,000 mm 0,0 UV-I 0 W/m -0,6 C -6,1 C 24,1 km/h (4 Bft) 95,74 %
10.12.2018 21:48 0,7 C 4,4 C 0,0 C 92 % 1017,1 hPa 0,0 l/m 17,9 km/h (3 Bft) W 276 0 min 0,000 mm 0,0 UV-I 0 W/m -0,4 C -7,7 C 35,4 km/h (5 Bft) 93,62 %
10.12.2018 21:50 0,6 C 4,4 C 0,0 C 92 % 1017,2 hPa 0,0 l/m 10,8 km/h (2 Bft) W-NW 288 0 min 0,000 mm 0,0 UV-I 0 W/m -0,5 C -3,4 C 17,7 km/h (3 Bft) 93,62 %
10.12.2018 21:52 0,5 C 4,4 C 0,0 C 92 % 1017,1 hPa 0,0 l/m 15,5 km/h (3 Bft) NW 320 0 min 0,000 mm 0,0 UV-I 0 W/m -0,6 C -6,7 C 32,2 km/h (5 Bft) 95,74 %
10.12.2018 21:54 0,5 C 4,4 C 0,0 C 93 % 1017,1 hPa 0,0 l/m 16,3 km/h (3 Bft) W-NW 291 0 min 0,000 mm 0,0 UV-I 0 W/m -0,5 C -7,1 C 22,5 km/h (4 Bft) 93,62 %
10.12.2018 21:56 0,4 C 4,4 C 0,0 C 93 % 1017,0 hPa 0,0 l/m 12,5 km/h (3 Bft) W-NW 293 0 min 0,000 mm 0,0 UV-I 0 W/m -0,6 C -4,9 C 20,9 km/h (4 Bft) 95,74 %
10.12.2018 21:58 0,4 C 4,4 C 0,0 C 93 % 1016,9 hPa 0,2 l/m 16,0 km/h (3 Bft) W 281 0 min 0,000 mm 0,0 UV-I 0 W/m -0,6 C -7,1 C 20,9 km/h (4 Bft) 92,68 %
10.12.2018 22:00 0,4 C 4,4 C 0,0 C 93 % 1016,9 hPa 0,0 l/m 12,6 km/h (3 Bft) W 261 0 min 0,000 mm 0,0 UV-I 0 W/m -0,6 C -5,0 C 17,7 km/h (3 Bft) 94,00 %
10.12.2018 22:02 0,4 C 4,4 C 0,0 C 94 % 1016,8 hPa 0,0 l/m 14,6 km/h (3 Bft) W 264 0 min 0,026 mm 0,0 UV-I 0 W/m -0,5 C -6,3 C 22,5 km/h (4 Bft) 94,34 %
10.12.2018 22:04 0,4 C 4,4 C 0,0 C 94 % 1016,7 hPa 0,0 l/m 12,4 km/h (3 Bft) W 271 0 min 0,000 mm 0,0 UV-I 0 W/m -0,5 C -4,8 C 20,9 km/h (4 Bft) 93,62 %
10.12.2018 22:06 0,4 C 4,4 C 0,0 C 94 % 1016,5 hPa 0,0 l/m 13,9 km/h (3 Bft) W-SW 248 0 min 0,000 mm 0,0 UV-I 0 W/m -0,5 C -5,8 C 20,9 km/h (4 Bft) 93,62 %
10.12.2018 22:08 0,4 C 4,4 C 0,0 C 94 % 1016,5 hPa 0,0 l/m 13,0 km/h (3 Bft) W 264 0 min 0,000 mm 0,0 UV-I 0 W/m -0,5 C -5,2 C 20,9 km/h (4 Bft) 95,74 %
10.12.2018 22:10 0,4 C 4,4 C 0,0 C 94 % 1016,6 hPa 0,0 l/m 16,9 km/h (3 Bft) W-NW 288 0 min 0,000 mm 0,0 UV-I 0 W/m -0,5 C -7,6 C 25,7 km/h (4 Bft) 97,44 %
10.12.2018 22:12 0,4 C 4,4 C 0,0 C 94 % 1016,6 hPa 0,0 l/m 15,2 km/h (3 Bft) W 264 0 min 0,000 mm 0,0 UV-I 0 W/m -0,5 C -6,6 C 20,9 km/h (4 Bft) 95,74 %
10.12.2018 22:14 0,4 C 4,4 C 0,0 C 94 % 1016,6 hPa 0,0 l/m 15,7 km/h (3 Bft) W 269 0 min 0,000 mm 0,0 UV-I 0 W/m -0,5 C -6,9 C 22,5 km/h (4 Bft) 93,62 %
10.12.2018 22:16 0,4 C 4,4 C 0,0 C 94 % 1016,7 hPa 0,0 l/m 10,9 km/h (2 Bft) W 271 0 min 0,000 mm 0,0 UV-I 0 W/m -0,5 C -3,7 C 17,7 km/h (3 Bft) 96,00 %
10.12.2018 22:18 0,4 C 4,4 C 0,0 C 94 % 1016,7 hPa 0,0 l/m 11,4 km/h (2 Bft) W 260 0 min 0,000 mm 0,0 UV-I 0 W/m -0,5 C -4,1 C 14,5 km/h (3 Bft) 97,87 %
10.12.2018 22:20 0,4 C 4,4 C 0,0 C 95 % 1016,7 hPa 0,0 l/m 12,8 km/h (3 Bft) W 263 0 min 0,000 mm 0,0 UV-I 0 W/m -0,3 C -5,1 C 22,5 km/h (4 Bft) 98,00 %
10.12.2018 22:22 0,4 C 4,4 C 0,0 C 94 % 1016,8 hPa 0,0 l/m 13,8 km/h (3 Bft) W 263 0 min 0,000 mm 0,0 UV-I 0 W/m -0,5 C -5,8 C 19,3 km/h (3 Bft) 97,37 %
10.12.2018 22:24 0,4 C 4,4 C 0,0 C 95 % 1016,8 hPa 0,0 l/m 13,3 km/h (3 Bft) W-NW 286 0 min 0,000 mm 0,0 UV-I 0 W/m -0,3 C -5,4 C 20,9 km/h (4 Bft) 97,87 %
10.12.2018 22:26 0,4 C 4,4 C 0,0 C 95 % 1016,8 hPa 0,2 l/m 12,6 km/h (3 Bft) W 276 0 min 0,000 mm 0,0 UV-I 0 W/m -0,3 C -5,0 C 16,1 km/h (3 Bft) 97,87 %
10.12.2018 22:28 0,4 C 4,4 C 0,0 C 95 % 1016,9 hPa 0,0 l/m 12,3 km/h (3 Bft) W 264 0 min 0,000 mm 0,0 UV-I 0 W/m -0,3 C -4,8 C 16,1 km/h (3 Bft) 98,00 %
10.12.2018 22:30 0,4 C 4,4 C 0,0 C 95 % 1016,9 hPa 0,0 l/m 12,4 km/h (3 Bft) W-SW 254 0 min 0,000 mm 0,0 UV-I 0 W/m -0,3 C -4,8 C 16,1 km/h (3 Bft) 95,74 %
10.12.2018 22:32 0,5 C 4,4 C 0,0 C 95 % 1016,9 hPa 0,0 l/m 15,6 km/h (3 Bft) W 265 0 min 0,000 mm 0,0 UV-I 0 W/m -0,2 C -6,7 C 20,9 km/h (4 Bft) 95,74 %
10.12.2018 22:34 0,5 C 4,4 C 0,0 C 95 % 1016,8 hPa 0,0 l/m 14,8 km/h (3 Bft) W 279 0 min 0,000 mm 0,0 UV-I 0 W/m -0,2 C -6,3 C 24,1 km/h (4 Bft) 95,74 %
10.12.2018 22:36 0,5 C 4,4 C 0,0 C 95 % 1016,9 hPa 0,2 l/m 15,4 km/h (3 Bft) W-NW 298 0 min 0,000 mm 0,0 UV-I 0 W/m -0,2 C -6,6 C 19,3 km/h (3 Bft) 98,00 %
10.12.2018 22:38 0,5 C 4,4 C 0,0 C 95 % 1016,9 hPa 0,0 l/m 11,6 km/h (2 Bft) NW 315 0 min 0,000 mm 0,0 UV-I 0 W/m -0,2 C -4,1 C 17,7 km/h (3 Bft) 100,00 %
10.12.2018 22:40 0,5 C 4,4 C 0,0 C 95 % 1017,0 hPa 0,0 l/m 12,9 km/h (3 Bft) W-NW 288 0 min 0,000 mm 0,0 UV-I 0 W/m -0,2 C -5,0 C 20,9 km/h (4 Bft) 100,00 %
10.12.2018 22:42 0,6 C 4,4 C 0,0 C 95 % 1017,0 hPa 0,0 l/m 11,9 km/h (2 Bft) W 279 0 min 0,000 mm 0,0 UV-I 0 W/m -0,1 C -4,2 C 24,1 km/h (4 Bft) 100,00 %
10.12.2018 22:44 0,6 C 4,4 C 0,0 C 95 % 1017,0 hPa 0,0 l/m 12,3 km/h (3 Bft) W 271 0 min 0,000 mm 0,0 UV-I 0 W/m -0,1 C -4,5 C 24,1 km/h (4 Bft) 95,74 %
10.12.2018 22:46 0,6 C 4,4 C 0,0 C 95 % 1017,1 hPa 0,0 l/m 10,1 km/h (2 Bft) W-NW 295 0 min 0,000 mm 0,0 UV-I 0 W/m -0,1 C -2,9 C 17,7 km/h (3 Bft) 100,00 %
10.12.2018 22:48 0,6 C 4,4 C 0,0 C 95 % 1017,1 hPa 0,0 l/m 9,6 km/h (2 Bft) W 279 0 min 0,000 mm 0,0 UV-I 0 W/m -0,1 C -2,5 C 17,7 km/h (3 Bft) 100,00 %
10.12.2018 22:50 0,6 C 4,4 C 0,0 C 95 % 1017,1 hPa 0,0 l/m 9,5 km/h (2 Bft) W 279 0 min 0,000 mm 0,0 UV-I 0 W/m -0,1 C -2,4 C 14,5 km/h (3 Bft) 100,00 %
10.12.2018 22:52 0,6 C 4,4 C 0,0 C 95 % 1017,1 hPa 0,0 l/m 10,9 km/h (2 Bft) W-NW 283 0 min 0,000 mm 0,0 UV-I 0 W/m -0,1 C -3,5 C 16,1 km/h (3 Bft) 100,00 %
10.12.2018 22:54 0,6 C 4,4 C 0,0 C 95 % 1017,0 hPa 0,0 l/m 10,0 km/h (2 Bft) W 279 0 min 0,000 mm 0,0 UV-I 0 W/m -0,1 C -2,8 C 14,5 km/h (3 Bft) 95,74 %
10.12.2018 22:56 0,6 C 4,4 C 0,0 C 95 % 1017,0 hPa 0,0 l/m 12,8 km/h (3 Bft) W 271 0 min 0,000 mm 0,0 UV-I 0 W/m -0,1 C -4,9 C 17,7 km/h (3 Bft) 98,00 %
10.12.2018 22:58 0,6 C 4,4 C 0,0 C 95 % 1017,0 hPa 0,0 l/m 7,9 km/h (2 Bft) NW 323 0 min 0,000 mm 0,0 UV-I 0 W/m -0,1 C -0,9 C 12,9 km/h (3 Bft) 97,87 %
10.12.2018 23:00 0,6 C 4,4 C 0,0 C 95 % 1017,0 hPa 0,0 l/m 9,9 km/h (2 Bft) W-NW 302 0 min 0,000 mm 0,0 UV-I 0 W/m -0,1 C -2,7 C 14,5 km/h (3 Bft) 95,74 %
10.12.2018 23:02 0,7 C 4,4 C 0,0 C 95 % 1017,0 hPa 0,0 l/m 7,6 km/h (2 Bft) W 270 0 min 0,000 mm 0,0 UV-I 0 W/m -0,0 C -0,5 C 12,9 km/h (3 Bft) 95,74 %
10.12.2018 23:04 0,7 C 4,4 C 0,0 C 95 % 1017,1 hPa 0,0 l/m 11,1 km/h (2 Bft) W-SW 240 0 min 0,000 mm 0,0 UV-I 0 W/m -0,0 C -3,5 C 16,1 km/h (3 Bft) 94,74 %
10.12.2018 23:06 0,7 C 4,4 C 0,0 C 95 % 1017,2 hPa 0,0 l/m 14,5 km/h (3 Bft) W 266 0 min 0,000 mm 0,0 UV-I 0 W/m -0,0 C -5,8 C 20,9 km/h (4 Bft) 95,74 %
10.12.2018 23:08 0,7 C 4,4 C 0,0 C 95 % 1017,1 hPa 0,0 l/m 14,4 km/h (3 Bft) W 274 0 min 0,000 mm 0,0 UV-I 0 W/m -0,0 C -5,8 C 24,1 km/h (4 Bft) 96,00 %
10.12.2018 23:10 0,7 C 4,4 C 0,0 C 95 % 1017,1 hPa 0,0 l/m 14,0 km/h (3 Bft) W 276 0 min 0,000 mm 0,0 UV-I 0 W/m -0,0 C -5,5 C 24,1 km/h (4 Bft) 95,74 %
10.12.2018 23:12 0,7 C 4,4 C 0,0 C 95 % 1017,1 hPa 0,0 l/m 16,2 km/h (3 Bft) W-SW 257 0 min 0,000 mm 0,0 UV-I 0 W/m -0,0 C -6,8 C 22,5 km/h (4 Bft) 94,00 %
10.12.2018 23:14 0,7 C 4,4 C 0,0 C 95 % 1017,1 hPa 0,0 l/m 16,6 km/h (3 Bft) W 272 0 min 0,000 mm 0,0 UV-I 0 W/m -0,0 C -7,0 C 22,5 km/h (4 Bft) 96,00 %
10.12.2018 23:16 0,7 C 4,4 C 0,0 C 95 % 1017,1 hPa 0,0 l/m 14,2 km/h (3 Bft) W 264 0 min 0,000 mm 0,0 UV-I 0 W/m -0,0 C -5,7 C 17,7 km/h (3 Bft) 94,74 %
10.12.2018 23:18 0,7 C 4,4 C 0,0 C 95 % 1017,1 hPa 0,0 l/m 15,4 km/h (3 Bft) W 277 0 min 0,000 mm 0,0 UV-I 0 W/m -0,0 C -6,4 C 20,9 km/h (4 Bft) 93,62 %
10.12.2018 23:20 0,8 C 4,4 C 0,0 C 95 % 1017,2 hPa 0,0 l/m 13,5 km/h (3 Bft) W 269 0 min 0,000 mm 0,0 UV-I 0 W/m 0,1 C -5,1 C 20,9 km/h (4 Bft) 94,00 %
10.12.2018 23:22 0,8 C 4,4 C 0,0 C 95 % 1017,3 hPa 0,0 l/m 10,5 km/h (2 Bft) W 276 0 min 0,000 mm 0,0 UV-I 0 W/m 0,1 C -3,0 C 16,1 km/h (3 Bft) 97,87 %
10.12.2018 23:24 0,8 C 4,4 C 0,0 C 95 % 1017,3 hPa 0,0 l/m 12,6 km/h (3 Bft) W 261 0 min 0,000 mm 0,0 UV-I 0 W/m 0,1 C -4,5 C 19,3 km/h (3 Bft) 95,83 %
10.12.2018 23:26 0,8 C 4,4 C 0,0 C 95 % 1017,3 hPa 0,0 l/m 12,8 km/h (3 Bft) W-SW 248 0 min 0,000 mm 0,0 UV-I 0 W/m 0,1 C -4,6 C 17,7 km/h (3 Bft) 97,87 %
10.12.2018 23:28 0,8 C 4,4 C 0,0 C 95 % 1017,3 hPa 0,0 l/m 10,2 km/h (2 Bft) W 279 0 min 0,000 mm 0,0 UV-I 0 W/m 0,1 C -2,7 C 17,7 km/h (3 Bft) 98,00 %
10.12.2018 23:30 0,8 C 4,4 C 0,0 C 95 % 1017,4 hPa 0,0 l/m 11,0 km/h (2 Bft) SW 234 0 min 0,000 mm 0,0 UV-I 0 W/m 0,1 C -3,3 C 17,7 km/h (3 Bft) 97,87 %
10.12.2018 23:32 0,8 C 4,4 C 0,0 C 95 % 1017,3 hPa 0,0 l/m 11,4 km/h (2 Bft) W 260 0 min 0,000 mm 0,0 UV-I 0 W/m 0,1 C -3,6 C 16,1 km/h (3 Bft) 97,37 %
10.12.2018 23:34 0,8 C 4,4 C 0,0 C 95 % 1017,4 hPa 0,0 l/m 12,1 km/h (2 Bft) W-SW 258 0 min 0,000 mm 0,0 UV-I 0 W/m 0,1 C -4,2 C 16,1 km/h (3 Bft) 100,00 %
10.12.2018 23:36 0,8 C 4,4 C 0,0 C 95 % 1017,3 hPa 0,0 l/m 13,8 km/h (3 Bft) W 272 0 min 0,000 mm 0,0 UV-I 0 W/m 0,1 C -5,3 C 19,3 km/h (3 Bft) 100,00 %
10.12.2018 23:38 0,8 C 4,4 C 0,0 C 95 % 1017,3 hPa 0,0 l/m 16,7 km/h (3 Bft) W-SW 257 0 min 0,000 mm 0,0 UV-I 0 W/m 0,1 C -7,0 C 22,5 km/h (4 Bft) 98,00 %
10.12.2018 23:40 0,8 C 4,4 C 0,0 C 95 % 1017,2 hPa 0,0 l/m 16,9 km/h (3 Bft) W-SW 255 0 min 0,000 mm 0,0 UV-I 0 W/m 0,1 C -7,1 C 24,1 km/h (4 Bft) 100,00 %
10.12.2018 23:42 0,9 C 4,4 C 0,0 C 95 % 1017,3 hPa 0,0 l/m 16,9 km/h (3 Bft) W-SW 240 0 min 0,000 mm 0,0 UV-I 0 W/m 0,2 C -6,9 C 24,1 km/h (4 Bft) 100,00 %
10.12.2018 23:44 0,9 C 4,4 C 0,0 C 95 % 1017,3 hPa 0,0 l/m 15,2 km/h (3 Bft) W 263 0 min 0,000 mm 0,0 UV-I 0 W/m 0,2 C -6,0 C 20,9 km/h (4 Bft) 100,00 %
10.12.2018 23:46 0,9 C 4,4 C 0,0 C 95 % 1017,3 hPa 0,0 l/m 12,3 km/h (3 Bft) W-SW 258 0 min 0,000 mm 0,0 UV-I 0 W/m 0,2 C -4,2 C 17,7 km/h (3 Bft) 96,00 %
10.12.2018 23:48 0,9 C 4,4 C 0,0 C 95 % 1017,3 hPa 0,0 l/m 15,5 km/h (3 Bft) SW 236 0 min 0,000 mm 0,0 UV-I 0 W/m 0,2 C -6,2 C 24,1 km/h (4 Bft) 97,87 %
10.12.2018 23:50 0,9 C 4,4 C 0,0 C 94 % 1017,3 hPa 0,0 l/m 19,3 km/h (3 Bft) W-SW 250 0 min 0,000 mm 0,0 UV-I 0 W/m 0,0 C -8,1 C 25,7 km/h (4 Bft) 100,00 %
10.12.2018 23:52 0,9 C 4,4 C 0,0 C 95 % 1017,3 hPa 0,0 l/m 17,0 km/h (3 Bft) W-SW 252 0 min 0,000 mm 0,0 UV-I 0 W/m 0,2 C -7,0 C 22,5 km/h (4 Bft) 98,11 %
10.12.2018 23:54 0,9 C 4,4 C 0,0 C 95 % 1017,3 hPa 0,0 l/m 15,3 km/h (3 Bft) W 266 0 min 0,000 mm 0,0 UV-I 0 W/m 0,2 C -6,1 C 22,5 km/h (4 Bft) 100,00 %
10.12.2018 23:56 0,9 C 4,4 C 0,0 C 94 % 1017,3 hPa 0,0 l/m 14,3 km/h (3 Bft) W 275 0 min 0,000 mm 0,0 UV-I 0 W/m 0,0 C -5,5 C 25,7 km/h (4 Bft) 94,74 %
10.12.2018 23:58 0,9 C 4,4 C 0,0 C 94 % 1017,4 hPa 0,0 l/m 17,4 km/h (3 Bft) W-SW 238 0 min 0,000 mm 0,0 UV-I 0 W/m 0,0 C -7,2 C 27,4 km/h (4 Bft) 97,87 %
_ Min-Zeit 21:54 00:00 15:40 13:32 00:02 - 17:26 - - - - - - 21:52 21:34 17:26 14:24
Minimum _ 0,4 C 4,4 C 0,0 C 76 % 1008,9 hPa - 4,0 km/h (1 Bft) - - - - - - -0,6 C -10,5 C 6,4 km/h (2 Bft) 89,06 %
_ Max-Zeit 01:00 00:00 13:12 22:20 18:26 00:00 21:34 - - 12:38 14:02 00:00 14:22 00:30 07:24 21:34 00:18
Maximum _ 5,8 C 4,4 C 6,1 C 95 % 1017,9 hPa 0,4 l/m 34,2 km/h
W-NW (5 Bft)
- - 2 min 0,101 mm 0,0 UV-I 204 W/m 4,0 C 2,5 C 61,2 km/h
W (7 Bft)
100,00 %
Durchschnitt _ 3,4 C 4,4 C 2,7 C 87 % 1015,2 hPa #5,2 l/m 17,6 km/h (3 Bft) W - #46 min. #0,737 mm 0,0 UV-I 79 W/m 1,4 C -3,8 C 27,5 km/h (4 Bft) 97,14 %